     2.10           OBSERVATION DATA    M (MIXED)           RINEX VERSION / TYPE
teqc 2002Mar14 20051003 00:27:01UTC                         PGM / RUN BY / DATE
Linux 2.0.36|Pentium II|gcc -static|Linux|486/DX+           COMMENT
teqc 2002Mar14 20051002 00:59:56UTC                         COMMENT
TPS2RIN 1.40 lnx Automatic 02-OCT-05 00:59                  COMMENT
build Feb 4 2004 (c) Topcon Positioning Systems             COMMENT
Insert your comment here                                    COMMENT
/ramdisk0/WTZR275A.jps                                      COMMENT
WTZR                                                        MARKER NAME
14201M010                                                   MARKER NUMBER
Automatic BKG Wettzell                                      OBSERVER / AGENCY
AFY49G7RSHS TPS E_GGD 2.3 Jun,24,2004 p5b1                  REC # / TYPE / VERS
404 AOAD/M_T NONE                                           ANT # / TYPE
  4075579.3697   931854.8317  4801568.4838                  APPROX POSITION XYZ
        0.0710        0.0000        0.0000                  ANTENNA: DELTA H/E/N
     1     1                                                WAVELENGTH FACT L1/2
Forced Modulo Decimation to 30 seconds                      COMMENT
Forced Modulo Decimation to 30 seconds                      COMMENT
  2005    10     2     0     0    0.0000000     GPS         TIME OF FIRST OBS
    30.0000                                                 INTERVAL
Expected: 3600 arrived: 3600 loss: 0 epochs                 COMMENT
    13                                                      LEAP SECONDS
     9    C1    P1    P2    L1    L2    D1    D2    S1    S2# / TYPES OF OBSERV
     0                                                      RCV CLOCK OFFS APPL
SE TPS 00000000                                             COMMENT
                                                            END OF HEADER
 05 10  2  0  0  0.0000000  0 16G 1G 3G 9G11G14G19G20G22G24G28G31R 2
                                R 3R 4R17R18
  21683772.400    21683771.9434   21683775.7154  113949016.533 7  88791450.56145
      1935.572        1508.235          48.000          36.000
  24360573.925    24360574.8794   24360577.3004  128015700.852 6  99752526.49842
     -3761.023       -2930.660          40.000          20.000
  25213296.677                                   132496736.301 3
     -1124.892                          28.000
  20475973.897    20475973.0664   20475974.4134  107601935.187 7  83845725.10346
      1188.606         926.186          49.000          40.000
  21678409.307    21678408.1654   21678409.8534  113920829.081 7  88769498.52945
      -391.062        -304.717          47.000          35.000
  21631565.894    21631564.4444   21631565.9934  113674691.084 7  88577686.52845
     -2630.026       -2049.372          47.000          36.000
  22970143.703    22970142.9764   22970146.1534  120708882.989 6  94058920.40243
      3148.333        2453.240          44.000          27.000
  24211606.590    24211607.9084   24211608.5094  127232932.866 6  99142528.71642
     -3288.301       -2562.319          40.000          22.000
  25390959.438    25390964.3794   25390967.1604  133430409.621 4 103971770.53041
      3137.791        2445.001          34.000          12.000
  23886441.414    23886439.2194   23886440.2184  125524024.192 6  97810997.41742
      -643.219        -501.220          42.000          20.000
  23237659.137    23237658.6144   23237662.1544  122114731.289 6  95154354.64142
      2910.415        2267.866          42.000          23.000
  21484408.292    21484407.705    21484411.070   114846547.864 7  89325090.703 6
     -3387.898       -2635.029          46.000          42.000
  19310523.983    19310525.987    19310527.100   103624355.579 7  80596790.899 7
       108.073          84.059          47.000          46.000
  21511414.799    21511417.093    21511415.982   115192633.369 7  89594323.568 5
      3203.745        2491.803          46.000          37.000
  22479027.738    22479028.859    22479030.669   120332087.735 6  93591600.464 3
     -4373.207       -3401.398          41.000          27.000
  19600961.915    19600963.010    19600967.268   105109363.771 7  81751766.452 6
       582.374         452.953          47.000          43.000
 05 10  2  0  0 30.0000000  0 16G 1G 3G 9G11G14G19G20G22G24G28G31R 2
                                R 3R 4R17R18
  21672771.980    21672770.8344   21672774.1854  113891203.453 8  88746401.42745
      1918.630        1495.038          50.000          37.000
  24382052.631    24382051.1934   24382055.0464  128128563.529 6  99840471.39742
     -3763.121       -2932.308          41.000          20.000
  25219772.354                                   132530772.334 3
     -1144.170                          27.000
  20469224.612    20469223.7124   20469224.8474  107566466.911 8  83818087.48546
      1175.918         916.305          50.000          41.000
  21680700.302    21680699.2364   21680701.2814  113932869.853 7  88778880.96145
      -411.673        -320.790          47.000          35.000
  21646619.583    21646618.5404   21646619.0304  113753795.946 7  88639326.67745
     -2643.632       -2059.973          49.000          38.000
  22952191.741    22952189.6864   22952193.8474  120614544.927 6  93985410.24543
      3140.859        2447.418          44.000          27.000
  24230387.758    24230386.1994   24230386.1714  127331615.479 6  99219424.23942
     -3290.559       -2564.062          42.000          21.000
  25373050.382    25373048.2164   25373051.6184  133336274.794 4 103898418.73041
      3137.786        2445.041          34.000          12.000
  23890162.284    23890163.1144   23890162.8284  125543585.663 6  97826240.07242
      -660.877        -514.969          40.000          20.000
  23221081.767    23221080.7844   23221082.8124  122027610.495 6  95086468.30142
      2897.642        2257.894          43.000          24.000
  21503442.011    21503439.985    21503443.021   114948284.448 7  89404219.151 6
     -3394.530       -2640.188          47.000          43.000
  19309967.748    19309969.744    19309971.462   103621371.700 7  80594470.118 7
        90.755          70.589          48.000          49.000
  21493497.439    21493499.656    21493499.546   115096687.172 7  89519698.772 5
      3192.582        2483.121          47.000          38.000
  22503559.282    22503560.709    22503560.795   120463402.985 6  93693734.510 3
     -4381.156       -3407.530          43.000          27.000
  19597778.913    19597779.659    19597783.842   105092292.907 7  81738489.108 7
       555.672         432.194          48.000          45.000
 05 10  2  0  1  0.0000000  0 15G 1G 3G11G14G19G20G22G24G28G31R 2R 3
                                R 4R17R18
  21661867.481    21661866.5614   21661869.6324  113833900.192 7  88701749.53845
      1901.601        1481.767          48.000          36.000
  24403541.422    24403539.7214   24403543.9514  128241487.611 6  99928464.20641
     -3765.142       -2933.885          41.000          19.000
  20462547.660    20462547.0004   20462547.9814  107531380.160 7  83790747.15946
      1163.199         906.392          49.000          40.000
  21683109.247    21683108.2234   21683110.3044  113945528.058 7  88788744.50345
      -432.245        -336.810          48.000          35.000
  21661749.335    21661748.2664   21661749.6244  113833307.646 7  88701283.82345
     -2657.176       -2070.523          47.000          36.000
  22934281.841    22934281.2924   22934284.0444  120520431.403 6  93912075.05143
      3133.391        2441.599          44.000          26.000
  24249178.693    24249178.8604   24249179.0744  127430366.381 6  99296372.97242
     -3292.793       -2565.827          41.000          21.000
  25355137.623    25355136.3024   25355144.9094  133242141.630 4 103825068.19741
      3137.723        2444.922          33.000          10.000
  23893986.469    23893985.1464   23893987.7524  125563676.959 6  97841895.60141
      -678.561        -528.745          40.000          19.000
  23204575.660    23204575.1454   23204576.3054  121940872.123 6  95018879.95542
      2884.823        2247.933          42.000          22.000
  21522510.434    21522509.218    21522511.843   115050219.314 7  89483501.820 6
     -3401.101       -2645.298          46.000          42.000
  19309508.645    19309510.094    19309511.645   103618904.980 7  80592551.562 7
        73.622          57.260          47.000          46.000
  21475643.705    21475645.114    21475643.917   115001076.504 7  89445334.944 5
      3181.434        2474.450          46.000          38.000
  22528134.171    22528135.622    22528136.842   120594958.722 6  93796055.659 3
     -4389.176       -3413.800          42.000          27.000
  19594744.897    19594745.895    19594750.324   105076025.225 7  81725836.462 6
       528.814         411.299          47.000          44.000
 05 10  2  0  1 30.0000000  0 15G 1G 3G11G14G19G20G22G24G28G31R 2R 3
                                R 4R17R18
  21651059.851    21651059.3934   21651062.3194  113777108.763 8  88657496.49745
      1884.491        1468.436          50.000          37.000
  24425041.177    24425041.4544   24425041.7714  128354470.960 6 100016503.17541
     -3767.067       -2935.380          40.000          18.000
  20455943.728    20455942.9364   20455943.8794  107496675.977 8  83763704.93946
      1150.407         896.421          51.000          41.000
  21685635.037    21685634.2674   21685636.4424  113958803.115 7  88799088.71045
      -452.781        -352.813          48.000          36.000
  21676957.827    21676956.5194   21676957.2514  113913224.056 7  88763556.34745
     -2670.604       -2080.991          48.000          38.000
  22916416.711    22916415.6654   22916418.2564  120426543.860 7  93838915.91043
      3125.811        2435.688          45.000          28.000
  24267983.635    24267982.5574   24267983.6694  127529183.836 6  99373373.57542
     -3295.001       -2567.533          43.000          21.000
  25337222.427    25337224.5384   25337228.1514  133148010.924 4 103751719.63041
      3137.724        2444.975          34.000          11.000
  23897911.380    23897908.4964   23897909.7974  125584296.471 6  97857962.73541
      -696.131        -542.442          42.000          19.000
  23188143.109    23188141.6924   23188144.4934  121854518.766 6  94951591.59142
      2871.957        2237.892          43.000          23.000
  21541615.264    21541614.823    21541617.856   115152350.177 7  89562936.935 6
     -3407.620       -2650.364          46.000          43.000
  19309145.233    19309146.841    19309148.451   103616955.350 7  80591035.187 7
        56.390          43.863          48.000          49.000
  21457852.073    21457853.891    21457852.532   114905802.828 7  89371233.209 5
      3170.188        2465.706          48.000          37.000
  22552755.015    22552756.053    22552756.669   120726750.551 6  93898560.393 3
     -4396.978       -3419.877          42.000          27.000
  19591861.303    19591862.437    19591866.787   105060562.384 7  81713809.804 7
       502.035         390.475          48.000          45.000
 05 10  2  0  2  0.0000000  0 15G 1G 3G11G14G19G20G22G24G28G31R 2R 3
                                R 4R17R18
  21640350.683    21640350.0544   21640353.0054  113720831.089 8  88613643.77445
      1867.329        1455.064          50.000          37.000
  24446551.372    24446549.7924   24446555.4074  128467511.594 6 100104586.79941
     -3768.950       -2936.854          40.000          19.000
  20449412.744    20449412.0454   20449413.0054  107462355.537 8  83736961.74446
      1137.620         886.456          51.000          41.000
  21688278.641    21688277.6784   21688279.4814  113972694.521 7  88809913.20045
      -473.304        -368.809          48.000          35.000
  21692240.579    21692240.0414   21692241.4604  113993543.378 7  88826142.82845
     -2684.022       -2091.448          47.000          37.000
  22898593.083    22898591.3384   22898596.1574  120332883.463 6  93765933.80843
      3118.202        2429.768          44.000          27.000
  24286799.827    24286798.4624   24286800.1764  127628066.404 6  99450424.91542
     -3297.142       -2569.205          42.000          21.000
  25319312.080    25319313.7754   25319317.2954  133053883.355 4 103678373.47141
      3137.520        2444.850          34.000           8.000
  23901933.897    23901932.7424   23901934.0834  125605442.978 5  97874440.57041
      -713.575        -556.042          39.000          18.000
  23171785.322    23171784.2464   23171785.9224  121768553.212 6  94884605.47242
      2859.061        2227.837          43.000          24.000
  21560756.813    21560756.571    21560759.863   115254674.469 7  89642522.494 6
     -3414.032       -2655.358          46.000          43.000
  19308877.578    19308879.324    19308880.888   103615520.747 7  80589919.398 7
        39.228          30.508          48.000          49.000
  21440122.850    21440124.956    21440123.951   114810867.598 7  89297394.711 5
      3158.851        2456.883          47.000          38.000
  22577416.499    22577417.981    22577418.383   120858777.143 6  94001247.715 3
     -4404.827       -3425.979          41.000          27.000
  19589128.123    19589129.051    19589133.445   105045905.078 7  81702409.673 7
       475.146         369.563          48.000          45.000
 05 10  2  0  2 30.0000000  0 15G 1G 3G11G14G19G20G22G24G28G31R 2R 3
                                R 4R17R18
  21629739.949    21629739.1874   21629741.9824  113665069.087 7  88570192.87545
      1850.108        1441.631          49.000          37.000
  24468073.520    24468072.2554   24468076.1314  128580607.051 6 100192713.07041
     -3770.670       -2938.169          40.000          19.000
  20442954.695    20442954.3214   20442955.3394  107428419.778 8  83710518.29546
      1124.763         876.431          50.000          41.000
  21691039.168    21691038.3154   21691040.3574  113987201.494 7  88821217.34445
      -493.826        -384.805          48.000          35.000
  21707603.007    21707601.5074   21707602.0084  114074263.556 7  88889041.65345
     -2697.324       -2101.815          48.000          37.000
  22880813.551    22880812.7834   22880815.6084  120239451.515 7  93693129.75143
      3110.603        2423.852          45.000          27.000
  24305628.725    24305628.2114   24305628.6924  127727012.462 6  99527525.73742
     -3299.255       -2570.851          42.000          22.000
  25301399.398    25301401.8904   25301405.4624  132959759.662 4 103605030.36541
      3137.277        2444.588          31.000           9.000
  23906057.850    23906057.4184   23906060.1554  125627115.456 6  97891328.16341
      -731.216        -569.803          40.000          19.000
  23155499.244    23155499.1544   23155501.6584  121682978.219 6  94817923.62242
      2845.981        2217.660          41.000          23.000
  21579935.741    21579934.251    21579937.624   115357189.945 7  89722256.741 6
     -3420.321       -2660.251          46.000          42.000
  19308705.947    19308707.899    19308709.177   103614599.989 7  80589203.264 7
        22.118          17.202          48.000          49.000
  21422457.757    21422459.574    21422458.627   114716271.527 7  89223820.002 5
      3147.524        2448.077          48.000          37.000
  22602123.705    22602125.106    22602127.841   120991033.673 6  94104113.893 3
     -4412.318       -3431.816          41.000          27.000
  19586545.670    19586546.540    19586550.441   105032055.930 7  81691638.111 7
       448.180         348.582          48.000          45.000
 05 10  2  0  3  0.0000000  0 15G 1G 3G11G14G19G20G22G24G28G31R 2R 3
                                R 4R17R18
  21619226.419    21619225.6684   21619229.3864  113609824.684 7  88527145.30645
      1832.836        1428.177          47.000          37.000
  24489604.946    24489604.0464   24489606.1214  128693754.962 6 100280880.28941
     -3772.457       -2939.573          40.000          19.000
  20436570.858    20436569.8324   20436570.9544  107394869.720 7  83684375.39346
      1111.883         866.399          48.000          41.000
  21693917.014    21693915.9944   21693917.9094  114002323.627 7  88833000.82845
      -514.319        -400.776          46.000          35.000
  21723038.537    21723037.5254   21723038.6704  114155382.451 7  88952251.17445
     -2710.594       -2112.158          47.000          37.000
  22863078.153    22863077.2274   22863078.6484  120146248.939 6  93620504.34543
      3102.939        2417.876          44.000          27.000
  24324468.814    24324469.3664   24324468.6254  127826020.597 6  99604674.93942
     -3301.256       -2572.406          42.000          21.000
  25283490.541    25283487.4124   25283491.7874  132865640.366 4 103531690.69141
      3137.212        2444.571          33.000           9.000
  23910281.896    23910280.6384   23910283.3954  125649312.821 6  97908624.80041
      -748.652        -583.388          40.000          18.000
  23139291.600    23139290.3644   23139291.8594  121597796.301 6  94751548.14042
      2832.822        2207.392          42.000          23.000
  21599147.937    21599147.153    21599150.228   115459893.911 7  89802137.606 6
     -3426.605       -2665.138          45.000          42.000
  19308630.355    19308632.293    19308633.301   103614192.682 7  80588886.474 7
         4.991           3.881          46.000          47.000
  21404857.879    21404859.330    21404857.731   114622016.577 7  89150510.622 5
      3136.161        2439.237          47.000          38.000
  22626874.108    22626874.823    22626876.399   121123516.610 6  94207156.155 3
     -4419.933       -3437.746          41.000          27.000
  19584113.518    19584114.889    19584118.906   105019015.101 7  81681495.235 6
       421.203         327.603          46.000          43.000
 05 10  2  0  3 30.0000000  0 15G 1G 3G11G14G19G20G22G24G28G31R 2R 3
                                R 4R17R18
  21608813.125    21608812.6374   21608815.6324  113555099.793 7  88484502.55045
      1815.469        1414.653          47.000          37.000
  24511146.598    24511144.2034   24511147.7034  128806953.174 6 100369086.67741
     -3774.005       -2940.785          40.000          18.000
  20430259.959    20430259.0254   20430260.3234  107361706.501 7  83658533.92746
      1098.977         856.342          48.000          40.000
  21696911.020    21696910.4354   21696912.3244  114018060.116 7  88845263.03145
      -534.800        -416.733          46.000          35.000
  21738551.517    21738550.0284   21738550.6504  114236898.202 7  89015769.91845
     -2723.781       -2122.423          46.000          37.000
  22845384.319    22845384.5224   22845387.5464  120053276.857 6  93548058.55643
      3095.222        2411.863          42.000          26.000
  24343320.852    24343321.2354   24343320.8374  127925089.360 6  99681871.34542
     -3303.300       -2573.978          41.000          21.000
  25265583.013    25265581.5844   25265584.4484  132771526.255 5 103458355.01041
      3137.041        2444.476          35.000           8.000
  23914604.272    23914604.6874   23914607.0164  125672033.184 5  97926328.97441
      -766.016        -596.877          39.000          19.000
  23123156.705    23123155.4714   23123157.7164  121513010.175 6  94685481.02742
      2819.595        2197.097          42.000          23.000
  21618396.413    21618395.201    21618397.650   115562784.226 6  89882163.403 6
     -3432.771       -2669.931          44.000          42.000
  19308649.032    19308651.525    19308652.996   103614297.421 7  80588967.940 7
       -12.035          -9.357          46.000          46.000
  21387319.317    21387320.822    21387319.223   114528103.424 7  89077467.068 5
      3124.715        2430.339          46.000          37.000
  22651664.960    22651665.488    22651666.689   121256224.237 6  94310373.184 3
     -4427.217       -3443.388          41.000          26.000
  19581833.166    19581834.094    19581838.108   105006784.029 7  81671982.172 6
       394.172         306.578          46.000          44.000
 05 10  2  0  4  0.0000000  0 15G 1G 3G11G14G19G20G22G24G28G31R 2R 3
                                R 4R17R18
  21598498.362    21598497.2404   21598501.0954  113500896.350 7  88442266.11345
      1798.052        1401.077          49.000          37.000
  24532695.975    24532694.7634   24532697.4974  128920199.547 6 100457330.60441
     -3775.725       -2942.122          40.000          18.000
  20424023.043    20424022.0564   20424023.4084  107328931.150 8  83632994.68946
      1086.027         846.254          51.000          41.000
  21700022.227    21700021.8444   21700023.5344  114034410.371 7  88858003.50545
      -555.231        -432.651          47.000          35.000
  21754137.792    21754136.3794   21754137.3784  114318808.582 7  89079596.18345
     -2736.893       -2132.646          48.000          37.000
  22827738.667    22827736.9394   22827740.5364  119960536.672 6  93475793.53343
      3087.410        2405.784          44.000          28.000
  24362185.584    24362184.7114   24362184.6494  128024217.370 6  99759113.93642
     -3305.234       -2575.526          42.000          21.000
  25247673.333    25247671.1234   25247677.3284  132677418.193 5 103385024.04041
      3136.844        2444.268          35.000           9.000
  23919028.838    23919028.1694   23919029.2694  125695275.593 6  97944439.90042
      -783.417        -610.455          41.000          20.000
  23107098.773    23107098.3754   23107100.1904  121428622.455 6  94619724.35442
      2806.269        2186.707          44.000          24.000
  21637678.473    21637677.246    21637680.007   115665858.176 7  89962332.023 6
     -3438.760       -2674.587          45.000          41.000
  19308764.265    19308766.088    19308767.588   103614912.563 7  80589446.381 7
       -29.033         -22.579          48.000          49.000
  21369846.286    21369847.766    21369846.278   114434533.768 7  89004690.698 5
      3113.212        2421.390          48.000          37.000
  22676496.951    22676496.452    22676498.528   121389149.501 6  94413759.484 3
     -4434.405       -3448.960          41.000          27.000
  19579703.610    19579704.585    19579708.569   104995363.946 7  81663099.877 7
       367.171         285.578          48.000          45.000
 05 10  2  0  4 30.0000000  0 15G 1G 3G11G14G19G20G22G24G28G31R 2R 3
                                R 4R17R18
  21588283.997    21588283.2534   21588285.9474  113447216.098 7  88400437.37145
      1780.553        1387.448          49.000          37.000
  24554253.859    24554252.9174   24554257.0424  129033491.844 6 100545610.33541
     -3777.212       -2943.283          40.000          18.000
  20417859.774    20417859.0644   20417860.6974  107296544.968 7  83607758.70246
      1073.006         836.109          49.000          40.000
  21703250.826    21703249.9564   21703251.7524  114051373.700 7  88871221.69045
      -575.663        -448.567          47.000          35.000
  21769799.888    21769798.2774   21769799.3784  114401111.754 7  89143728.50645
     -2749.981       -2142.843          48.000          36.000
  22810135.028    22810133.7144   22810135.0814  119868029.644 7  93403710.15643
      3079.663        2399.736          45.000          28.000
  24381059.273    24381057.1594   24381059.3544  128123402.793 6  99836401.26242
     -3307.149       -2576.980          41.000          21.000
  25229765.626    25229766.1384   25229768.8914  132583316.748 4 103311698.21941
      3136.625        2444.155          33.000           8.000
  23923550.214    23923550.6004   23923551.8694  125719038.797 5  97962956.71642
      -800.835        -624.045          39.000          20.000
  23091116.047    23091115.8524   23091117.3694  121344635.772 6  94554280.18342
      2792.855        2176.251          43.000          24.000
  21656993.453    21656993.232    21656996.220   115769113.380 7  90042641.622 6
     -3444.861       -2679.337          45.000          41.000
  19308973.865    19308975.660    19308977.407   103616038.319 7  80590321.976 7
       -46.062         -35.832          47.000          46.000
  21352437.014    21352439.193    21352436.652   114341308.551 7  88932182.218 5
      3101.706        2412.437          48.000          37.000
  22701368.350    22701368.959    22701371.496   121522292.276 6  94517314.975 3
     -4441.599       -3454.583          41.000          26.000
  19577725.111    19577726.507    19577730.193   104984755.707 7  81654849.020 6
       340.016         264.452          48.000          44.000
 05 10  2  0  5  0.0000000  0 15G 1G 3G11G14G19G20G22G24G28G31R 2R 3
                                R 4R17R18
  21578168.647    21578167.6164   21578170.9674  113394060.940 8  88359017.75845
      1763.106        1373.850          50.000          37.000
  24575820.594    24575819.7514   24575824.5624  129146827.736 5 100633923.99141
     -3778.564       -2944.342          39.000          18.000
  20411771.004    20411770.5844   20411771.9024  107264548.867 8  83582826.67646
      1060.050         826.016          50.000          41.000
  21706595.565    21706594.4114   21706596.1694  114068949.201 7  88884916.89745
      -596.035        -464.444          48.000          35.000
  21785536.219    21785534.5364   21785535.3224  114483805.829 7  89208165.43645
     -2762.913       -2152.909          48.000          37.000
  22792575.172    22792574.3514   22792576.7694  119775756.410 6  93331808.89643
      3071.867        2393.673          44.000          25.000
  24399945.330    24399943.6834   24399944.4784  128222644.230 6  99913732.23442
     -3308.933       -2578.399          42.000          20.000
  25211857.458    25211859.1924   25211863.6154  132489222.534 4 103238378.13841
      3136.347        2443.899          33.000          10.000
  23928169.166    23928169.7084   23928174.0304  125743321.334 5  97981878.14242
      -818.045        -637.432          39.000          20.000
  23075209.292    23075208.5154   23075213.4884  121261052.669 6  94489150.49343
      2779.402        2165.776          41.000          25.000
  21676342.924    21676342.513    21676345.344   115872547.618 7  90123090.481 6
     -3450.747       -2683.920          45.000          41.000
  19309278.468    19309280.542    19309281.987   103617672.773 7  80591593.223 7
       -62.933         -48.950          47.000          49.000
  21335092.696    21335093.625    21335091.934   114248429.143 7  88859942.699 5
      3090.260        2403.536          48.000          37.000
  22726280.277    22726280.748    22726281.852   121655646.181 6  94621034.660 3
     -4448.582       -3460.000          41.000          26.000
  19575898.056    19575899.752    19575903.800   104974961.247 7  81647231.101 7
       312.904         243.368          48.000          45.000
 05 10  2  0  5 30.0000000  0 15G 1G 3G11G14G19G20G22G24G28G31R 2R 3
                                R 4R17R18
  21568153.457    21568152.5714   21568155.9704  113341432.526 7  88318008.63045
      1745.468        1360.109          48.000          37.000
  24597396.340    24597395.5324   24597398.7914  129260204.982 5 100722269.88041
     -3779.890       -2945.404          39.000          17.000
  20405756.911    20405756.4914   20405757.5784  107232943.968 8  83558199.48046
      1046.947         815.801          51.000          41.000
  21710055.785    21710055.2644   21710056.9934  114087136.321 7  88899088.68045
      -616.440        -480.341          47.000          35.000
  21801346.046    21801344.4884   21801345.4184  114566888.429 7  89272905.12145
     -2775.881       -2163.024          48.000          36.000
  22775060.329    22775059.2234   22775063.6764  119683718.429 6  93260091.01843
      3063.963        2387.520          44.000          28.000
  24418839.810    24418839.4814   24418839.1694  128321940.267 6  99991105.77342
     -3310.759       -2579.794          42.000          20.000
  25193956.564    25193953.4924   25193959.2584  132395136.427 4 103165064.31941
      3136.047        2443.712          34.000          12.000
  23932889.634    23932889.8084   23932892.3994  125768121.646 6  98001203.05142
      -835.382        -650.956          40.000          20.000
  23059383.276    23059380.7904   23059383.3154  121177875.764 6  94424337.34742
      2765.745        2155.134          43.000          24.000
  21695725.663    21695724.737    21695728.501   115976158.697 7  90203676.871 6
     -3456.622       -2688.485          45.000          41.000
  19309677.565    19309679.857    19309681.348   103619815.665 7  80593259.915 7
       -79.875         -62.122          48.000          49.000
  21317812.800    21317814.359    21317812.752   114155896.488 7  88787972.874 5
      3078.592        2394.452          49.000          38.000
  22751230.333    22751231.436    22751232.822   121789208.886 6  94724916.762 3
     -4455.465       -3465.377          41.000          26.000
  19574224.482    19574225.228    19574229.238   104965981.625 7  81640246.946 7
       285.730         222.235          48.000          45.000
 05 10  2  0  6  0.0000000  0 15G 1G 3G11G14G19G20G22G24G28G31R 2R 3
                                R 4R17R18
  21558238.996    21558238.2424   21558241.8534  113289332.803 7  88277411.44245
      1727.804        1346.339          48.000          36.000
  24618979.019    24618978.2934   24618979.9444  129373621.400 5 100810646.28341
     -3781.207       -2946.395          39.000          16.000
  20399818.055    20399817.0834   20399817.8574  107201731.144 8  83533877.80146
      1033.861         805.604          50.000          41.000
  21713633.733    21713632.3904   21713634.1804  114105934.240 7  88913736.41444
      -636.784        -496.188          49.000          34.000
  21817230.256    21817228.7834   21817229.7834  114650357.520 7  89337945.95245
     -2788.741       -2173.041          48.000          37.000
  22757592.728    22757591.4024   22757594.0144  119591917.115 7  93188557.56143
      3056.042        2381.329          46.000          29.000
  24437744.776    24437744.4554   24437744.9534  128421289.456 6 100068520.69442
     -3312.556       -2581.215          41.000          20.000
  25176055.788    25176052.2264   25176058.8284  132301059.205 5 103091757.46541
      3135.782        2443.474          36.000          10.000
  23937707.255    23937706.8674   23937711.2864  125793438.446 5  98020930.37741
      -852.419        -664.207          38.000          19.000
  23043632.022    23043631.7564   23043634.2414  121095107.890 6  94359842.89043
      2752.061        2144.442          43.000          25.000
  21715141.595    21715139.919    21715144.033   116079943.826 7  90284398.633 6
     -3462.402       -2692.980          45.000          41.000
  19310171.892    19310173.652    19310175.022   103622465.195 7  80595320.665 7
       -96.778         -75.275          48.000          49.000
  21300596.703    21300598.574    21300597.769   114063712.202 7  88716274.005 5
      3066.982        2385.427          48.000          37.000
  22776219.069    22776220.224    22776222.487   121922976.521 6  94828958.237 3
     -4462.413       -3470.766          41.000          26.000
  19572701.554    19572702.906    19572707.248   104957817.731 7  81633897.242 7
       258.527         201.079          48.000          45.000
 05 10  2  0  6 30.0000000  0 15G 1G 3G11G14G19G20G22G24G28G31R 2R 3
                                R 4R17R18
  21548425.802    21548425.0784   21548428.4724  113237763.387 7  88237227.50645
      1710.120        1332.563          48.000          37.000
  24640568.786    24640566.5234   24640571.3314  129487074.799 5 100899051.51541
     -3782.405       -2947.327          38.000          16.000
  20393952.744    20393952.1154   20393953.1734  107170911.749 7  83509862.69346
      1020.738         795.384          49.000          40.000
  21717326.057    21717325.3534   21717327.5604  114125342.182 7  88928859.49445
      -657.086        -512.013          47.000          35.000
  21833186.030    21833184.5154   21833186.3364  114734211.163 7  89403286.43845
     -2801.515       -2182.998          46.000          36.000
  22740166.817    22740165.7534   22740168.8864  119500353.152 6  93117209.03143
      3048.177        2375.196          44.000          27.000
  24456660.331    24456660.1524   24456660.9554  128520690.418 6 100145975.97742
     -3314.191       -2582.495          41.000          20.000
  25158153.711    25158154.2314   25158158.9114  132206991.659 5 103018458.05741
      3135.439        2443.252          36.000          11.000
  23942624.818    23942622.0014   23942625.1774  125819270.490 6  98041059.26641
      -869.695        -677.661          40.000          19.000
  23027959.617    23027959.9724   23027961.6744  121012751.641 6  94295669.16943
      2738.313        2133.766          42.000          25.000
  21734588.084    21734587.667    21734591.412   116183900.715 6  90365253.982 6
     -3468.085       -2697.399          44.000          42.000
  19310759.974    19310761.426    19310762.829   103625620.019 7  80597774.426 7
      -113.631         -88.384          47.000          46.000
  21283447.092    21283448.151    21283448.125   113971877.279 7  88644846.864 5
      3055.359        2376.386          47.000          38.000
  22801247.485    22801247.959    22801248.721   122056947.559 6  94933157.925 3
     -4469.191       -3476.039          41.000          25.000
  19571331.220    19571332.441    19571336.593   104950470.582 7  81628182.790 6
       231.250         179.859          47.000          43.000
 05 10  2  0  7  0.0000000  0 15G 1G 3G11G14G19G20G22G24G28G31R 2R 3
                                R 4R17R18
  21538714.542    21538713.4934   21538716.4854  113186726.133 8  88197458.20645
      1692.347        1318.710          50.000          39.000
  24662164.076    24662163.6634   24662168.2824  129600562.900 5 100987483.80241
     -3783.477       -2948.143          38.000          16.000
  20388162.592    20388162.2434   20388163.4014  107140486.670 8  83486154.83446
      1007.581         785.128          50.000          41.000
  21721135.254    21721134.5184   21721136.4054  114145358.733 7  88944456.80645
      -677.362        -527.802          47.000          35.000
  21849216.141    21849214.7944   21849215.2274  114818447.106 7  89468924.82645
     -2814.242       -2192.920          48.000          36.000
  22722788.505    22722787.5884   22722789.7714  119409027.909 6  93046046.52543
      3040.195        2369.001          44.000          26.000
  24475587.004    24475585.2834   24475585.8334  128620141.427 6 100223470.24242
     -3315.852       -2583.792          42.000          20.000
  25140257.955    25140257.3784   25140258.8404  132112934.455 5 102945166.70841
      3135.104        2442.950          36.000          10.000
  23947636.161    23947636.4364   23947637.7374  125845616.064 5  98061588.28841
      -886.763        -690.991          39.000          18.000
  23012367.476    23012366.2094   23012370.2264  120930809.899 6  94231818.48243
      2724.453        2122.955          42.000          25.000
  21754067.789    21754066.933    21754069.793   116288027.106 7  90446241.168 6
     -3473.649       -2701.729          45.000          41.000
  19311442.074    19311443.373    19311444.794   103629279.380 7  80600620.603 7
      -130.333        -101.371          47.000          48.000
  21266363.932    21266365.247    21266364.193   113880392.868 7  88573692.350 5
      3043.600        2367.243          49.000          38.000
  22826311.568    22826312.113    22826313.659   122191118.301 6  95037512.931 3
     -4475.734       -3481.121          41.000          26.000
  19570113.960    19570115.068    19570118.991   104943940.905 7  81623104.150 7
       204.048         158.703          48.000          45.000
 05 10  2  0  7 30.0000000  0 15G 1G 3G11G14G19G20G22G24G28G31R 2R 3
                                R 4R17R18
  21529103.233    21529102.6074   21529106.3564  113136222.591 8  88158104.82645
      1674.556        1304.850          50.000          38.000
  24683766.900    24683766.2804   24683770.2444  129714083.619 6 101075941.47441
     -3784.519       -2948.986          40.000          18.000
  20382448.390    20382447.4614   20382449.2294  107110456.899 8  83462755.01146
       994.415         774.872          51.000          40.000
  21725060.294    21725059.4024   21725061.3834  114165984.077 7  88960528.51545
      -697.657        -543.628          48.000          35.000
  21865318.004    21865316.2664   21865317.9774  114903063.718 7  89534859.83545
     -2826.871       -2202.753          48.000          36.000
  22705456.992    22705455.8684   22705458.6384  119317942.714 7  92975071.02843
      3032.195        2362.767          46.000          29.000
  24494520.910    24494518.4624   24494519.4414  128719641.395 6 100301002.66142
     -3317.480       -2585.049          41.000          20.000
  25122356.996    25122357.5564   25122362.7144  132018888.477 4 102871884.14841
      3134.712        2442.669          34.000          10.000
  23952747.564    23952746.4824   23952749.0894  125872473.718 5  98082516.30941
      -903.734        -704.203          39.000          18.000
  22996852.562    22996851.1334   22996855.1424  120849284.952 6  94168292.55543
      2710.572        2112.138          42.000          25.000
  21773577.484    21773577.004    21773579.615   116392320.682 7  90527358.393 6
     -3479.176       -2706.026          45.000          42.000
  19312217.370    19312219.037    19312220.787   103633442.456 7  80603858.549 7
      -147.095        -114.404          48.000          49.000
  21249343.629    21249345.439    21249346.468   113789260.219 7  88502811.415 5
      3031.873        2358.125          48.000          38.000
  22851412.730    22851412.430    22851415.786   122325484.059 6  95142019.624 3
     -4481.972       -3485.980          41.000          26.000
  19569048.845    19569050.061    19569054.125   104938229.748 7  81618662.133 7
       176.723         137.452          48.000          45.000
 05 10  2  0  8  0.0000000  0 15G 1G 3G11G14G19G20G22G24G28G31R 2R 3
                                R 4R17R18
  21519596.014    21519594.8314   21519597.1454  113086254.621 8  88119168.75045
      1656.673        1290.910          50.000          38.000
  24705375.679    24705373.5444   24705377.2004  129827634.731 6 101164422.87541
     -3785.455       -2949.695          41.000          18.000
  20376809.522    20376808.6864   20376810.0724  107080823.456 8  83439664.01846
       981.160         764.544          50.000          40.000
  21729100.691    21729100.0244   21729101.9244  114187217.110 7  88977073.74545
      -717.877        -559.388          48.000          35.000
  21881492.668    21881491.2264   21881491.0784  114988058.794 7  89601089.74545
     -2839.416       -2212.531          47.000          36.000
  22688167.748    22688166.9774   22688171.3874  119227098.541 6  92904283.41143
      3024.118        2356.453          44.000          27.000
  24513463.296    24513462.7014   24513461.6074  128819188.909 6 100378572.12941
     -3319.027       -2586.270          41.000          19.000
  25104465.200    25104461.8544   25104469.6414  131924854.476 5 102798610.90141
      3134.216        2442.258          35.000          12.000
  23957958.013    23957955.7644   23957956.8954  125899842.038 6  98103842.26641
      -920.785        -717.487          40.000          18.000
  22981419.252    22981418.8994   22981421.8274  120768179.171 6  94105093.27043
      2696.524        2101.181          43.000          26.000
  21793118.397    21793118.303    21793121.026   116496779.309 7  90608603.994 6
     -3484.675       -2710.302          45.000          42.000
  19313087.541    19313088.482    19313090.223   103638107.763 7  80607487.126 7
      -163.825        -127.427          47.000          46.000
  21232392.734    21232393.545    21232393.458   113698480.589 7  88432205.054 5
      3020.136        2348.993          48.000          38.000
  22876549.217    22876549.384    22876550.622   122460041.790 6  95246675.612 3
     -4488.382       -3490.953          41.000          27.000
  19568136.440    19568137.550    19568141.682   104933338.027 7  81614857.457 6
       149.394         116.195          47.000          44.000
 05 10  2  0  8 30.0000000  0 16G 1G 3G 7G11G14G19G20G22G24G28G31R 2
                                R 3R 4R17R18
  21510188.474    21510187.5194   21510190.8314  113036823.935 7  88080651.33945
      1638.699        1276.906          49.000          38.000
  24726986.999    24726987.0364   24726990.8404  129941213.859 5 101252926.08641
     -3786.478       -2950.500          39.000          18.000
  25665903.134                                   134875229.898 4
      3273.253                          32.000
  20371246.242    20371245.6324   20371246.6624  107051587.641 8  83416882.86246
       967.883         754.195          51.000          41.000
  21733256.646    21733255.6294   21733257.9004  114209056.386 7  88994091.36145
      -738.086        -575.125          47.000          35.000
  21897736.275    21897735.5054   21897737.4444  115073429.295 7  89667612.22645
     -2851.929       -2222.283          47.000          36.000
  22670927.324    22670927.2074   22670929.5964  119136496.285 6  92833684.27843
      3016.049        2350.165          44.000          27.000
  24532414.397    24532414.5524   24532416.1624  128918782.230 6 100456177.30942
     -3320.503       -2587.391          41.000          20.000
  25086570.403    25086571.3774   25086578.7524  131830833.239 4 102725347.70041
      3133.754        2441.854          34.000          11.000
  23963261.063    23963260.7814   23963261.2594  125927719.619 5  98125565.06441
      -937.721        -730.712          39.000          18.000
  22966065.528    22966064.8044   22966067.5444  120687495.153 6  94042222.61043
      2682.349        2090.147          42.000          25.000
  21812689.185    21812689.170    21812692.796   116601400.359 7  90689975.908 6
     -3490.129       -2714.539          45.000          42.000
  19314049.618    19314051.248    19314052.855   103643273.664 7  80611505.052 7
      -180.601        -140.474          48.000          48.000
  21215505.693    21215506.975    21215507.368   113608055.290 7  88361874.277 5
      3008.212        2339.717          48.000          39.000
  22901719.259    22901719.040    22901721.625   122594787.765 6  95351478.026 3
     -4494.611       -3495.801          40.000          26.000
  19567377.703    19567378.772    19567382.587   104929266.636 7  81611690.810 6
       121.993          94.878          48.000          44.000
 05 10  2  0  9  0.0000000  0 16G 1G 3G 7G11G14G19G20G22G24G28G31R 2
                                R 3R 4R17R18
  21500884.738    21500883.8534   21500887.0384  112987932.177 8  88042553.87545
      1620.738        1262.916          51.000          38.000
  24748605.460    24748605.5184   24748609.8864  130054818.946 5 101341449.53841
     -3787.236       -2951.093          38.000          17.000
  25647230.253                                   134777097.126 4
      3269.010                          33.000
  20365759.140    20365758.2844   20365759.0034  107022750.279 8  83394412.19446
       954.611         743.857          51.000          42.000
  21737527.596    21737527.0664   21737528.7834  114231501.272 7  89011580.88845
      -758.220        -590.823          49.000          35.000
  21914054.468    21914052.8164   21914054.5924  115159173.814 7  89734426.08345
     -2864.356       -2231.958          48.000          36.000
  22653734.537    22653733.2634   22653735.3974  119046137.499 7  92763274.81543
      3007.890        2343.817          46.000          28.000
  24551375.374    24551375.8234   24551376.0524  129018420.090 6 100533817.17241
     -3321.938       -2588.530          41.000          19.000
  25068684.560    25068682.2524   25068688.0394  131736825.111 4 102652094.55041
      3133.375        2441.570          34.000          11.000
  23968664.009    23968661.4214   23968664.3904  125956104.921 6  98147683.45241
      -954.614        -743.857          40.000          18.000
  22950792.769    22950791.6084   22950795.4404  120607235.538 6  93979682.64143
      2668.246        2079.140          43.000          25.000
  21832292.549    21832291.335    21832294.051   116706181.729 7  90771472.526 6
     -3495.323       -2718.576          46.000          41.000
  19315105.042    19315107.105    19315108.520   103648939.213 7  80615911.592 7
      -197.122        -153.310          48.000          49.000
  21198686.243    21198687.699    21198687.442   113517984.986 7  88291819.621 5
      2996.454        2330.576          49.000          39.000
  22926923.647    22926924.899    22926927.959   122729717.452 5  95456423.306 3
     -4500.658       -3500.511          38.000          26.000
  19566771.507    19566772.357    19566776.396   104926016.433 7  81609162.865 7
        94.693          73.652          48.000          45.000
 05 10  2  0  9 30.0000000  0 16G 1G 3G 7G11G14G19G20G22G24G28G31R 2
                                R 3R 4R17R18
  21491683.581    21491682.5934   21491685.9244  112939581.008 8  88004877.64945
      1602.679        1248.842          50.000          37.000
  24770227.621    24770226.7694   24770232.6844  130168447.774 5 101429991.43841
     -3787.967       -2951.671          38.000          17.000
  25628579.541                                   134679092.144 5
      3264.699                          35.000
  20360346.683    20360346.2154   20360347.5324  106994312.432 7  83372252.83946
       941.262         733.449          49.000          41.000
  21741913.706    21741912.9164   21741915.2744  114254550.658 7  89029541.45145
      -778.369        -606.515          47.000          35.000
  21930441.668    21930440.1704   21930440.6824  115245290.230 7  89801529.78845
     -2876.728       -2241.604          48.000          35.000
  22636583.774    22636583.0194   22636588.4494  118956023.202 6  92693055.89543
      2999.739        2337.465          44.000          28.000
  24570344.707    24570343.4204   24570344.1964  129118100.971 6 100611490.53141
     -3323.406       -2589.649          40.000          19.000
  25050797.198    25050795.5584   25050799.8884  131642831.348 4 102578852.73541
      3132.906        2441.226          33.000          11.000
  23974162.128    23974159.0724   23974162.8644  125984996.415 6  98170196.28941
      -971.460        -756.981          40.000          19.000
  22935601.111    22935600.5954   22935603.3694  120527402.942 6  93917475.43043
      2653.964        2068.026          43.000          26.000
  21851923.047    21851922.029    21851925.452   116811120.849 7  90853091.853 6
     -3500.595       -2722.682          45.000          41.000
  19316253.992    19316255.792    19316257.385   103655104.159 7  80620706.553 7
      -213.816        -166.301          47.000          49.000
  21181932.844    21181933.936    21181933.169   113428271.104 7  88222042.175 5
      2984.531        2321.299          48.000          38.000
  22952165.920    22952166.428    22952166.947   122864826.893 6  95561508.408 3
     -4506.665       -3505.168          41.000          26.000
  19566319.056    19566319.695    19566323.503   104923587.691 7  81607273.841 7
        67.254          52.312          48.000          45.000
 05 10  2  0 10  0.0000000  0 16G 1G 3G 7G11G14G19G20G22G24G28G31R 2
                                R 3R 4R17R18
  21482585.912    21482585.1934   21482588.3624  112891771.978 8  87967623.87845
      1584.587        1234.739          50.000          38.000
  24791855.842    24791854.8904   24791859.5924  130282098.022 5 101518550.05041
     -3788.646       -2952.184          38.000          17.000
  25609956.637                                   134581216.958 5
      3260.316                          36.000
  20355011.273    20355010.5154   20355012.1754  106966275.157 8  83350405.59946
       927.886         723.030          50.000          41.000
  21746414.469    21746413.8664   21746416.0124  114278203.496 7  89047972.24345
      -798.488        -622.200          47.000          35.000
  21946900.090    21946898.1554   21946898.8644  115331776.306 7  89868921.52345
     -2888.999       -2251.166          47.000          36.000
  22619483.841    22619482.4404   22619485.5704  118866154.257 7  92623028.23443
      2991.528        2331.050          45.000          29.000
  24589320.887    24589320.2004   24589321.3364  129217823.458 6 100689196.37141
     -3324.752       -2590.729          40.000          19.000
  25032912.683    25032912.2984   25032916.1294  131548852.464 4 102505622.49841
      3132.246        2440.723          34.000          11.000
  23979753.447    23979754.2744   23979755.7414  126014392.364 6  98193102.17341
      -988.284        -770.071          40.000          19.000
  22920490.606    22920490.2564   22920494.1064  120447999.937 6  93855602.97743
      2639.584        2056.816          41.000          25.000
  21871583.154    21871581.977    21871585.816   116916215.761 7  90934832.332 6
     -3505.703       -2726.657          45.000          42.000
  19317495.340    19317497.366    19317498.952   103661766.301 7  80625888.228 7
      -230.338        -179.145          47.000          49.000
  21165246.270    21165247.978    21165247.366   113338915.162 7  88152543.114 5
      2972.552        2311.984          48.000          39.000
  22977439.270    22977439.739    22977441.781   123000114.801 6  95666732.350 3
     -4512.460       -3509.689          41.000          26.000
  19566018.923    19566020.012    19566023.836   104921981.736 7  81606024.757 7
        39.873          31.012          48.000          45.000
 05 10  2  0 10 30.0000000  0 16G 1G 3G 7G11G14G19G20G22G24G28G31R 2
                                R 3R 4R17R18
  21473591.901    21473591.0014   21473594.1104  112844506.680 8  87930793.78145
      1566.412        1220.575          51.000          38.000
  24813485.897    24813484.9064   24813491.9714  130395767.570 5 101607123.70341
     -3789.242       -2952.651          38.000          17.000
  25591357.058                                   134483473.875 5
      3255.911                          37.000
  20349752.813    20349752.0374   20349753.0864  106938639.368 8  83328871.21646
       914.489         712.586          51.000          40.000
  21751030.739    21751029.7874   21751031.8124  114302459.368 7  89066872.93245
      -818.554        -637.833          48.000          35.000
  21963427.329    21963425.8514   21963427.1264  115418630.411 7  89936600.03845
     -2901.209       -2260.682          47.000          36.000
  22602428.840    22602428.6784   22602429.8994  118776531.664 7  92553192.42243
      2983.312        2324.660          45.000          28.000
  24608304.589    24608304.4334   24608305.2284  129317586.393 6 100766933.68341
     -3326.118       -2591.793          40.000          19.000
  25015032.784    25015033.2454   25015037.3934  131454889.300 4 102432404.54341
      3131.840        2440.387          34.000          12.000
  23985445.385    23985444.5114   23985444.6114  126044291.149 6  98216399.89341
     -1004.983        -783.099          41.000          19.000
  22905463.074    22905462.0574   22905464.9634  120369029.086 6  93794067.25443
      2625.148        2045.578          43.000          25.000
  21891272.080    21891271.125    21891274.288   117021464.195 7  91016692.216 6
     -3510.846       -2730.659          45.000          41.000
  19318829.570    19318831.554    19318832.785   103668925.201 7  80631456.269 7
      -246.818        -191.967          47.000          49.000
  21148626.355    21148628.405    21148627.227   113249917.705 7  88083322.898 5
      2960.610        2302.700          49.000          38.000
  23002743.532    23002743.422    23002745.870   123135576.690 5  95772091.578 3
     -4518.303       -3514.221          39.000          26.000
  19565873.590    19565874.411    19565878.029   104921199.474 7  81605416.322 7
        12.320           9.583          48.000          45.000
 05 10  2  0 11  0.0000000  0 16G 1G 3G 7G11G14G19G20G22G24G28G31R 2
                                R 3R 4R17R18
  21464700.980    21464700.4404   21464703.6054  112797786.745 8  87894388.65245
      1548.239        1206.417          50.000          38.000
  24835120.313    24835118.4324   24835124.8724  130509454.231 5 101695710.73041
     -3789.781       -2953.107          38.000          16.000
  25572782.009                                   134385865.053 5
      3251.364                          38.000
  20344570.738    20344570.2324   20344570.8264  106911406.136 8  83307650.52346
       901.082         702.140          51.000          42.000
  21755760.645    21755760.0644   21755762.2044  114327316.883 7  89086242.43145
      -838.585        -653.442          47.000          35.000
  21980023.846    21980022.5094   21980023.6664  115505849.628 7  90004563.04245
     -2913.385       -2270.162          47.000          35.000
  22585421.146    22585419.7564   22585423.9894  118687156.921 6  92483549.76743
      2975.042        2318.223          44.000          28.000
  24627298.178    24627296.7764   24627296.8374  129417388.338 6 100844701.39941
     -3327.354       -2592.759          41.000          19.000
  24997157.590    24997156.6084   24997158.6344  131360942.667 5 102359199.37341
      3131.296        2439.906          36.000          13.000
  23991231.130    23991228.5714   23991228.9024  126074691.308 6  98240088.32241
     -1021.647        -796.081          41.000          18.000
  22890518.537    22890517.5184   22890520.4464  120290493.060 6  93732870.33643
      2610.634        2034.262          43.000          25.000
  21910989.202    21910988.500    21910991.025   117126863.727 7  91098669.622 6
     -3515.810       -2734.513          45.000          40.000
  19320255.671    19320257.624    19320259.071   103676578.613 7  80637408.920 7
      -263.333        -204.803          47.000          49.000
  21132074.386    21132075.495    21132074.489   113161280.187 7  88014382.615 5
      2948.555        2293.323          49.000          38.000
  23028082.382    23028082.820    23028084.880   123271209.957 6  95877584.074 3
     -4523.917       -3518.587          40.000          26.000
  19565880.477    19565881.630    19565885.601   104921241.044 7  81605448.646 7
       -15.106         -11.748          48.000          45.000
 05 10  2  0 11 30.0000000  0 16G 1G 3G 7G11G14G19G20G22G24G28G31R 2
                                R 3R 4R17R18
  21455915.314    21455914.5934   21455917.1684  112751613.815 8  87858409.75245
      1529.944        1192.166          50.000          39.000
  24856757.026    24856755.5964   24856759.7694  130623155.782 5 101784309.29641
     -3790.325       -2953.495          38.000          16.000
  25554234.527                                   134288392.646 5
      3246.810                          38.000
  20339465.222    20339464.5014   20339465.2974  106884576.453 8  83286744.28046
       887.572         691.615          51.000          41.000
  21760605.461    21760604.4174   21760606.5504  114352774.912 7  89106079.86644
      -858.602        -669.040          48.000          34.000
  21996690.509    21996689.6744   21996690.7954  115593431.992 7  90072809.04345
     -2925.459       -2279.578          47.000          36.000
  22568462.436    22568461.1114   22568463.6484  118598031.131 7  92414101.13543
      2966.674        2311.699          46.000          29.000
  24646294.569    24646294.7864   24646295.6924  129517227.706 5 100922498.27241
     -3328.622       -2593.748          39.000          18.000
  24979283.026    24979280.3484   24979287.3004  131267013.301 5 102286007.65041
      3130.678        2439.460          35.000          12.000
  23997109.173    23997107.2364   23997109.7174  126105591.179 5  98264166.09841
     -1038.359        -809.141          39.000          18.000
  22875657.101    22875656.5124   22875658.1154  120212394.351 6  93672014.21443
      2595.975        2022.851          43.000          26.000
  21930733.836    21930733.587    21930736.181   117232412.092 7  91180762.810 6
     -3520.756       -2738.364          45.000          41.000
  19321774.118    19321775.915    19321777.481   103684726.281 7  80643746.000 7
      -279.841        -217.649          47.000          48.000
  21115589.227    21115590.823    21115589.790   113073003.582 7  87945723.063 5
      2936.488        2283.941          49.000          39.000
  23053448.418    23053450.219    23053452.309   123407008.455 6  95983205.139 3
     -4529.349       -3522.824          41.000          26.000
  19566042.207    19566043.427    19566047.450   104922107.461 7  81606122.522 7
       -42.645         -33.164          48.000          45.000
 05 10  2  0 12  0.0000000  0 16G 1G 3G 7G11G14G19G20G22G24G28G31R 2
                                R 3R 4R17R18
  21447233.462    21447232.1684   21447235.0914  112705989.344 7  87822858.21845
      1511.664        1177.917          47.000          37.000
  24878397.410    24878395.3524   24878398.9004  130736869.882 5 101872917.66341
     -3790.628       -2953.739          38.000          15.000
  25535710.743    25535709.8854   25535710.5644  134191058.809 5 104564484.60741
      3242.130        2526.327          38.000          14.000
  20334436.173    20334435.4944   20334436.9814  106858151.352 7  83266153.29245
       874.081         681.102          47.000          39.000
  21765564.392    21765563.2224   21765565.3454  114378832.501 7  89126384.49145
      -878.589        -684.616          46.000          35.000
  22013425.570    22013423.7804   22013425.7624  115681375.343 6  90141336.30045
     -2937.457       -2288.925          44.000          35.000
  22551549.802    22551548.4284   22551550.5424  118509155.152 7  92344847.13543
      2958.365        2305.213          45.000          29.000
  24665302.366    24665300.3104   24665301.3624  129617103.088 5 101000323.22641
     -3329.757       -2594.632          39.000          18.000
  24961412.522    24961412.6064   24961414.3914  131173101.939 5 102212829.99141
      3130.113        2439.019          37.000          14.000
  24003083.437    24003084.0544   24003084.0584  126136989.050 5  98288631.93341
     -1054.848        -821.938          39.000          18.000
  22860877.976    22860877.1624   22860882.1264  120134735.420 6  93611500.74243
      2581.320        2011.422          42.000          26.000
  21950507.178    21950505.388    21950509.177   117338107.301 6  91262970.181 6
     -3525.606       -2742.139          44.000          41.000
  19323384.021    19323385.960    19323387.455   103693366.781 7  80650466.396 7
      -296.200        -230.377          45.000          45.000
  21099172.132    21099173.349    21099172.712   112985088.766 7  87877344.899 5
      2924.451        2274.575          47.000          39.000
  23078847.965    23078848.535    23078851.579   123542971.386 5  96088954.077 3
     -4534.700       -3526.991          39.000          26.000
  19566357.554    19566358.720    19566363.039   104923799.040 7  81607438.187 6
       -70.107         -54.530          46.000          43.000
 05 10  2  0 12 30.0000000  0 16G 1G 3G 7G11G14G19G20G22G24G28G31R 2
                                R 3R 4R17R18
  21438655.720    21438654.7424   21438657.8924  112660914.818 7  87787735.22445
      1493.288        1163.602          47.000          37.000
  24900037.826    24900035.8954   24900041.8454  130850594.678 5 101961534.36141
     -3791.000       -2954.001          38.000          14.000
  25517215.989    25517214.4494   25517217.0334  134093865.789 5 104488749.80441
      3237.409        2522.683          38.000          15.000
  20329484.867    20329484.2684   20329485.5054  106832131.874 7  83245878.36645
       860.539         670.549          47.000          39.000
  21770636.694    21770635.8564   21770637.5724  114405488.474 7  89147155.38745
      -898.502        -700.138          46.000          35.000
  22030229.701    22030228.4914   22030228.2884  115769677.650 7  90210143.28845
     -2949.358       -2298.207          45.000          35.000
  22534684.928    22534682.6534   22534685.8764  118420530.184 6  92275788.74543
      2949.936        2298.653          44.000          28.000
  24684314.584    24684313.7014   24684312.9164  129717013.156 5 101078175.19441
     -3330.908       -2595.527          39.000          18.000
  24943543.969    24943544.3754   24943548.6714  131079209.698 5 102139667.23241
      3129.426        2438.551          36.000          13.000
  24009155.054    24009153.1354   24009153.4504  126168883.077 6  98313484.41341
     -1071.428        -834.907          40.000          17.000
  22846184.110    22846183.6594   22846186.3024  120057518.989 6  93551332.14743
      2566.474        1999.842          42.000          25.000
  21970307.505    21970305.651    21970308.929   117443946.909 6  91345289.871 6
     -3530.389       -2745.858          44.000          42.000
  19325086.045    19325088.004    19325089.561   103702499.223 7  80657569.408 6
      -312.603        -243.136          45.000          44.000
  21082822.318    21082823.774    21082822.215   112897537.426 7  87809249.423 5
      2912.285        2265.111          46.000          38.000
  23104278.243    23104278.616    23104281.224   123679094.137 6  96194827.300 3
     -4540.089       -3531.188          40.000          26.000
  19566827.440    19566828.262    19566832.180   104926315.734 7  81609395.609 6
       -97.681         -75.973          46.000          41.000
 05 10  2  0 13  0.0000000  0 16G 1G 3G 7G11G14G19G20G22G24G28G31R 2
                                R 3R 4R17R18
  21430183.032    21430182.2904   21430185.0414  112616391.688 7  87753041.88845
      1474.906        1149.277          49.000          38.000
  24921681.026    24921679.9174   24921684.4384  130964327.582 5 102050157.42641
     -3791.238       -2954.205          36.000          13.000
  25498746.465    25498745.3874   25498749.2074  133996815.869 5 104413126.45341
      3232.599        2518.912          38.000          15.000
  20324611.474    20324610.5274   20324611.7914  106806518.926 8  83225920.23046
       846.969         659.971          50.000          40.000
  21775822.610    21775821.7444   21775823.5524  114432741.834 7  89168391.77445
      -918.410        -715.644          47.000          35.000
  22047099.227    22047098.2024   22047100.4954  115858336.519 7  90279228.11845
     -2961.202       -2307.432          46.000          35.000
  22517867.889    22517866.7864   22517869.4384  118332157.316 7  92206926.77744
      2941.565        2292.118          46.000          30.000
  24703333.518    24703332.7674   24703331.9454  129816956.741 5 101156053.35141
     -3331.982       -2596.342          39.000          17.000
  24925681.769    24925678.7384   24925686.3884  130985337.401 5 102066520.02041
      3128.615        2437.861          36.000          11.000
  24015319.231    24015316.0154   24015316.8504  126201272.195 6  98338722.66441
     -1087.835        -847.687          41.000          16.000
  22831575.272    22831575.0444   22831578.2724  119980747.481 6  93491510.18843
      2551.599        1988.263          43.000          26.000
  21990131.576    21990131.057    21990134.513   117549928.573 6  91427720.053 6
     -3535.049       -2749.486          44.000          41.000
  19326879.630    19326881.265    19326882.960   103712122.083 7  80665053.855 7
      -328.892        -255.807          47.000          46.000
  21066539.821    21066541.520    21066541.668   112810350.115 7  87741437.085 5
      2900.186        2255.698          48.000          39.000
  23129735.461    23129737.039    23129739.057   123815373.467 6  96300822.323 3
     -4545.186       -3535.151          40.000          25.000
  19567450.461    19567451.940    19567455.773   104929659.333 7  81611996.179 6
      -125.255         -97.426          47.000          44.000
 05 10  2  0 13 30.0000000  0 16G 1G 3G 7G11G14G19G20G22G24G28G31R 2
                                R 3R 4R17R18
  21421815.136    21421814.4044   21421817.7754  112572421.446 7  87718779.37545
      1456.440        1134.895          49.000          37.000
  24943322.948    24943323.5084   24943325.1264  131078066.631 5 102138785.25541
     -3791.383       -2954.282          37.000          13.000
  25480309.354    25480305.6474   25480310.7434  133899911.254 5 104337616.42641
      3227.688        2515.096          38.000          14.000
  20319814.462    20319813.8084   20319815.3294  106781313.471 7  83206279.61646
       833.389         649.399          49.000          40.000
  21781122.057    21781121.2764   21781123.2624  114460591.689 7  89190092.95845
      -938.244        -731.091          48.000          35.000
  22064039.522    22064037.8134   22064038.9704  115947349.689 7  90348588.99845
     -2972.988       -2316.608          46.000          35.000
  22501099.628    22501097.8664   22501101.1594  118244037.587 7  92138262.05543
      2933.107        2285.548          46.000          29.000
  24722357.161    24722356.6174   24722356.6234  129916932.411 5 101233956.41141
     -3333.017       -2597.125          38.000          17.000
  24907822.902    24907821.0774   24907825.1424  130891485.591 5 101993388.72741
      3128.031        2437.436          36.000          12.000
  24021574.432    24021572.6674   24021573.0124  126234154.359 6  98364345.13841
     -1104.247        -860.435          40.000          17.000
  22817052.162    22817051.4554   22817054.2934  119904423.251 6  93432036.72243
      2536.659        1976.624          43.000          27.000
  22009984.911    22009983.435    22009986.684   117656050.578 6  91510259.391 6
     -3539.710       -2753.105          44.000          40.000
  19328763.043    19328765.209    19328766.982   103722233.396 7  80672918.214 7
      -345.235        -268.515          47.000          46.000
  21050327.072    21050328.946    21050327.901   112723528.300 7  87673909.041 5
      2887.973        2246.199          48.000          39.000
  23155222.167    23155223.249    23155225.180   123951805.855 6  96406936.409 3
     -4550.260       -3539.069          40.000          25.000
  19568228.130    19568229.500    19568233.702   104933829.817 7  81615239.879 6
      -152.779        -118.829          47.000          43.000
 05 10  2  0 14  0.0000000  0 16G 1G 3G 7G11G14G19G20G22G24G28G31R 2
                                R 3R 4R17R18
  21413553.789    21413552.8964   21413556.5074  112529005.672 8  87684948.91645
      1437.950        1120.483          50.000          38.000
  24964969.044    24964966.7154   24964971.7584  131191809.562 5 102227416.12541
     -3791.427       -2954.333          38.000          12.000
  25461895.141    25461891.8404   25461894.7914  133803154.087 5 104262221.19341
      3222.757        2511.255          37.000          14.000
  20315096.003    20315095.2144   20315096.2704  106756516.518 8  83186957.30946
       819.761         638.779          51.000          41.000
  21786535.112    21786534.0804   21786536.0814  114489036.474 7  89212257.73845
      -958.060        -746.536          48.000          35.000
  22081044.672    22081043.2374   22081044.1554  116036715.099 7  90418224.39045
     -2984.679       -2325.719          47.000          35.000
  22484379.519    22484377.3674   22484379.9884  118156172.207 7  92069795.54743
      2924.590        2278.899          46.000          29.000
  24741387.343    24741388.9744   24741386.8944  130016938.771 5 101311883.43641
     -3334.007       -2597.939          38.000          17.000
  24889966.003    24889967.6844   24889969.7024  130797655.053 5 101920274.09441
      3127.361        2436.913          36.000          14.000
  24027925.889    24027923.3644   24027925.4694  126267527.688 6  98390350.35041
     -1120.610        -873.191          41.000          17.000
  22802612.905    22802612.8534   22802616.3084  119828548.858 6  93372913.82843
      2521.627        1964.905          43.000          27.000
  22029863.794    22029862.651    22029864.925   117762310.392 7  91592905.908 6
     -3544.255       -2756.647          45.000          41.000
  19330739.314    19330740.763    19330742.412   103732832.668 7  80681162.097 7
      -361.409        -281.098          48.000          49.000
  21034182.167    21034183.894    21034182.722   112637072.922 7  87606665.988 5
      2875.789        2236.726          49.000          39.000
  23180737.592    23180738.147    23180741.452   124088389.128 6  96513167.833 3
     -4555.222       -3542.940          40.000          25.000
  19569160.280    19569160.946    19569165.104   104938826.073 7  81619125.849 6
      -180.325        -140.254          48.000          44.000
 05 10  2  0 14 30.0000000  0 16G 1G 3G 7G11G14G19G20G22G24G28G31R 2
                                R 3R 4R17R18
  21405397.566    21405396.9254   21405400.2654  112486145.695 8  87651551.54545
      1419.386        1106.012          50.000          38.000
  24986613.822    24986614.3394   24986615.8634  131305554.347 5 102316048.46641
     -3791.488       -2954.363          38.000          13.000
  25443511.246    25443510.7374   25443515.0934  133706546.549 5 104186942.58941
      3217.808        2507.382          37.000          13.000
  20310455.551    20310454.7854   20310455.2924  106732129.003 8  83167954.05046
       806.065         628.108          51.000          41.000
  21792061.283    21792060.2284   21792062.0014  114518075.224 7  89234885.34145
      -977.834        -761.951          48.000          35.000
  22098116.573    22098115.8704   22098116.7934  116126430.529 7  90488132.48645
     -2996.328       -2334.798          46.000          35.000
  22467706.741    22467705.8034   22467708.5954  118068562.119 7  92001527.95343
      2916.066        2272.265          45.000          29.000
  24760423.377    24760423.5424   24760423.5324  130116974.704 5 101389833.48241
     -3335.036       -2598.712          39.000          16.000
  24872114.336    24872113.5214   24872119.3794  130703846.995 5 101847176.98641
      3126.524        2436.245          35.000          15.000
  24034367.972    24034367.1644   24034370.2814  126301390.722 5  98416737.07641
     -1136.867        -885.860          39.000          18.000
  22788260.053    22788259.6414   22788263.5014  119753126.865 6  93314143.45543
      2506.499        1953.111          41.000          26.000
  22049765.907    22049765.530    22049768.645   117868705.710 6  91675657.826 6
     -3548.731       -2760.123          44.000          41.000
  19332804.635    19332806.633    19332808.243   103743919.159 7  80689784.929 7
      -377.643        -293.729          47.000          49.000
  21018105.370    21018107.290    21018106.333   112550984.807 7  87539708.583 5
      2863.451        2227.129          49.000          39.000
  23206279.800    23206280.051    23206282.289   124225117.620 6  96619512.216 3
     -4559.983       -3546.652          40.000          25.000
  19570246.498    19570247.398    19570251.239   104944650.620 7  81623656.042 7
      -207.948        -161.737          48.000          45.000
 05 10  2  0 15  0.0000000  0 16G 1G 3G 7G11G14G19G20G22G24G28G31R 2
                                R 3R 4R17R18
  21397348.050    21397347.2364   21397350.1244  112443842.968 8  87618588.39445
      1400.802        1091.534          52.000          38.000
  25008259.221    25008259.5474   25008264.1744  131419298.556 5 102404680.29141
     -3791.479       -2954.418          38.000          13.000
  25425156.243    25425153.9294   25425159.6174  133610090.867 5 104111782.30141
      3212.572        2503.295          37.000          11.000
  20305892.352    20305891.9034   20305892.8244  106708152.041 8  83149270.71646
       792.390         617.448          50.000          42.000
  21797700.019    21797698.7294   21797700.8404  114547706.868 7  89257974.94145
      -997.605        -777.345          48.000          35.000
  22115255.632    22115253.9674   22115254.9074  116216493.824 7  90558311.65844
     -3007.895       -2343.812          47.000          34.000
  22451085.074    22451083.2154   22451085.5614  117981208.555 7  91933460.24544
      2907.493        2265.576          46.000          30.000
  24779466.079    24779464.5954   24779465.3254  130217038.552 5 101467805.25241
     -3335.896       -2599.389          38.000          16.000
  24854267.688    24854268.4314   24854271.0084  130610062.099 5 101774097.87441
      3125.690        2435.627          35.000          14.000
  24040904.249    24040903.9684   24040907.5514  126335741.324 5  98443503.74541
     -1153.169        -898.547          39.000          19.000
  22773995.075    22773995.2464   22773998.1774  119678159.671 6  93255727.45343
      2491.303        1941.280          44.000          27.000
  22069694.821    22069693.573    22069697.231   117975234.962 6  91758513.903 6
     -3553.198       -2763.602          44.000          41.000
  19334961.362    19334963.148    19334964.188   103755490.063 7  80698784.528 7
      -393.794        -306.288          47.000          49.000
  21002097.945    21002099.613    21002098.537   112465265.590 7  87473038.111 5
      2851.194        2217.594          49.000          39.000
  23231848.870    23231848.279    23231850.993   124361988.727 5  96725967.494 3
     -4564.772       -3550.382          39.000          25.000
  19571487.423    19571488.070    19571491.781   104951302.364 7  81628829.617 6
      -235.530        -183.190          48.000          44.000
 05 10  2  0 15 30.0000000  0 16G 1G 3G 7G11G14G19G20G22G24G28G31R 2
                                R 3R 4R17R18
  21389405.035    21389403.8374   21389406.7334  112402098.989 8  87586060.62545
      1382.137        1076.989          50.000          38.000
  25029903.531    25029902.7094   25029903.1754  131533040.048 5 102493310.02541
     -3791.276       -2954.268          37.000          12.000
  25406829.687    25406826.2684   25406832.0044  133513789.471 5 104036742.25941
      3207.423        2499.288          37.000          15.000
  20301407.711    20301407.3554   20301408.7454  106684586.539 7  83130907.98546
       778.629         606.724          49.000          41.000
  21803450.510    21803449.9184   21803451.7944  114577929.668 7  89281525.18644
     -1017.291        -792.702          47.000          34.000
  22132459.458    22132458.3474   22132459.1524  116306902.663 7  90628760.10044
     -3019.358       -2352.749          46.000          34.000
  22434509.869    22434508.7224   22434512.5074  117894112.697 7  91865593.36343
      2898.871        2258.862          45.000          29.000
  24798511.845    24798510.1174   24798513.0894  130317128.903 5 101545797.73241
     -3336.714       -2600.026          39.000          16.000
  24836428.258    24836425.2844   24836429.5304  130516301.147 5 101701037.37241
      3124.975        2435.057          37.000          15.000
  24047535.068    24047533.7534   24047535.4004  126370577.943 5  98470649.14941
     -1169.298        -911.146          39.000          19.000
  22759816.839    22759816.2334   22759819.3274  119603649.880 6  93197667.88743
      2475.979        1929.328          44.000          28.000
  22089648.652    22089646.801    22089649.751   118081895.326 6  91841471.963 6
     -3557.540       -2766.975          43.000          41.000
  19337207.504    19337209.340    19337210.605   103767544.818 7  80708160.458 7
      -409.919        -318.827          47.000          46.000
  20986160.354    20986161.422    20986160.332   112379915.698 7  87406654.886 5
      2838.814        2207.965          49.000          39.000
  23257440.116    23257442.681    23257446.167   124498999.370 5  96832531.316 3
     -4569.304       -3553.896          39.000          25.000
  19572881.857    19572883.045    19572886.586   104958782.643 7  81634647.607 6
      -263.173        -204.691          48.000          43.000
 05 10  2  0 16  0.0000000  0 16G 1G 3G 7G11G14G19G20G22G24G28G31R 2
                                R 3R 4R17R18
  21381567.316    21381566.2604   21381569.4264  112360915.047 8  87553969.25045
      1363.439        1062.424          50.000          39.000
  25051547.179    25051545.9324   25051550.8014  131646776.858 5 102581936.12041
     -3791.139       -2954.178          36.000          11.000
  25388534.492    25388533.5214   25388536.0904  133417644.339 5 103961823.95341
      3202.232        2495.269          38.000          15.000
  20297002.393    20297001.4254   20297002.8454  106661433.429 8  83112866.59146
       764.896         596.028          50.000          41.000
  21809314.636    21809313.7544   21809315.6084  114608742.954 7  89305535.54045
     -1036.925        -807.985          48.000          35.000
  22149729.519    22149728.3504   22149729.3564  116397654.615 7  90699475.89745
     -3030.800       -2361.661          48.000          35.000
  22417985.231    22417984.2734   22417987.3504  117807275.038 7  91797927.66543
      2890.280        2252.175          45.000          29.000
  24817563.748    24817562.7094   24817563.5394  130417244.792 5 101623810.07041
     -3337.634       -2600.735          39.000          16.000
  24818588.561    24818588.6864   24818594.0924  130422565.053 5 101627996.28541
      3124.043        2434.306          37.000          15.000
  24054256.187    24054256.1444   24054258.0014  126405898.875 5  98498171.89142
     -1185.422        -923.707          39.000          20.000
  22745725.621    22745725.0524   22745727.7734  119529599.980 6  93139966.64443
      2460.631        1917.382          44.000          27.000
  22109625.628    22109624.043    22109627.399   118188685.016 6  91924530.606 6
     -3561.825       -2770.309          43.000          41.000
  19339543.632    19339545.785    19339547.085   103780082.828 7  80717912.245 7
      -425.931        -331.281          48.000          49.000
  20970290.155    20970291.562    20970291.318   112294936.382 7  87340559.875 5
      2826.441        2198.345          49.000          39.000
  23283062.405    23283062.837    23283066.852   124636145.067 5  96939200.186 3
     -4573.780       -3557.361          39.000          25.000
  19574431.529    19574432.226    19574436.082   104967091.092 7  81641109.730 7
      -290.775        -226.157          48.000          45.000
 05 10  2  0 16 30.0000000  0 16G 1G 3G 7G11G14G19G20G22G24G28G31R 2
                                R 3R 4R17R18
  21373837.186    21373836.0474   21373839.6244  112320292.470 8  87522315.29945
      1344.704        1047.819          51.000          39.000
  25073189.639    25073185.3494   25073189.7494  131760506.452 5 102670556.53841
     -3790.803       -2953.888          36.000          11.000
  25370267.411    25370269.1874   25370271.8744  133321657.825 5 103887029.26141
      3196.793        2491.005          37.000          15.000
  20292675.202    20292674.4024   20292675.6454  106638693.456 8  83095147.12746
       751.101         585.271          51.000          41.000
  21815290.282    21815289.1194   21815291.4544  114640145.229 7  89330004.84945
     -1056.532        -823.276          48.000          35.000
  22167063.394    22167061.9524   22167063.2714  116488747.625 7  90770457.44244
     -3042.107       -2370.469          47.000          34.000
  22401511.041    22401509.0644   22401512.0124  117720696.978 7  91730464.24644
      2881.599        2245.398          46.000          30.000
  24836620.343    24836618.2194   24836619.4364  130517384.804 5 101701841.21741
     -3338.444       -2601.342          39.000          16.000
  24800759.306    24800756.3154   24800758.9324  130328854.659 5 101554975.19941
      3123.252        2433.721          38.000          15.000
  24061070.902    24061068.2714   24061070.9214  126441701.982 6  98526070.37542
     -1201.466        -936.234          40.000          20.000
  22731722.312    22731721.2314   22731723.8244  119456012.466 6  93082625.71243
      2445.168        1905.325          44.000          28.000
  22129626.514    22129625.913    22129628.465   118295601.871 6  92007688.148 6
     -3566.004       -2773.563          43.000          40.000
  19341970.033    19341971.822    19341973.184   103793101.529 7  80728037.902 7
      -441.918        -343.718          48.000          49.000
  20954489.739    20954491.531    20954491.517   112210328.606 7  87274753.853 5
      2814.066        2188.715          49.000          39.000
  23308705.376    23308707.417    23308711.495   124773423.216 5  97045972.054 3
     -4578.014       -3560.693          38.000          25.000
  19576134.353    19576136.084    19576139.825   104976227.589 7  81648215.886 7
      -318.340        -247.598          48.000          45.000
 05 10  2  0 17  0.0000000  0 16G 1G 3G 7G11G14G19G20G22G24G28G31R 2
                                R 3R 4R17R18
  21366213.247    21366212.6004   21366216.4674  112280232.754 7  87491099.95145
      1325.913        1033.177          49.000          38.000
  25094829.187    25094828.8524   25094833.1174  131874227.055 5 102759169.97641
     -3790.508       -2953.626          36.000          12.000
  25352033.127    25352030.8004   25352036.8294  133225832.136 5 103812359.93441
      3191.487        2486.832          36.000          13.000
  20288426.568    20288426.0044   20288426.9214  106616367.754 7  83077750.47846
       737.263         574.489          49.000          40.000
  21821377.841    21821376.8634   21821378.7464  114672135.390 7  89354932.25544
     -1076.112        -838.531          48.000          34.000
  22184462.969    22184461.5384   22184462.3444  116580179.476 7  90841703.02844
     -3053.347       -2379.238          46.000          34.000
  22385084.206    22385083.5044   22385086.5184  117634379.658 7  91663204.02943
      2872.873        2238.592          45.000          29.000
  24855678.661    24855680.1014   24855678.9524  130617547.431 5 101779889.97141
     -3339.048       -2601.838          37.000          16.000
  24782930.682    24782928.6664   24782930.3174  130235170.801 5 101481974.88841
      3122.352        2432.956          36.000          14.000
  24067975.285    24067971.8884   24067975.6974  126477985.982 6  98554343.64341
     -1217.469        -948.717          40.000          19.000
  22717806.662    22717806.2444   22717809.8004  119382889.691 6  93025646.93143
      2429.616        1893.208          43.000          28.000
  22149652.622    22149650.013    22149652.654   118402643.975 6  92090943.110 6
     -3570.137       -2776.774          42.000          41.000
  19344484.838    19344487.063    19344488.764   103806600.635 7  80738537.214 7
      -457.959        -356.191          47.000          46.000
  20938760.369    20938761.991    20938760.921   112126093.548 7  87209237.712 6
      2801.604        2179.025          49.000          40.000
  23334376.103    23334375.754    23334379.154   124910829.170 5  97152843.318 3
     -4582.292       -3563.988          38.000          25.000
  19577993.086    19577994.064    19577998.131   104986193.133 7  81655966.852 6
      -346.025        -269.130          48.000          44.000
 05 10  2  0 17 30.0000000  0 16G 1G 3G 7G11G14G19G20G22G24G28G31R 2
                                R 3R 4R17R18
  21358698.265    21358697.2564   21358700.5064  112240737.083 7  87460324.11545
      1307.079        1018.502          48.000          37.000
  25116467.359    25116468.1794   25116467.7384  131987936.241 5 102847774.51941
     -3790.034       -2953.242          37.000          11.000
  25333829.105    25333828.8364   25333831.1504  133130169.612 5 103737817.67741
      3186.013        2482.609          36.000          14.000
  20284256.660    20284256.5324   20284257.4984  106594457.150 7  83060677.28345
       723.404         563.692          49.000          39.000
  21827575.959    21827575.5864   21827577.6604  114704711.839 7  89380316.50444
     -1095.635        -853.738          46.000          34.000
  22201925.433    22201924.0774   22201925.4374  116671947.776 7  90913210.77344
     -3064.553       -2387.967          45.000          34.000
  22368709.625    22368708.1024   22368710.7444  117548324.127 7  91596147.77044
      2864.117        2231.778          46.000          30.000
  24874745.550    24874745.0964   24874745.0914  130717731.662 5 101857955.60941
     -3339.832       -2602.448          39.000          17.000
  24765106.332    24765108.2074   24765110.7954  130141514.008 5 101408995.60441
      3121.417        2432.273          36.000          14.000
  24074968.684    24074968.1774   24074971.6514  126514748.481 5  98582989.72141
     -1233.373        -961.079          38.000          18.000
  22703981.452    22703980.8734   22703983.9724  119310234.189 6  92969032.24943
      2413.992        1881.037          44.000          28.000
  22169695.772    22169696.286    22169700.139   118509809.066 6  92174293.719 6
     -3574.234       -2779.961          41.000          41.000
  19347090.306    19347092.010    19347093.541   103820578.222 7  80749408.673 6
      -473.893        -368.582          46.000          44.000
  20923099.543    20923101.403    20923101.055   112042232.108 7  87144012.165 5
      2789.122        2169.317          48.000          39.000
  23360065.209    23360067.641    23360070.697   125048361.087 5  97259812.583 3
     -4586.350       -3567.173          38.000          25.000
  19580005.918    19580006.918    19580011.049   104996987.395 7  81664362.378 6
      -373.629        -290.599          46.000          42.000
 05 10  2  0 18  0.0000000  0 16G 1G 3G 7G11G14G19G20G22G24G28G31R 2
                                R 3R 4R17R18
  21351289.588    21351288.7554   21351292.4564  112201806.830 7  87429988.87045
      1288.249        1003.830          49.000          37.000
  25138102.655    25138100.2374   25138103.9134  132101631.955 5 102936368.66241
     -3789.583       -2952.922          37.000          12.000
  25315657.545    25315654.3234   25315659.1524  133034672.394 5 103663404.27641
      3180.475        2478.290          38.000          15.000
  20280166.999    20280166.2364   20280167.3174  106572962.725 7  83043928.38046
       709.556         552.903          49.000          40.000
  21833887.066    21833885.9624   21833888.2004  114737873.295 7  89406156.61144
     -1115.129        -868.933          47.000          34.000
  22219451.972    22219450.8134   22219451.9774  116764050.261 7  90984978.93244
     -3075.625       -2396.584          46.000          34.000
  22352383.234    22352381.5944   22352384.2624  117462531.299 7  91529296.23344
      2855.356        2224.952          46.000          30.000
  24893810.668    24893812.0414   24893812.3484  130817935.862 5 101936036.75541
     -3340.426       -2602.917          38.000          16.000
  24747289.914    24747288.1544   24747291.9234  130047885.549 5 101336038.37041
      3120.419        2431.490          37.000          14.000
  24082056.282    24082053.5014   24082056.2744  126551987.729 5  98612007.29341
     -1249.292        -973.454          39.000          16.000
  22690244.911    22690244.6794   22690247.8014  119238048.178 6  92912783.41443
      2398.347        1868.835          44.000          28.000
  22189766.887    22189766.591    22189770.237   118617094.735 6  92257738.116 6
     -3578.202       -2783.049          41.000          41.000
  19349784.554    19349785.720    19349787.250   103835033.432 7  80760651.620 7
      -489.754        -380.922          46.000          46.000
  20907509.197    20907510.760    20907509.580   111958745.349 7  87079078.048 5
      2776.655        2159.618          48.000          39.000
  23385784.459    23385782.639    23385785.731   125186014.204 5  97366876.116 3
     -4590.538       -3570.405          39.000          25.000
  19582173.784    19582174.800    19582178.746   105008609.921 7  81673402.105 6
      -401.162        -312.017          47.000          43.000
 05 10  2  0 18 30.0000000  0 16G 1G 3G 7G11G14G19G20G22G24G28G31R 2
                                R 3R 4R17R18
  21343989.010    21343988.5134   21343991.7874  112163443.131 8  87400095.09045
      1269.333         989.090          50.000          38.000
  25159734.165    25159731.9614   25159735.7524  132215311.993 5 103024950.47241
     -3789.058       -2952.541          37.000          11.000
  25297515.974    25297515.7274   25297517.3644  132939342.740 5 103589121.38141
      3174.938        2474.049          37.000          14.000
  20276156.402    20276155.2404   20276156.3284  106551885.194 8  83027504.33446
       695.611         542.036          51.000          41.000
  21840308.532    21840307.7104   21840309.7124  114771618.628 7  89432451.67944
     -1134.568        -884.083          48.000          34.000
  22237041.228    22237040.3934   22237041.0414  116856484.654 7  91057005.71844
     -3086.669       -2405.195          46.000          34.000
  22336107.002    22336105.9584   22336109.2104  117377002.352 7  91462650.31444
      2846.570        2218.105          47.000          30.000
  24912884.278    24912884.1994   24912883.1664  130918159.192 5 102014132.83741
     -3341.072       -2603.409          39.000          17.000
  24729477.520    24729476.5984   24729483.1084  129954286.178 5 101263103.79241
      3119.523        2430.767          36.000          16.000
  24089232.210    24089232.0394   24089231.6114  126589701.645 5  98641394.76341
     -1265.012        -985.738          38.000          17.000
  22676598.331    22676598.1024   22676600.4984  119166334.333 7  92856902.48443
      2382.567        1856.552          45.000          28.000
  22209860.722    22209859.609    22209861.960   118724499.260 6  92341274.962 6
     -3582.158       -2786.124          42.000          41.000
  19352567.126    19352568.378    19352569.768   103849965.116 7  80772265.152 7
      -505.659        -393.293          47.000          48.000
  20891989.159    20891990.719    20891989.699   111875634.268 8  87014436.103 6
      2764.102        2149.850          51.000          40.000
  23411521.535    23411520.410    23411522.552   125323784.336 5  97474030.641 3
     -4594.368       -3573.411          39.000          25.000
  19584496.409    19584497.156    19584500.824   105021061.086 7  81683086.333 7
      -428.855        -333.553          48.000          45.000
 05 10  2  0 19  0.0000000  0 16G 1G 3G 7G11G14G19G20G22G24G28G31R 2
                                R 3R 4R17R18
  21336797.258    21336796.4734   21336799.3034  112125647.298 8  87370643.80445
      1250.406         974.345          50.000          39.000
  25181362.776    25181361.3184   25181364.4904  132328974.100 5 103113518.39841
     -3788.368       -2951.962          36.000          11.000
  25279407.638    25279406.7464   25279412.9524  132844183.063 5 103514970.96741
      3169.162        2469.443          35.000          14.000
  20272224.409    20272223.6564   20272224.9274  106531225.689 8  83011406.01446
       681.683         531.183          50.000          41.000
  21846839.897    21846840.0244   21846841.7224  114805946.244 7  89459200.47244
     -1153.944        -899.173          47.000          33.000
  22254695.192    22254693.2924   22254694.1394  116949248.753 7  91129289.42445
     -3097.583       -2413.693          47.000          35.000
  22319882.747    22319881.1734   22319884.1694  117291738.189 7  91396210.73144
      2837.737        2211.217          47.000          31.000
  24931961.295    24931958.3334   24931960.4704  131018400.100 5 102092242.62641
     -3341.665       -2603.902          39.000          16.000
  24711670.997    24711671.9394   24711675.8514  129860716.697 5 101190192.52041
      3118.507        2430.042          35.000          15.000
  24096500.923    24096498.3804   24096500.8754  126627888.767 6  98671150.93241
     -1280.761        -997.963          40.000          16.000
  22663041.685    22663041.6444   22663044.3274  119095094.946 6  92801391.26943
      2366.737        1844.206          44.000          28.000
  22229973.114    22229972.733    22229976.045   118832020.668 6  92424902.701 6
     -3585.971       -2789.088          41.000          40.000
  19355437.642    19355439.357    19355441.059   103865371.308 7  80784247.748 7
      -521.439        -405.563          48.000          49.000
  20876539.277    20876541.330    20876539.351   111792900.041 8  86950087.272 6
      2751.543        2140.093          50.000          40.000
  23437276.643    23437278.335    23437279.975   125461671.253 5  97581276.021 3
     -4598.030       -3576.240          38.000          25.000
  19586972.263    19586973.157    19586977.306   105034341.178 7  81693415.293 7
      -456.520        -355.070          48.000          45.000
 05 10  2  0 19 30.0000000  0 16G 1G 3G 7G11G14G19G20G22G24G28G31R 2
                                R 3R 4R17R18
  21329713.455    21329712.5944   21329715.4774  112088420.518 8  87341635.93645
      1231.403         959.529          51.000          39.000
  25202990.969    25202990.7464   25202992.0234  132442616.286 5 103202070.72841
     -3787.658       -2951.474          36.000          11.000
  25261331.847    25261331.6394   25261335.9624  132749195.377 5 103440954.61841
      3163.326        2464.935          38.000          15.000
  20268373.345    20268372.1354   20268373.0614  106510985.126 8  82995634.15146
       667.705         520.287          50.000          41.000
  21853483.219    21853482.7354   21853484.8044  114840854.966 7  89486402.08144
     -1173.285        -914.255          48.000          34.000
  22272409.335    22272407.8804   22272408.9364  117042340.067 7  91201828.09944
     -3108.450       -2422.169          47.000          34.000
  22303706.731    22303705.8534   22303708.8584  117206739.855 7  91329978.25844
      2828.869        2204.322          45.000          30.000
  24951039.375    24951037.2494   24951038.0854  131118657.434 5 102170365.16741
     -3342.097       -2604.234          39.000          16.000
  24693871.222    24693871.7644   24693878.5864  129767178.250 5 101117305.50341
      3117.408        2429.155          37.000          17.000
  24103857.258    24103855.3134   24103858.2434  126666547.115 6  98701274.28541
     -1296.401       -1010.173          40.000          19.000
  22649575.935    22649575.8954   22649578.2184  119024332.443 6  92746251.63943
      2350.787        1831.778          43.000          28.000
  22250108.666    22250108.151    22250111.838   118939656.767 6  92508619.652 6
     -3589.707       -2791.991          42.000          40.000
  19358396.871    19358398.550    19358400.213   103881251.695 7  80796599.161 7
      -537.207        -417.822          47.000          48.000
  20861159.127    20861160.913    20861159.749   111710543.355 8  86886032.092 5
      2738.938        2130.287          50.000          39.000
  23463056.049    23463057.748    23463060.716   125599669.536 5  97688608.001 2
     -4601.801       -3579.177          38.000          24.000
  19589603.423    19589604.224    19589608.386   105048450.741 7  81704389.389 7
      -484.123        -376.540          48.000          45.000
 05 10  2  0 20  0.0000000  0 16G 1G 3G 7G11G14G19G20G22G24G28G31R 2
                                R 3R 4R17R18
  21322737.946    21322736.9934   21322739.9474  112051763.899 7  87313072.35345
      1212.368         944.704          49.000          38.000
  25224610.355    25224608.8994   25224613.6644  132556236.446 5 103290605.91741
     -3786.953       -2950.874          35.000          11.000
  25243290.164    25243288.5644   25243292.1754  132654382.103 5 103367074.15541
      3157.507        2460.424          39.000          18.000
  20264600.860    20264600.2654   20264601.6414  106491164.158 7  82980189.24446
       653.685         509.365          49.000          40.000
  21860236.999    21860235.9184   21860238.0974  114876343.261 7  89514055.30044
     -1192.586        -929.291          46.000          33.000
  22290185.719    22290184.6404   22290185.0244  117135756.395 7  91274620.03344
     -3119.290       -2430.613          46.000          34.000
  22287584.057    22287582.6124   22287585.3694  117122008.421 7  91263953.79444
      2819.896        2197.320          46.000          31.000
  24970120.052    24970118.6484   24970120.4274  131218929.848 5 102248499.52341
     -3342.663       -2604.660          39.000          16.000
  24676078.982    24676078.8194   24676082.6854  129673671.521 5 101044443.14241
      3116.397        2428.371          38.000          17.000
  24111303.070    24111301.8194   24111304.8734  126705674.522 6  98731763.17142
     -1312.042       -1022.368          40.000          20.000
  22636201.375    22636201.1294   22636204.1794  118954049.246 6  92691485.52943
      2334.756        1819.293          43.000          28.000
  22270264.649    22270265.198    22270268.772   119047405.212 6  92592423.995 6
     -3593.435       -2794.891          41.000          40.000
  19361444.419    19361445.742    19361447.320   103897603.597 7  80809317.309 7
      -552.847        -429.996          47.000          46.000
  20845850.503    20845852.042    20845851.078   111628565.051 7  86822271.214 5
      2726.262        2120.427          49.000          39.000
  23488855.408    23488857.733    23488861.960   125737776.477 5  97796024.495 3
     -4605.329       -3581.917          39.000          25.000
  19592387.607    19592389.150    19592394.181   105063388.375 7  81716007.530 6
      -511.753        -398.029          47.000          43.000
 05 10  2  0 20 30.0000000  0 16G 1G 3G 7G11G14G19G20G22G24G28G31R 2
                                R 3R 4R17R18
  21315871.206    21315870.3534   21315873.1014  112015678.660 7  87284953.99745
      1193.319         929.859          48.000          38.000
  25246226.194    25246222.5674   25246236.9614  132669832.434 4 103379122.23241
     -3786.226       -2950.307          34.000           9.000
  25225282.305    25225279.8354   25225282.3244  132559745.399 5 103293331.23641
      3151.626        2455.802          38.000          17.000
  20260909.768    20260908.4994   20260909.9914  106471763.836 7  82965072.10946
       639.653         498.432          47.000          41.000
  21867099.294    21867099.3614   21867101.7234  114912409.736 7  89542159.05844
     -1211.811        -944.266          46.000          33.000
  22308024.140    22308022.5894   22308022.8584  117229495.293 7  91347663.30244
     -3129.938       -2438.905          45.000          34.000
  22271511.076    22271509.9724   22271512.1674  117037544.952 7  91198138.10044
      2810.990        2190.388          46.000          31.000
  24989204.226    24989202.3854   24989203.9734  131319216.084 5 102326644.56941
     -3343.134       -2605.013          39.000          16.000
  24658292.695    24658288.9634   24658295.3674  129580197.526 5 100971606.24741
      3115.204        2427.449          37.000          15.000
  24118837.041    24118835.5534   24118837.7064  126745268.952 6  98762615.95841
     -1327.573       -1034.447          40.000          19.000
  22622919.331    22622918.5444   22622921.3734  118884247.738 6  92637094.74043
      2318.672        1806.748          44.000          28.000
  22290444.781    22290442.639    22290446.187   119155264.172 6  92676314.281 6
     -3597.130       -2797.768          41.000          40.000
  19364579.043    19364580.714    19364582.298   103914425.854 7  80822401.287 7
      -568.541        -442.192          45.000          46.000
  20830612.322    20830613.991    20830613.079   111546966.546 7  86758805.731 5
      2713.655        2110.622          48.000          39.000
  23514674.759    23514676.637    23514678.716   125875988.108 5  97903522.416 3
     -4608.682       -3584.524          39.000          26.000
  19595328.390    19595329.658    19595334.061   105079154.448 7  81728270.019 6
      -539.324        -419.470          46.000          43.000
 05 10  2  0 21  0.0000000  0 16G 1G 3G 7G11G14G19G20G22G24G28G31R 2
                                R 3R 4R17R18
  21309114.011    21309112.8804   21309115.3764  111980166.078 7  87257281.86245
      1174.172         914.936          49.000          39.000
  25267838.012    25267837.4634   25267842.4074  132783401.948 4 103467618.01041
     -3785.296       -2949.604          33.000           9.000
  25207307.618    25207303.9784   25207308.2054  132465287.591 5 103219727.72441
      3145.698        2451.169          35.000          12.000
  20257298.006    20257296.9264   20257298.3474  106452785.068 7  82950283.45946
       625.574         487.458          48.000          41.000
  21874072.937    21874072.2624   21874074.1764  114949052.779 7  89570712.07944
     -1231.036        -959.251          46.000          34.000
  22325923.151    22325921.0264   22325921.1784  117323554.616 7  91420956.28844
     -3140.639       -2447.255          45.000          33.000
  22255488.583    22255487.1774   22255490.7084  116953350.174 7  91132531.83044
      2801.969        2183.345          46.000          30.000
  25008290.782    25008291.4184   25008289.4624  131419515.016 6 102404799.55641
     -3343.486       -2605.293          40.000          17.000
  24640510.565    24640509.5324   24640514.4964  129486756.645 5 100898795.19141
      3114.087        2426.565          37.000          14.000
  24126460.538    24126458.8814   24126459.7544  126785328.453 6  98793831.17441
     -1343.082       -1046.565          40.000          19.000
  22609728.768    22609727.8054   22609731.0024  118814930.298 6  92583081.14743
      2302.481        1794.130          44.000          28.000
  22310639.296    22310639.177    22310643.378   119263231.961 6  92760289.217 5
     -3600.778       -2800.605          41.000          39.000
  19367801.121    19367803.006    19367804.643   103931717.714 7  80835850.512 7
      -584.222        -454.397          46.000          47.000
  20815445.192    20815446.598    20815445.377   111465748.387 7  86695636.071 5
      2700.877        2100.680          48.000          39.000
  23540513.672    23540514.469    23540516.807   126014300.705 5  98011098.863 3
     -4612.003       -3587.125          39.000          26.000
  19598423.376    19598424.706    19598429.072   105095748.736 7  81741176.678 6
      -566.967        -440.975          47.000          44.000
 05 10  2  0 21 30.0000000  0 16G 1G 3G 7G11G14G19G20G22G24G28G31R 2
                                R 3R 4R17R18
  21302464.537    21302463.7874   21302466.4284  111945227.292 8  87230056.84945
      1155.032         900.024          51.000          39.000
  25289445.816    25289444.1694   25289445.7794  132896943.062 4 103556091.58841
     -3784.229       -2948.752          33.000           9.000
  25189365.472    25189366.2014   25189368.6784  132371010.961 5 103146265.38241
      3139.422        2446.329          37.000          10.000
  20253766.650    20253765.9604   20253766.9634  106434228.634 8  82935823.89946
       611.458         476.463          51.000          41.000
  21881155.678    21881154.7434   21881156.5114  114986271.177 7  89599713.44044
     -1250.231        -974.210          47.000          34.000
  22343882.216    22343880.9594   22343882.0714  117417932.061 7  91494497.15844
     -3151.235       -2455.509          46.000          33.000
  22239518.565    22239518.2244   22239519.4084  116869425.760 7  91067136.19744
      2792.949        2176.317          47.000          31.000
  25027378.701    25027378.6794   25027375.9304  131519825.402 6 102482963.50641
     -3343.882       -2605.608          40.000          17.000
  24622737.338    24622735.6194   24622739.7024  129393350.324 5 100826011.05441
      3112.849        2425.621          38.000          15.000
  24134169.996    24134168.6314   24134171.5584  126825851.296 5  98825407.38441
     -1358.495       -1058.584          38.000          18.000
  22596631.150    22596630.1694   22596632.6884  118746098.947 6  92529446.32343
      2286.247        1781.490          44.000          28.000
  22330857.672    22330857.231    22330861.499   119371306.354 6  92844347.056 5
     -3604.252       -2803.302          42.000          39.000
  19371111.042    19371112.653    19371114.234   103949478.228 7  80849664.253 7
      -599.811        -466.523          47.000          48.000
  20800349.743    20800351.388    20800349.775   111384911.835 8  86632763.209 5
      2688.177        2090.806          50.000          39.000
  23566370.279    23566370.319    23566373.778   126152711.008 5  98118751.315 3
     -4615.164       -3589.579          39.000          25.000
  19601672.779    19601673.829    19601677.644   105113171.617 7  81754727.796 6
      -594.578        -462.447          48.000          44.000
 05 10  2  0 22  0.0000000  0 16G 1G 3G 7G11G14G19G20G22G24G28G31R 2
                                R 3R 4R17R18
  21295925.993    21295924.6674   21295927.3704  111910863.354 8  87203279.75945
      1135.859         885.091          52.000          39.000
  25311044.847    25311041.3884   25311046.1384  133010453.505 4 103644541.26041
     -3783.046       -2947.819          33.000           7.000
  25171462.431    25171459.4894   25171463.8374  132276917.830 5 103072946.04841
      3133.382        2441.625          39.000          17.000
  20250316.076    20250315.3004   20250316.3174  106416095.342 8  82921694.06146
       597.362         465.478          51.000          42.000
  21888347.173    21888346.2594   21888348.4074  115024063.370 7  89629161.90644
     -1269.270        -989.034          48.000          34.000
  22361900.910    22361899.4224   22361901.4924  117512625.061 7  91568283.87244
     -3161.679       -2463.638          45.000          33.000
  22223599.745    22223598.9464   22223602.0534  116785772.108 7  91001951.53544
      2783.919        2169.289          46.000          31.000
  25046468.680    25046468.4654   25046467.1814  131620146.007 5 102561135.35341
     -3344.188       -2605.859          39.000          18.000
  24604969.089    24604967.2574   24604971.2324  129299979.336 6 100753254.46041
      3111.726        2424.717          40.000          18.000
  24141968.885    24141967.1824   24141971.2144  126866835.321 5  98857342.96641
     -1373.805       -1070.493          38.000          16.000
  22583624.461    22583623.4834   22583626.9784  118677756.118 6  92476192.16643
      2269.938        1768.788          44.000          27.000
  22351096.433    22351095.413    22351098.367   119479485.263 6  92928486.201 5
     -3607.695       -2805.982          43.000          39.000
  19374507.227    19374509.325    19374510.888   103967704.922 7  80863840.574 7
      -615.333        -478.592          48.000          48.000
  20785324.498    20785326.502    20785325.826   111304457.580 8  86570187.712 5
      2675.429        2080.884          50.000          39.000
  23592242.377    23592243.658    23592247.036   126291213.547 5  98226475.504 2
     -4618.292       -3591.986          38.000          24.000
  19605075.927    19605076.607    19605081.389   105131421.623 7  81768922.233 7
      -622.163        -483.906          48.000          45.000
 05 10  2  0 22 30.0000000  0 16G 1G 3G 7G11G14G19G20G22G24G28G31R 2
                                R 3R 4R17R18
  21289495.700    21289494.7554   21289498.0254  111877075.264 8  87176951.39345
      1116.664         870.126          51.000          39.000
  25332639.137    25332639.0244   25332641.0124  133123931.104 4 103732965.36841
     -3782.010       -2947.009          33.000           6.000
  25153591.378    25153589.0994   25153594.0064  132183010.388 5 102999771.42641
      3127.037        2436.636          39.000          19.000
  20246945.930    20246945.3754   20246946.3614  106398386.128 8  82907894.67846
       583.218         454.452          50.000          41.000
  21895647.612    21895646.7624   21895648.8344  115062427.686 7  89659056.17944
     -1288.324       -1003.894          47.000          33.000
  22379981.141    22379979.0104   22379979.7434  117607631.423 7  91642314.77244
     -3172.078       -2471.750          46.000          33.000
  22207732.541    22207731.8764   22207734.3094  116702390.208 7  90936978.65144
      2774.855        2162.223          46.000          31.000
  25065560.165    25065560.3274   25065559.4234  131720475.615 5 102639314.21041
     -3344.490       -2606.087          39.000          17.000
  24587207.062    24587206.4354   24587211.4014  129206644.666 5 100680526.18041
      3110.446        2423.717          37.000          18.000
  24149855.589    24149855.1814   24149857.8354  126908278.419 5  98889636.24341
     -1389.065       -1082.397          39.000          17.000
  22570712.262    22570712.1374   22570715.1604  118609904.345 6  92423320.65343
      2253.494        1755.976          44.000          27.000
  22371353.066    22371351.816    22371354.053   119587766.729 6  93012705.114 5
     -3611.077       -2808.614          43.000          39.000
  19377991.026    19377992.727    19377994.092   103986397.001 7  80878378.848 7
      -630.830        -490.647          47.000          48.000
  20770372.270    20770374.045    20770372.826   111224386.805 7  86507910.470 5
      2662.646        2070.939          49.000          39.000
  23618133.897    23618134.360    23618137.029   126429807.859 5  98334271.085 2
     -4621.079       -3594.169          38.000          23.000
  19608632.834    19608634.349    19608638.625   105150498.776 7  81783760.013 7
      -649.675        -505.307          48.000          45.000
 05 10  2  0 23  0.0000000  0 16G 1G 3G 7G11G14G19G20G22G24G28G31R 2
                                R 3R 4R17R18
  21283175.965    21283175.0094   21283178.1484  111843864.069 8  87151072.55045
      1097.396         855.118          52.000          39.000
  25354228.857    25354224.3124   25354231.7754  133237373.708 4 103821362.19141
     -3780.738       -2946.008          33.000           6.000
  25135757.169    25135755.0594   25135759.5614  132089290.863 5 102926743.24841
      3120.878        2431.868          36.000          16.000
  20243656.850    20243656.2534   20243657.4014  106381101.875 8  82894426.43046
       569.036         443.404          50.000          41.000
  21903056.663    21903055.9624   21903057.7534  115101362.843 7  89689395.27044
     -1307.366       -1018.724          48.000          33.000
  22398119.344    22398117.5884   22398117.8414  117702948.769 7  91716588.04144
     -3182.423       -2479.804          46.000          32.000
  22191918.193    22191917.1694   22191918.4914  116619281.305 7  90872218.47444
      2765.717        2155.109          47.000          31.000
  25084653.155    25084653.4174   25084654.7304  131820812.780 5 102717499.01941
     -3344.678       -2606.255          39.000          19.000
  24569450.298    24569452.8174   24569457.5294  129113347.220 5 100607826.91841
      3109.223        2422.785          35.000          16.000
  24157828.087    24157827.7754   24157832.0134  126950178.346 5  98922285.57441
     -1404.265       -1094.241          39.000          17.000
  22557894.714    22557894.8534   22557897.6174  118542545.757 6  92370833.43343
      2237.030        1743.140          44.000          28.000
  22391627.511    22391626.460    22391629.233   119696148.891 6  93097002.356 5
     -3614.422       -2811.217          42.000          39.000
  19381560.574    19381562.536    19381564.003   104005553.089 7  80893278.038 7
      -646.279        -502.668          47.000          49.000
  20755491.196    20755493.123    20755492.733   111144700.178 8  86445931.993 6
      2649.787        2060.945          50.000          40.000
  23644039.683    23644040.783    23644043.778   126568487.101 5  98442132.724 2
     -4624.232       -3596.616          38.000          23.000
  19612344.900    19612346.448    19612350.360   105170403.123 7  81799241.158 7
      -677.317        -526.794          48.000          45.000
 05 10  2  0 23 30.0000000  0 16G 1G 3G 7G11G14G19G20G22G24G28G31R 2
                                R 3R 4R17R18
  21276965.992    21276964.8534   21276968.0324  111811230.846 7  87125644.07645
      1078.108         840.083          49.000          38.000
  25375807.784    25375805.6414   25375809.8934  133350779.333 4 103909730.19541
     -3779.546       -2945.105          33.000           7.000
  25117958.506    25117959.0804   25117960.7834  131995761.677 5 102853863.37341
      3114.396        2426.759          37.000          13.000
  20240448.648    20240448.3154   20240449.2914  106364243.631 7  82881290.13846
       554.849         432.351          49.000          40.000
  21910574.481    21910573.2814   21910575.3624  115140867.251 7  89720177.92744
     -1326.289       -1033.477          47.000          33.000
  22416315.962    22416314.6654   22416315.9524  117798574.580 7  91791101.64644
     -3192.676       -2487.798          45.000          33.000
  22176154.527    22176153.4454   22176156.6144  116536446.459 7  90807671.85944
      2756.591        2147.995          46.000          31.000
  25103747.992    25103747.4324   25103748.7894  131921156.417 5 102795688.81341
     -3344.875       -2606.376          39.000          18.000
  24551707.116    24551705.8294   24551710.7484  129020088.127 5 100535157.48041
      3107.940        2421.798          39.000          16.000
  24165888.958    24165888.1664   24165890.9834  126992533.545 5  98955289.60841
     -1419.443       -1106.048          39.000          19.000
  22545171.442    22545171.4104   22545174.3534  118475682.800 6  92318732.42943
      2220.458        1730.227          43.000          28.000
  22411920.665    22411919.931    22411923.074   119804629.778 6  93181376.370 5
     -3617.660       -2813.742          43.000          39.000
  19385217.026    19385218.447    19385219.956   104025171.657 7  80908536.932 7
      -661.650        -514.620          47.000          46.000
  20740682.598    20740684.270    20740683.633   111065399.018 7  86384253.343 5
      2636.939        2050.950          49.000          39.000
  23669964.637    23669963.852    23669966.172   126707252.190 5  98550061.137 2
     -4626.930       -3598.719          38.000          23.000
  19616210.807    19616212.413    19616216.265   105191134.309 7  81815365.407 6
      -704.811        -548.190          47.000          43.000
 05 10  2  0 24  0.0000000  0 16G 1G 3G 7G11G14G19G20G22G24G28G31R 2
                                R 3R 4R17R18
  21270865.530    21270864.9974   21270868.4634  111779176.661 8  87100666.79445
      1058.809         825.044          50.000          39.000
  25397378.895    25397379.7654   25397383.1874  133464145.689 4 103998067.68341
     -3778.074       -2943.930          32.000           4.000
  25100197.592    25100198.4174   25100199.8134  131902425.061 6 102781133.41141
      3107.973        2421.770          40.000          13.000
  20237321.975    20237321.3184   20237322.4244  106347811.956 7  82868486.22746
       540.612         421.254          49.000          41.000
  21918200.167    21918199.1244   21918200.6854  115180939.294 7  89751402.88944
     -1345.195       -1048.200          47.000          33.000
  22434571.124    22434569.7264   22434571.3484  117894506.683 7  91865853.89844
     -3202.832       -2495.714          46.000          33.000
  22160443.701    22160443.2204   22160446.5134  116453886.503 7  90743339.44144
      2747.398        2140.824          47.000          32.000
  25122845.094    25122843.7084   25122844.9254  132021505.402 6 102873882.77741
     -3345.080       -2606.557          40.000          18.000
  24533968.390    24533967.0164   24533970.4854  128926868.018 5 100462518.44441
      3106.620        2420.728          38.000          18.000
  24174035.936    24174033.1734   24174036.6104  127035341.614 6  98988646.51642
     -1434.444       -1117.740          40.000          20.000
  22532543.382    22532542.1564   22532544.8894  118409317.861 6  92267019.49743
      2203.820        1717.267          44.000          27.000
  22432233.233    22432232.021    22432234.974   119913207.350 6  93265825.581 6
     -3620.862       -2816.222          43.000          40.000
  19388958.202    19388959.965    19388961.567   104045251.331 7  80924154.459 7
      -676.993        -526.542          47.000          49.000
  20725946.017    20725947.681    20725946.742   110986483.285 7  86322874.455 6
      2624.128        2040.992          49.000          40.000
  23695900.652    23695900.836    23695904.683   126846098.546 5  98658052.743 2
     -4629.473       -3600.690          37.000          23.000
  19620231.143    19620232.071    19620235.804   105212691.185 7  81832131.856 6
      -732.297        -569.565          48.000          44.000
 05 10  2  0 24 30.0000000  0 16G 1G 3G 7G11G14G19G20G22G24G28G31R 2
                                R 3R 4R17R18
  21264876.186    21264875.8114   21264878.9564  111747702.457 8  87076141.45545
      1039.482         809.985          51.000          39.000
  25418942.483    25418946.2644   25418944.4594  133577470.780 4 104086372.89341
     -3776.707       -2942.837          31.000           6.000
  25082474.141    25082472.7444   25082475.6054  131809283.255 5 102708555.38641
      3101.442        2416.657          39.000          18.000
  20234276.163    20234275.9034   20234277.0234  106331807.759 8  82856015.42246
       526.366         410.156          50.000          42.000
  21925932.605    21925931.9304   21925934.1704  115221577.265 7  89783068.84844
     -1364.011       -1062.869          48.000          33.000
  22452884.094    22452883.3334   22452883.6664  117990743.176 7  91940843.36944
     -3212.884       -2503.546          46.000          32.000
  22144786.813    22144785.2694   22144787.4524  116371602.542 7  90679222.09144
      2738.208        2133.672          47.000          32.000
  25141941.896    25141941.3044   25141940.4364  132121858.790 6 102952080.22241
     -3345.173       -2606.604          40.000          17.000
  24516233.276    24516235.0564   24516238.2694  128833687.770 5 100389910.47041
      3105.383        2419.787          37.000          19.000
  24182266.485    24182265.7064   24182268.9194  127078600.775 5  99022354.95441
     -1449.469       -1129.440          38.000          19.000
  22520009.580    22520008.2074   22520011.5884  118343453.192 7  92215696.37243
      2187.175        1704.294          45.000          28.000
  22452562.172    22452561.064    22452563.988   120021879.659 6  93350348.487 6
     -3623.950       -2818.626          43.000          40.000
  19392785.821    19392787.500    19392788.854   104065789.996 7  80940128.984 7
      -692.257        -538.417          47.000          49.000
  20711281.289    20711282.633    20711281.964   110907954.797 8  86261796.766 6
      2611.155        2030.894          50.000          40.000
  23721851.404    23721852.168    23721855.934   126985019.609 5  98766102.452 2
     -4631.916       -3602.617          36.000          23.000
  19624405.082    19624406.090    19624410.036   105235073.891 7  81849540.619 6
      -759.828        -590.975          48.000          44.000
 05 10  2  0 25  0.0000000  0 16G 1G 3G 7G11G14G19G20G22G24G28G31R 2
                                R 3R 4R17R18
  21258997.131    21258996.5184   21258999.9424  111716809.283 7  87052068.86445
      1020.080         794.866          49.000          39.000
  25440501.649                                   133690752.626 4
     -3775.352                          30.000
  25064787.597    25064786.5744   25064789.2204  131716338.557 5 102636130.99841
      3094.840        2411.561          38.000          18.000
  20231312.660    20231311.9934   20231313.0654  106316231.784 8  82843878.29146
       512.050         398.998          50.000          41.000
  21933773.516    21933772.2674   21933774.8284  115262779.698 7  89815174.65044
     -1382.801       -1077.509          47.000          33.000
  22471254.834    22471253.2054   22471253.8684  118087280.647 7  92016067.37244
     -3222.929       -2511.380          45.000          32.000
  22129181.050    22129179.4684   22129181.5454  116289595.469 7  90615320.48144
      2728.948        2126.456          47.000          31.000
  25161038.381    25161038.2524   25161035.8264  132222215.228 5 103030279.97941
     -3345.239       -2606.703          39.000          17.000
  24498511.940    24498509.9354   24498513.7624  128740548.349 5 100317334.36441
      3104.010        2418.709          36.000          18.000
  24190584.577    24190584.5924   24190584.9984  127122308.451 5  99056412.79141
     -1464.308       -1141.010          38.000          18.000
  22507572.782    22507570.8674   22507573.4724  118278090.906 7  92164764.72243
      2170.344        1691.178          45.000          28.000
  22472908.455    22472907.511    22472910.599   120130644.796 6  93434943.584 5
     -3627.015       -2821.014          42.000          39.000
  19396699.422    19396700.870    19396702.084   104086788.299 7  80956460.998 7
      -707.582        -550.345          48.000          49.000
  20696689.032    20696690.592    20696689.943   110829813.882 8  86201020.518 6
      2598.253        2020.861          51.000          40.000
  23747817.208    23747818.720    23747822.884   127124016.135 5  98874210.856 2
     -4634.418       -3604.542          35.000          23.000
  19628733.409    19628734.168    19628738.057   105258282.121 7  81867591.455 6
      -787.324        -612.366          49.000          44.000
 05 10  2  0 25 30.0000000  0 16G 1G 3G 7G11G14G19G20G22G24G28G31R 2
                                R 3R 4R17R18
  21253229.693    21253228.8394   21253231.8074  111686498.146 8  87028449.80745
      1000.668         779.745          50.000          38.000
  25462046.064                                   133803988.849 3
     -3773.684                          29.000
  25047138.324    25047136.7834   25047138.4724  131623593.236 5 102563861.90541
      3088.147        2406.324          38.000          17.000
  20228430.480    20228429.5264   20228430.7484  106301084.956 8  82832075.56446
       497.734         387.844          50.000          40.000
  21941720.813    21941720.2654   21941722.1324  115304544.888 7  89847718.95544
     -1401.545       -1092.106          46.000          33.000
  22489681.449    22489680.2714   22489681.8664  118184117.729 6  92091524.81144
     -3232.837       -2519.084          44.000          32.000
  22113628.025    22113626.6544   22113629.7754  116207866.260 7  90551635.39644
      2719.658        2119.221          47.000          32.000
  25180135.588    25180133.1054   25180136.8104  132322573.319 5 103108481.01241
     -3345.323       -2606.728          39.000          19.000
  24480796.960    24480796.5724   24480798.5384  128647450.715 5 100244790.78941
      3102.537        2417.565          38.000          17.000
  24198988.749    24198986.0684   24198989.4514  127166462.485 5  99090818.49941
     -1479.223       -1152.642          39.000          17.000
  22495229.811    22495228.8604   22495230.9884  118213233.191 6  92114226.23543
      2153.515        1678.068          44.000          28.000
  22493273.444    22493271.142    22493274.751   120239500.997 6  93519609.513 5
     -3629.985       -2823.321          42.000          39.000
  19400697.877    19400698.913    19400700.543   104108243.435 7  80973148.331 7
      -722.767        -562.148          47.000          46.000
  20682168.712    20682170.423    20682170.082   110752061.832 8  86140546.719 6
      2585.274        2010.776          50.000          40.000
  23773797.638    23773796.519    23773799.916   127263082.792 5  98982373.800 2
     -4636.675       -3606.280          35.000          22.000
  19633214.781    19633215.961    19633220.255   105282314.860 7  81886283.568 6
      -814.813        -633.744          48.000          43.000
 05 10  2  0 26  0.0000000  0 16G 1G 3G 7G11G14G19G20G22G24G28G31R 2
                                R 3R 4R17R18
  21247572.927    21247571.8914   21247575.2384  111656769.866 8  87005284.92045
       981.212         764.582          51.000          39.000
  25483586.431                                   133917177.592 3
     -3772.229                          29.000
  25029528.033    25029524.5174   25029530.2584  131531049.648 5 102491750.00441
      3081.506        2401.209          37.000          15.000
  20225629.765    20225629.1884   20225630.2004  106286368.294 8  82820608.03246
       483.378         376.658          50.000          42.000
  21949775.694    21949774.5194   21949776.4004  115346871.143 7  89880700.45444
     -1420.241       -1106.678          47.000          33.000
  22508167.115    22508165.2394   22508165.8414  118281250.901 7  92167212.98844
     -3242.707       -2526.785          46.000          33.000
  22098129.063    22098127.8724   22098130.5384  116126416.065 7  90488167.73244
      2710.341        2111.955          48.000          33.000
  25199231.098    25199230.3064   25199234.2214  132422931.892 5 103186682.50841
     -3345.342       -2606.729          38.000          17.000
  24463089.596    24463087.9354   24463092.1794  128554395.932 6 100172280.55341
      3101.038        2416.408          40.000          17.000
  24207472.978    24207473.3184   24207474.6254  127211061.100 5  99125570.64841
     -1494.146       -1164.250          37.000          16.000
  22482984.136    22482983.2224   22482986.3354  118148882.488 7  92064082.83243
      2136.558        1664.857          45.000          28.000
  22513654.532    22513652.251    22513655.699   120348446.258 6  93604344.699 6
     -3632.980       -2825.653          42.000          40.000
  19404779.788    19404781.688    19404783.577   104130153.946 7  80990189.839 7
      -737.920        -573.934          47.000          49.000
  20667722.453    20667724.333    20667722.843   110674699.177 8  86080375.781 6
      2572.260        2000.651          50.000          40.000
  23799784.740    23799787.817    23799793.261   127402214.609 4  99090587.432 2
     -4638.846       -3607.988          34.000          22.000
  19637849.996    19637850.777    19637854.970   105307170.956 7  81905616.076 6
      -842.325        -655.142          48.000          44.000
 05 10  2  0 26 30.0000000  0 16G 1G 3G 7G11G14G19G20G22G24G28G31R 2
                                R 3R 4R17R18
  21242026.395    21242025.5584   21242029.1154  111627625.379 8  86982574.94445
       961.758         749.419          50.000          39.000
  25505116.542                                   134030316.278 4
     -3770.394                          30.000
  25011956.412    25011954.8334   25011957.8354  131438710.155 5 102419797.14441
      3074.548        2395.735          39.000          15.000
  20222911.358    20222910.6814   20222911.5934  106272082.142 7  82809475.96446
       469.031         365.479          49.000          41.000
  21957936.358    21957935.4004   21957937.5424  115389756.898 7  89914117.92844
     -1438.837       -1121.178          47.000          33.000
  22526706.096    22526704.5054   22526705.7644  118378678.624 6  92243130.68544
     -3252.513       -2534.425          44.000          32.000
  22082682.508    22082681.1754   22082683.5864  116045245.479 7  90424917.94444
      2701.012        2104.680          47.000          32.000
  25218331.070    25218330.8034   25218331.1614  132523289.734 5 103264883.48741
     -3345.192       -2606.628          39.000          17.000
  24445390.700    24445387.7004   24445390.6394  128461384.853 5 100099804.37641
      3099.615        2415.255          39.000          18.000
  24216044.410    24216044.1624   24216047.2604  127256102.109 5  99160667.51841
     -1508.734       -1175.678          38.000          15.000
  22470836.504    22470835.6944   22470837.2564  118085041.247 7  92014336.41343
      2119.541        1651.588          45.000          28.000
  22534049.431    22534048.719    22534052.717   120457478.737 6  93689147.725 6
     -3635.856       -2827.882          41.000          40.000
  19408947.033    19408949.291    19408951.298   104152518.644 7  81007584.598 7
      -753.010        -585.678          47.000          46.000
  20653348.341    20653349.802    20653349.136   110597727.185 7  86020508.699 6
      2559.244        1990.519          49.000          40.000
  23825790.416    23825789.350    23825794.615   127541410.449 4  99198850.872 2
     -4640.850       -3609.549          31.000          21.000
  19642638.922    19642639.995    19642644.106   105332851.249 7  81925589.624 6
      -869.703        -676.440          47.000          43.000
 05 10  2  0 27  0.0000000  0 16G 1G 3G 7G11G14G19G20G22G24G28G31R 2
                                R 3R 4R17R18
  21236591.670    21236590.5554   21236593.9874  111599065.456 7  86960320.47145
       942.244         734.214          49.000          38.000
  25526636.566                                   134143403.218 4
     -3768.661                          31.000
  24994423.751    24994422.3844   24994425.4974  131346576.887 5 102348004.95141
      3067.683        2390.391          39.000          17.000
  20220274.473    20220274.1734   20220275.1634  106258227.744 7  82798680.32746
       454.604         354.236          49.000          41.000
  21966204.240    21966202.4154   21966204.6544  115433200.337 7  89947969.95944
     -1457.380       -1135.621          45.000          33.000
  22545301.380    22545299.8744   22545301.6464  118476398.204 7  92319275.80744
     -3262.160       -2541.937          45.000          33.000
  22067289.385    22067288.5684   22067291.4644  115964355.543 7  90361886.83244
      2691.656        2097.385          46.000          32.000
  25237427.884    25237428.2654   25237427.1164  132623645.894 6 103343082.97042
     -3345.160       -2606.599          41.000          20.000
  24427697.598    24427695.5004   24427701.0704  128368418.392 5 100027363.02941
      3098.133        2414.138          37.000          17.000
  24224699.150    24224698.1484   24224700.4014  127301582.945 6  99196107.15441
     -1523.361       -1187.041          40.000          18.000
  22458785.252    22458784.4404   22458786.3814  118021711.418 7  91964988.49843
      2102.444        1638.262          45.000          29.000
  22554463.991    22554461.762    22554464.872   120566596.513 6  93774017.094 6
     -3638.644       -2830.061          42.000          40.000
  19413199.557    19413201.777    19413202.991   104175335.606 7  81025331.128 7
      -768.111        -597.429          47.000          46.000
  20639046.923    20639049.131    20639048.556   110521146.323 7  85960945.836 6
      2546.203        1980.378          49.000          40.000
  23851805.903    23851805.213    23851807.255   127680664.221 4  99307159.332 2
     -4642.898       -3611.164          31.000          20.000
  19647580.818    19647582.190    19647585.586   105359353.560 7  81946202.523 6
      -897.116        -697.757          48.000          43.000
 05 10  2  0 27 30.0000000  0 16G 1G 3G 7G11G14G19G20G22G24G28G31R 2
                                R 3R 4R17R18
  21231268.840    21231267.6774   21231270.7894  111571091.017 8  86938522.21845
       922.685         718.971          51.000          39.000
  25548148.084                                   134256436.268 4
     -3766.751                          31.000
  24976931.340    24976929.4604   24976931.5294  131254652.202 5 102276375.29041
      3060.670        2384.920          39.000          17.000
  20217720.743    20217719.9154   20217721.0934  106244805.493 8  82788221.42346
       440.196         343.008          51.000          41.000
  21974576.464    21974575.3294   21974577.7024  115477199.697 7  89982255.18244
     -1475.930       -1150.088          47.000          33.000
  22563951.893    22563950.4014   22563951.5064  118574407.397 7  92395646.58344
     -3271.790       -2549.451          46.000          32.000
  22051950.623    22051949.1274   22051952.1304  115883747.467 7  90299075.35944
      2682.220        2090.043          48.000          32.000
  25256526.035    25256525.1794   25256526.0284  132723999.351 6 103421280.43441
     -3345.078       -2606.534          41.000          15.000
  24410014.641    24410016.1414   24410017.7494  128275497.574 5  99954957.24741
      3096.531        2412.877          38.000          17.000
  24233437.271    24233436.8454   24233436.7034  127347501.697 6  99231887.96841
     -1537.910       -1198.340          40.000          18.000
  22446831.238    22446830.9854   22446833.3554  117958895.083 7  91916040.69243
      2085.292        1624.906          45.000          29.000
  22574892.053    22574890.745    22574893.395   120675797.604 6  93858951.270 6
     -3641.428       -2832.223          42.000          40.000
  19417536.052    19417537.749    19417538.990   104198604.102 7  81043428.846 7
      -783.067        -609.056          48.000          49.000
  20624819.408    20624821.551    20624820.217   110444957.567 8  85901687.923 6
      2533.038        1970.134          51.000          41.000
  23877830.918    23877832.143    23877832.436   127819976.502 4  99415513.312 2
     -4644.771       -3612.606          33.000          21.000
  19652676.240    19652677.351    19652681.549   105386677.189 7  81967454.224 6
      -924.487        -719.048          48.000          44.000
 05 10  2  0 28  0.0000000  0 16G 1G 3G 7G11G14G19G20G22G24G28G31R 2
                                R 3R 4R17R18
  21226056.983    21226056.0944   21226059.0394  111543703.006 8  86917180.91945
       903.176         703.771          51.000          39.000
  25569645.222                                   134369413.256 4
     -3764.958                          30.000
  24959477.589    24959476.9384   24959480.6424  131162938.458 5 102204910.06441
      3053.579        2379.417          37.000          16.000
  20215249.142    20215248.4164   20215249.2674  106231816.285 8  82778099.95846
       425.756         331.758          50.000          42.000
  21983054.420    21983053.5414   21983055.5174  115521753.698 7  90016972.58844
     -1494.329       -1164.420          47.000          33.000
  22582657.640    22582656.1764   22582656.5384  118672703.775 7  92472241.16544
     -3281.288       -2556.850          45.000          32.000
  22036664.448    22036663.6424   22036666.0854  115803422.179 7  90236484.24644
      2672.805        2082.713          47.000          32.000
  25275621.690    25275622.6044   25275620.9844  132824348.741 6 103499474.76841
     -3344.934       -2606.490          42.000          15.000
  24392343.685    24392340.4154   24392343.9394  128182623.650 6  99882587.95741
      3095.049        2411.725          40.000          19.000
  24242257.950    24242258.3604   24242258.9364  127393856.117 5  99268008.23941
     -1552.401       -1209.668          38.000          18.000
  22434975.779    22434975.0744   22434977.0264  117896594.464 7  91867494.74843
      2068.093        1611.509          45.000          29.000
  22595336.660    22595333.865    22595337.207   120785080.654 6  93943949.169 6
     -3644.128       -2834.317          41.000          40.000
  19421955.661    19421957.458    19421959.304   104222322.413 7  81061876.416 7
      -798.081        -620.730          48.000          49.000
  20610665.281    20610666.713    20610666.079   110369161.659 8  85842735.563 6
      2520.006        1960.009          51.000          40.000
  23903863.774    23903866.616    23903865.973   127959341.476 5  99523908.324 2
     -4646.299       -3613.792          35.000          21.000
  19657924.624    19657926.187    19657929.978   105414821.920 7  81989344.555 6
      -951.801        -740.283          49.000          44.000
 05 10  2  0 28 30.0000000  0 16G 1G 3G 7G11G14G19G20G22G24G28G31R 2
                                R 3R 4R17R18
  21220956.818    21220955.7484   21220958.8814  111516902.100 8  86896297.09946
       883.573         688.495          52.000          40.000
  25591135.914                                   134482332.523 4
     -3763.118                          30.000
  24942066.754    24942065.1044   24942069.7094  131071437.940 5 102133610.97141
      3046.414        2373.834          39.000          18.000
  20212860.002    20212859.1424   20212860.3334  106219261.048 8  82768316.65546
       411.269         320.469          50.000          42.000
  21991638.048    21991637.3384   21991639.5714  115566860.234 7  90052120.54344
     -1512.740       -1178.763          46.000          33.000
  22601416.761    22601415.2514   22601416.8224  118771284.730 7  92549057.48344
     -3290.775       -2564.245          45.000          32.000
  22021433.064    22021431.9474   22021434.7824  115723380.531 7  90174114.14444
      2663.307        2075.304          48.000          32.000
  25294715.539    25294716.0064   25294716.8514  132924693.393 6 103577665.30241
     -3344.688       -2606.273          40.000          18.000
  24374679.142    24374677.9704   24374679.8814  128089797.348 5  99810255.74241
      3093.434        2410.454          39.000          16.000
  24251163.308    24251160.7164   24251164.1744  127440643.993 5  99304466.24541
     -1566.764       -1220.844          38.000          17.000
  22423219.384    22423218.2274   22423220.7344  117834811.853 7  91819352.45543
      2050.741        1597.979          45.000          29.000
  22615795.385    22615792.547    22615795.819   120894443.445 6  94029009.102 6
     -3646.716       -2836.327          41.000          40.000
  19426459.015    19426461.070    19426462.621   104246489.118 7  81080672.733 7
      -813.056        -632.374          48.000          49.000
  20596583.967    20596585.769    20596585.019   110293759.489 8  85784089.455 6
      2506.784        1949.727          50.000          40.000
  23929907.888    23929907.868    23929907.975   128098754.944 4  99632341.030 2
     -4647.850       -3614.974          34.000          20.000
  19663325.613    19663327.503    19663331.943   105443787.566 7  82011873.375 6
      -979.226        -761.618          48.000          44.000
 05 10  2  0 29  0.0000000  0 16G 1G 3G 7G11G14G19G20G22G24G28G31R 2
                                R 3R 4R17R18
  21215968.752    21215967.5014   21215971.0004  111490689.046 7  86875871.36045
       863.978         673.231          48.000          38.000
  25612608.144                                   134595191.631 4
     -3760.791                          30.000
  24924694.883    24924693.0474   24924698.1974  130980152.654 5 102062479.57941
      3039.244        2368.237          39.000          18.000
  20210553.050    20210552.5294   20210553.8394  106207140.493 7  82758872.06445
       396.777         309.178          47.000          39.000
  22000326.318    22000325.2424   22000327.7414  115612517.541 7  90087697.67944
     -1531.067       -1193.037          45.000          33.000
  22620228.700    22620227.9704   22620229.1914  118870147.875 6  92626093.67844
     -3300.090       -2571.495          44.000          31.000
  22006256.040    22006255.1264   22006257.7124  115643623.342 7  90111965.69944
      2653.842        2067.934          45.000          33.000
  25313809.973    25313809.7554   25313809.1594  133025031.527 5 103655850.87141
     -3344.448       -2606.071          39.000          16.000
  24357020.474    24357022.7614   24357026.0894  127997019.565 5  99737961.43541
      3091.781        2409.163          37.000          17.000
  24260146.859    24260146.7904   24260148.3024  127487863.096 5  99341260.30541
     -1581.114       -1232.031          38.000          17.000
  22411562.186    22411560.9694   22411562.8094  117773549.344 6  91771615.42544
      2033.408        1584.469          44.000          30.000
  22636267.211    22636265.738    22636269.005   121003884.187 6  94114129.667 6
     -3649.305       -2838.347          40.000          40.000
  19431045.884    19431048.102    19431049.540   104271102.815 7  81099816.723 7
      -827.823        -643.864          46.000          45.000
  20582577.180    20582578.669    20582578.361   110218751.550 7  85725749.968 6
      2493.703        1939.545          48.000          40.000
  23955958.151    23955959.897    23955962.174   128238217.052 4  99740811.562 1
     -4649.307       -3616.121          33.000          19.000
  19668881.134    19668881.972    19668886.184   105473571.953 7  82035038.995 6
     -1006.438        -782.781          47.000          42.000
 05 10  2  0 29 30.0000000  0 16G 1G 3G 7G11G14G19G20G22G24G28G31R 2
                                R 3R 4R17R18
  21211092.382    21211091.4444   21211094.9334  111465064.717 7  86855904.36545
       844.308         657.897          49.000          39.000
  25634079.304                                   134707988.597 3
     -3758.683                          29.000
  24907365.821    24907363.1754   24907369.0484  130889085.254 5 101991517.96441
      3031.971        2362.556          38.000          16.000
  20208329.664    20208328.9834   20208330.0414  106195455.253 7  82749766.67546
       382.235         297.843          48.000          41.000
  22009120.175    22009118.5354   22009120.3144  115658724.180 7  90123702.85444
     -1549.377       -1207.317          46.000          33.000
  22639095.482    22639094.1304   22639095.5914  118969291.066 6  92703348.10444
     -3309.435       -2578.785          44.000          31.000
  21991133.198    21991132.2724   21991134.7914  115564151.794 7  90050039.84844
      2644.292        2060.482          47.000          33.000
  25332903.301    25332900.0694   25332899.0834  133125362.053 5 103734030.49041
     -3344.187       -2605.908          39.000          17.000
  24339376.930    24339376.0334   24339380.2054  127904291.423 5  99665705.77841
      3090.101        2407.887          39.000          19.000
  24269215.404    24269213.9284   24269215.0904  127535510.945 5  99378388.46941
     -1595.413       -1243.175          38.000          17.000
  22400003.845    22400002.3834   22400004.0634  117712808.981 7  91724285.28144
      2015.961        1570.875          45.000          30.000
  22656753.882    22656752.223    22656755.987   121113400.998 6  94199309.385 6
     -3651.814       -2840.301          40.000          40.000
  19435716.084    19435717.648    19435719.305   104296161.990 7  81119307.193 7
      -842.719        -655.451          47.000          46.000
  20568644.111    20568645.581    20568644.678   110144139.365 7  85667718.283 6
      2480.503        1929.276          48.000          40.000
  23982021.428    23982021.917    23982021.946   128377721.986 4  99849315.412 1
     -4650.867       -3617.332          34.000          19.000
  19674587.857    19674588.501    19674592.577   105504174.641 7  82058841.069 6
     -1033.726        -804.011          47.000          43.000
 05 10  2  0 30  0.0000000  0 16G 1G 3G 7G11G14G19G20G22G24G28G31R 2
                                R 3R 4R17R18
  21206328.422    21206327.7424   21206330.8414  111440029.797 8  86836396.64245
       824.654         642.588          50.000          39.000
  25655529.269                                   134820721.582 3
     -3756.620                          29.000
  24890077.562    24890077.9844   24890080.2784  130798238.098 5 101920727.91941
      3024.500        2356.724          38.000          17.000
  20206188.988    20206188.2924   20206189.3384  106184206.068 7  82741001.07246
       367.667         286.494          49.000          40.000
  22018016.760    22018015.7874   22018016.9484  115705478.322 7  90160134.65244
     -1567.581       -1221.483          46.000          33.000
  22658014.851    22658013.8614   22658014.6144  119068711.923 7  92780818.90044
     -3318.619       -2585.946          45.000          31.000
  21976065.293    21976063.5174   21976066.5094  115484966.521 7  89988337.05344
      2634.717        2053.019          48.000          33.000
  25351992.217    25351991.7584   25351993.1884  133225684.168 5 103812203.48541
     -3343.973       -2605.663          39.000          18.000
  24321741.987    24321739.5444   24321743.7904  127811613.948 5  99593489.56341
      3088.417        2406.574          39.000          18.000
  24278364.317    24278361.0154   24278364.5864  127583585.567 5  99415849.17141
     -1609.629       -1254.245          39.000          16.000
  22388544.337    22388544.1864   22388545.7634  117652593.073 7  91677363.77844
      1998.449        1557.229          45.000          30.000
  22677256.651    22677254.264    22677258.161   121222992.220 6  94284546.985 6
     -3654.258       -2842.198          40.000          40.000
  19440468.230    19440470.177    19440471.726   104321665.146 7  81139142.984 7
      -857.432        -666.893          47.000          46.000
  20554784.425    20554785.911    20554785.191   110069923.166 7  85609994.588 6
      2467.227        1918.951          49.000          40.000
  24008084.991    24008089.337    24008091.025   128517266.895 4  99957850.402 1
     -4652.112       -3618.333          32.000          19.000
  19680447.077    19680448.116    19680451.749   105535594.619 7  82083278.815 6
     -1060.945        -825.179          48.000          43.000
 05 10  2  0 30 30.0000000  0 16G 1G 3G 7G11G14G19G20G22G24G28G31R 2
                                R 3R 4R17R18
  21201677.264    21201676.1154   21201678.9984  111415584.963 8  86817348.71745
       805.004         627.280          50.000          39.000
  25676967.632                                   134933388.460 3
     -3754.352                          28.000
  24872832.044    24872830.1184   24872834.5214  130707613.201 5 101850111.12741
      3017.112        2350.999          38.000          17.000
  20204131.796    20204130.9284   20204131.8144  106173393.905 8  82732576.00546
       353.104         275.148          50.000          41.000
  22027017.360    22027016.1914   22027018.0094  115752777.640 7  90196991.27344
     -1585.745       -1235.647          47.000          33.000
  22676986.534    22676985.3324   22676986.1744  119168407.207 6  92858503.51744
     -3327.740       -2593.030          44.000          31.000
  21961051.216    21961049.8004   21961052.4594  115406068.600 7  89926858.15944
      2625.117        2045.543          47.000          33.000
  25371081.201    25371080.0614   25371081.9234  133325996.798 5 103890369.15241
     -3343.632       -2605.443          39.000          15.000
  24304114.134    24304113.7824   24304117.0034  127718988.051 5  99521313.55641
      3086.637        2405.230          37.000          15.000
  24287592.939    24287591.6624   24287593.2014  127632084.544 6  99453640.54441
     -1623.665       -1265.203          41.000          16.000
  22377185.989    22377184.8684   22377186.7474  117592903.756 7  91630852.60444
      1980.866        1543.547          45.000          30.000
  22697767.064    22697767.976    22697771.909   121332655.834 5  94369840.873 6
     -3656.594       -2844.012          39.000          40.000
  19445303.235    19445305.143    19445306.751   104347610.012 7  81159322.319 7
      -872.184        -678.364          47.000          46.000
  20540998.529    20541000.513    20540999.977   109996103.606 8  85552579.382 6
      2454.007        1908.671          50.000          40.000
  24034161.320    24034163.747    24034165.695   128656847.143 4 100066412.852 1
     -4653.213       -3619.168          31.000          17.000
  19686458.202    19686459.724    19686463.219   105567831.217 7  82108351.722 6
     -1088.182        -846.366          48.000          43.000
 05 10  2  0 31  0.0000000  0 16G 1G 3G 7G11G14G19G20G22G24G28G31R 2
                                R 3R 4R17R18
  21197137.186    21197136.2204   21197139.7644  111391730.838 8  86798761.09445
       785.268         611.899          50.000          39.000
  25698394.724                                   135045986.957 3
     -3752.061                          28.000
  24855630.675    24855628.5104   24855633.1054  130617213.034 5 101779669.40641
      3009.600        2345.142          39.000          17.000
  20202157.230    20202156.6814   20202157.6024  106163019.351 8  82724491.92846
       338.476         263.748          50.000          40.000
  22036120.690    22036120.2914   22036122.5794  115800620.739 7  90234271.60744
     -1603.803       -1249.713          46.000          33.000
  22696009.185    22696007.7694   22696009.9224  119268375.050 7  92936400.50644
     -3336.757       -2600.072          45.000          31.000
  21946092.036    21946091.2704   21946094.1214  115327458.995 7  89865603.94644
      2615.491        2038.048          48.000          34.000
  25390167.501    25390167.5374   25390166.9344  133426298.833 5 103968526.51641
     -3343.208       -2605.120          38.000          16.000
  24286499.381    24286497.7224   24286501.7554  127626414.786 5  99449178.55641
      3084.885        2403.810          38.000          16.000
  24296902.313    24296902.1604   24296902.2934  127681005.898 5  99491761.06641
     -1637.744       -1276.186          39.000          16.000
  22365927.838    22365926.5874   22365928.5574  117533742.976 7  91584753.29443
      1963.209        1529.786          45.000          29.000
  22718297.131    22718297.213    22718300.563   121442390.593 6  94455190.118 6
     -3659.024       -2845.906          40.000          40.000
  19450220.384    19450222.151    19450224.020   104373996.392 7  81179845.064 7
      -886.895        -689.808          47.000          46.000
  20527287.934    20527289.453    20527288.674   109922681.864 7  85495473.602 6
      2440.812        1898.402          49.000          40.000
  24060237.395    24060244.083    24060247.695   128796458.663 4 100174999.570 1
     -4654.254       -3620.005          31.000          17.000
  19692621.685    19692623.166    19692627.314   105600883.453 7  82134059.002 6
     -1115.350        -867.498          48.000          43.000
 05 10  2  0 31 30.0000000  0 16G 1G 3G 7G11G14G19G20G22G24G28G31R 2
                                R 3R 4R17R18
  21192710.650    21192709.6644   21192712.8784  111368468.230 7  86780634.40045
       765.557         596.540          49.000          39.000
  25719807.226                                   135158515.184 3
     -3749.835                          27.000
  24838470.560    24838470.5194   24838473.1994  130527039.742 6 101709404.48741
      3001.950        2339.187          40.000          19.000
  20200266.447    20200265.7644   20200266.6814  106153083.030 7  82716749.34146
       323.899         252.391          49.000          41.000
  22045328.413    22045327.7074   22045329.7954  115849005.629 7  90271974.12744
     -1621.858       -1263.782          46.000          33.000
  22715084.918    22715082.9784   22715084.0094  119368613.084 7  93014508.05844
     -3345.754       -2607.085          45.000          31.000
  21931188.318    21931187.1404   21931189.5214  115249138.588 7  89804575.06844
      2605.844        2030.534          48.000          34.000
  25409253.269    25409252.8314   25409253.3954  133526589.034 5 104046674.70041
     -3342.775       -2604.718          39.000          14.000
  24268896.149    24268892.2234   24268896.8454  127533895.234 6  99377085.40641
      3083.074        2402.403          40.000          18.000
  24306291.228    24306291.4554   24306292.5044  127730346.792 5  99530208.48541
     -1651.682       -1287.003          38.000          15.000
  22354769.812    22354769.2384   22354772.3934  117475112.851 7  91539067.49043
      1945.462        1515.936          45.000          29.000
  22738840.423    22738839.308    22738842.161   121552194.021 5  94540592.781 6
     -3661.295       -2847.674          39.000          40.000
  19455219.409    19455221.097    19455223.013   104400822.435 7  81200709.772 7
      -901.503        -701.169          47.000          46.000
  20513651.585    20513653.241    20513652.027   109849658.413 8  85438677.598 6
      2427.458        1888.022          50.000          40.000
  24086328.834    24086330.160    24086332.088   128936100.783 3 100283610.123 1
     -4655.159       -3620.631          29.000          17.000
  19698937.102    19698938.568    19698942.524   105634749.768 7  82160399.460 6
     -1142.455        -888.579          48.000          43.000
 05 10  2  0 32  0.0000000  0 16G 1G 3G 7G11G14G19G20G22G24G28G31R 2
                                R 3R 4R17R18
  21188396.266    21188395.3624   21188399.0014  111345797.807 8  86762969.14445
       745.820         581.163          51.000          39.000
  25741207.509                                   135270970.988 3
     -3747.277                          27.000
  24821354.981    24821355.5694   24821356.8644  130437095.840 5 101639318.32441
      2994.308        2333.237          38.000          18.000
  20198459.408    20198458.5824   20198459.5274  106143585.666 8  82709348.78546
       309.249         240.974          50.000          41.000
  22054638.799    22054637.9974   22054639.7644  115897930.634 7  90310097.51044
     -1639.788       -1277.750          47.000          33.000
  22734210.476    22734208.5304   22734209.3954  119469118.664 7  93092824.07944
     -3354.625       -2613.984          45.000          31.000
  21916340.187    21916338.8314   21916340.5104  115171108.285 7  89743772.24144
      2596.162        2022.984          49.000          34.000
  25428335.370    25428334.5414   25428336.8854  133626866.480 5 104124812.96541
     -3342.399       -2604.459          39.000          14.000
  24251295.953    24251296.8674   24251299.5944  127441430.319 5  99305034.85141
      3081.265        2400.964          38.000          19.000
  24315758.299    24315758.2094   24315760.0234  127780105.096 5  99568981.21741
     -1665.472       -1297.833          38.000          15.000
  22343714.799    22343714.6394   22343717.0654  117417015.638 7  91493796.92044
      1927.667        1502.094          46.000          30.000
  22759389.923    22759391.109    22759395.125   121662064.727 5  94626047.719 6
     -3663.446       -2849.337          39.000          40.000
  19460300.202    19460301.879    19460303.450   104428086.177 7  81221914.912 7
      -916.050        -712.479          47.000          48.000
  20500089.608    20500091.318    20500090.108   109777034.572 8  85382192.402 6
      2414.117        1877.645          51.000          41.000
  24112421.945    24112421.938    24112422.124   129075768.891 3 100392240.871 1
     -4656.037       -3621.388          28.000          18.000
  19705404.140    19705405.435    19705409.726   105669429.125 7  82187372.275 6
     -1169.536        -909.638          48.000          44.000
 05 10  2  0 32 30.0000000  0 16G 1G 3G 7G11G14G19G20G22G24G28G31R 2
                                R 3R 4R17R18
  21184195.466    21184194.5784   21184197.5644  111323720.149 8  86745765.77945
       726.050         565.755          52.000          39.000
  25762589.599                                   135383352.569 3
     -3744.888                          26.000
  24804282.569    24804282.0454   24804285.6234  130347383.536 5 101569412.64941
      2986.489        2327.141          39.000          17.000
  20196735.656    20196734.9314   20196735.9594  106134528.129 8  82702290.96346
       294.582         229.550          50.000          41.000
  22064051.295    22064050.1254   22064052.0904  115947393.706 7  90348640.16244
     -1657.723       -1291.728          48.000          33.000
  22753385.390    22753384.5744   22753385.3394  119569889.383 6  93171346.72344
     -3363.403       -2620.837          44.000          30.000
  21901546.604    21901545.4764   21901547.7604  115093369.118 7  89683196.29244
      2586.446        2015.413          49.000          34.000
  25447415.527    25447414.2284   25447413.4414  133727130.046 5 104202940.35441
     -3341.879       -2604.030          38.000          14.000
  24233710.825    24233711.2894   24233715.0004  127349021.134 5  99233027.73641
      3079.376        2399.516          38.000          17.000
  24325308.354    24325304.8204   24325307.4964  127830278.614 5  99608077.36541
     -1679.345       -1308.554          38.000          15.000
  22332760.937    22332760.5784   22332762.6504  117359453.396 7  91448943.21544
      1909.808        1488.152          45.000          30.000
  22779956.748    22779958.015    22779960.822   121772000.978 6  94711553.666 6
     -3665.579       -2851.005          40.000          40.000
  19465461.990    19465463.959    19465465.423   104455787.253 7  81243460.196 7
      -930.618        -723.811          48.000          48.000
  20486601.386    20486603.285    20486602.734   109704810.361 8  85326018.036 6
      2400.802        1867.293          51.000          41.000
  24138525.169    24138519.289    24138520.922   129215459.048 3 100500888.715 1
     -4656.688       -3621.879          27.000          17.000
  19712022.561    19712024.026    19712028.338   105704920.648 7  82214976.782 6
     -1196.533        -930.637          49.000          44.000
 05 10  2  0 33  0.0000000  0 15G 1G 7G11G14G19G20G22G24G28G31R 2R 3
                                R 4R17R18
  21180107.208    21180106.1844   21180109.2724  111302235.828 8  86729024.75645
       706.232         550.308          51.000          39.000
  24787256.493    24787254.6024   24787254.5744  130257905.136 5 101499689.12041
      2978.675        2321.045          38.000          16.000
  20195095.625    20195095.2324   20195096.2794  106125910.942 8  82695576.26646
       279.883         218.092          50.000          41.000
  22073565.650    22073564.6104   22073566.7794  115997393.067 7  90387600.70544
     -1675.574       -1305.646          46.000          32.000
  22772612.548    22772611.0564   22772611.6774  119670922.982 6  93250074.18144
     -3372.153       -2627.655          44.000          31.000
  21886808.167    21886807.4874   21886810.0794  115015921.766 7  89622847.71444
      2576.680        2007.803          48.000          34.000
  25466489.357    25466488.8754   25466492.7674  133827378.755 5 104281056.24441
     -3341.388       -2603.652          36.000          13.000
  24216137.590    24216136.6864   24216140.7094  127256668.780 6  99161064.86141
      3077.412        2398.011          40.000          17.000
  24334931.425    24334932.4664   24334934.8884  127880864.791 5  99647495.15841
     -1693.128       -1319.317          38.000          16.000
  22321907.938    22321908.5274   22321911.0054  117302428.013 6  91404507.85243
      1891.866        1474.178          44.000          29.000
  22800535.356    22800534.416    22800538.868   121882001.173 5  94797109.363 6
     -3667.758       -2852.704          39.000          40.000
  19470705.342    19470707.103    19470708.769   104483923.125 7  81265343.651 7
      -945.095        -735.074          48.000          49.000
  20473189.663    20473191.199    20473190.486   109632987.022 8  85270155.452 6
      2387.384        1856.851          51.000          41.000
  24164619.451    24164618.392    24164617.040   129355168.063 3 100609551.312 1
     -4657.164       -3622.238          28.000          17.000
  19718792.588    19718793.724    19718797.964   105741222.560 7  82243211.588 6
     -1223.560        -951.657          49.000          44.000
 05 10  2  0 33 30.0000000  0 16G 1G 7G11G14G19G20G22G24G25G28G31R 2
                                R 3R 4R17R18
  21176131.262    21176130.6314   21176134.1234  111281345.353 8  86712746.47445
       686.423         534.873          51.000          39.000
  24770272.611    24770272.7484   24770278.3504  130168662.850 5 101430149.66741
      2970.754        2314.860          38.000          16.000
  20193539.904    20193539.2674   20193540.3744  106117734.781 8  82689205.22446
       265.142         206.607          50.000          42.000
  22083181.730    22083181.1344   22083182.8224  116047926.696 7  90426977.55644
     -1693.339       -1319.474          47.000          32.000
  22791887.982    22791885.9144   22791887.7534  119772216.726 6  93329004.35744
     -3380.781       -2634.380          44.000          31.000
  21872126.320    21872125.3864   21872127.7274  114938767.094 7  89562727.20444
      2566.888        2000.176          48.000          33.000
  25485565.199    25485563.8484   25485563.3824  133927611.534 5 104359159.58241
     -3340.871       -2603.275          39.000          15.000
  24198574.558    24198573.8604   24198578.1904  127164374.031 5  99089146.87441
      3075.503        2396.490          39.000          18.000
  24875836.405                                   130723396.095 5
      2740.892                          36.000
  24344636.608    24344634.5114   24344639.1424  127931861.320 5  99687232.65341
     -1706.706       -1329.894          39.000          16.000
  22311160.545    22311159.8984   22311162.2244  117245941.393 7  91360492.30944
      1873.874        1460.157          45.000          30.000
  22821126.074    22821125.025    22821128.591   121992063.425 6  94882713.300 6
     -3669.760       -2854.267          41.000          40.000
  19476029.241    19476031.231    19476032.630   104512492.798 7  81287564.505 7
      -959.523        -746.291          48.000          48.000
  20459852.415    20459853.797    20459853.379   109561565.186 8  85214605.151 6
      2373.990        1846.437          51.000          41.000
  24190719.420    24190719.172    24190718.821   129494895.940 3 100718227.703 1
     -4657.758       -3622.710          26.000          17.000
  19725713.053    19725714.477    19725718.592   105778333.722 7  82272075.813 6
     -1250.528        -972.635          49.000          44.000
 05 10  2  0 34  0.0000000  0 15G 1G 7G11G14G19G20G22G24G25G28G31R 2
                                R 3R 4R18
  21172269.714    21172268.7104   21172272.0214  111261049.365 8  86696931.42845
       666.652         519.467          51.000          39.000
  24753338.552    24753337.1214   24753339.4484  130079659.186 6 101360796.19341
      2962.782        2308.648          41.000          19.000
  20192068.347    20192067.3614   20192068.5004  106110000.279 8  82683178.34046
       250.470         195.168          50.000          41.000
  22092899.668    22092898.8464   22092900.5324  116098992.825 7  90466769.34244
     -1711.028       -1333.264          47.000          32.000
  22811211.949    22811210.2644   22811212.1854  119873768.474 6  93408135.57444
     -3389.329       -2641.035          44.000          30.000
  21857500.431    21857499.4264   21857501.7684  114861906.174 7  89502835.59044
      2557.126        1992.565          49.000          34.000
  25504635.419    25504632.8814   25504637.6634  134027827.200 5 104437249.75541
     -3340.136       -2602.711          36.000          13.000
  24181022.948    24181021.9534   24181027.8104  127072138.242 5  99017274.88141
      3073.528        2394.943          38.000          19.000
  24860202.187                                   130641227.398 5
      2736.970                          37.000
  24354419.778    24354417.0534   24354421.4284  127983265.883 5  99727288.13741
     -1720.258       -1340.450          38.000          16.000
  22300514.307    22300513.7654   22300515.8604  117189995.532 7  91316898.11543
      1855.828        1446.102          45.000          29.000
  22841726.323    22841725.661    22841728.719   122102186.020 6  94968364.220 5
     -3671.689       -2855.760          40.000          39.000
  19481433.903    19481435.861    19481437.190   104541494.632 7  81310121.485 7
      -973.885        -757.463          48.000          48.000
  20446589.921    20446591.356    20446590.204   109490545.482 8  85159367.625 6
      2360.664        1836.070          51.000          41.000
  19732784.639    19732785.696    19732789.807   105816253.496 7  82301568.959 6
     -1277.389        -993.521          48.000          44.000
 05 10  2  0 34 30.0000000  0 15G 1G 7G11G14G19G20G22G24G25G28G31R 2
                                R 3R 4R18
  21168520.393    21168519.3284   21168522.9144  111241348.219 7  86681579.89945
       646.783         503.987          49.000          38.000
  24736445.401    24736445.5244   24736446.3684  129990896.387 5 101291630.29341
      2954.756        2302.420          38.000          17.000
  20190680.137    20190679.8714   20190680.9394  106102708.508 7  82677496.43845
       235.651         183.626          48.000          39.000
  22102717.712    22102717.1824   22102719.1614  116150589.280 7  90506974.37844
     -1728.692       -1347.027          46.000          32.000
  22830585.548    22830584.6704   22830585.0004  119975575.371 6  93487465.60844
     -3397.766       -2647.602          44.000          30.000
  21842930.168    21842928.9954   21842931.4294  114785339.917 7  89443173.59744
      2547.275        1984.894          47.000          34.000
  25523701.564    25523700.0564   25523701.9414  134128024.807 4 104515325.69441
     -3339.726       -2602.373          31.000           3.000
  24163483.752    24163481.0734   24163484.8904  126979962.455 5  98945449.59141
      3071.524        2393.385          39.000          19.000
  24844589.188    24844588.6014   24844591.1824  130559180.187 5 101734456.47341
      2732.762        2129.412          37.000          12.000
  24364278.859    24364278.7364   24364281.6274  128035075.965 5  99767659.62341
     -1733.827       -1351.052          38.000          16.000
  22289970.940    22289970.6214   22289972.8664  117134592.492 6  91273726.91743
      1837.692        1431.961          44.000          29.000
  22862338.513    22862336.490    22862340.381   122212367.063 6  95054060.557 5
     -3673.626       -2857.263          40.000          39.000
  19486919.064    19486920.528    19486922.115   104570927.575 7  81333013.777 7
      -988.255        -768.641          46.000          45.000
  20433402.676    20433404.256    20433403.236   109419928.848 7  85104443.589 6
      2347.162        1825.568          48.000          40.000
  19740006.672    19740007.458    19740011.733   105854979.926 7  82331689.510 6
     -1304.315       -1014.469          47.000          42.000
 05 10  2  0 35  0.0000000  0 14G 1G 7G11G14G19G20G24G25G28G31R 2R 3
                                R 4R18
  21164885.329    21164883.9094   21164886.9284  111222242.509 8  86666692.34246
       626.907         488.495          51.000          40.000
  24719600.993    24719597.4834   24719604.8264  129902376.627 5 101222653.93141
      2946.543        2295.977          37.000          17.000
  20189377.330    20189376.5934   20189377.6564  106095859.671 8  82672159.68146
       220.875         172.114          50.000          41.000
  22112636.570    22112636.0204   22112638.4194  116202714.329 7  90547591.30844
     -1746.293       -1360.751          46.000          32.000
  22850006.367    22850005.4924   22850006.7984  120077634.820 6  93566992.44644
     -3406.179       -2654.157          44.000          30.000
  21828415.994    21828415.0854   21828417.1974  114709069.218 7  89383741.90044
      2537.428        1977.210          48.000          34.000
  24145953.931    24145952.2554   24145957.1394  126887847.329 6  98873671.56341
      3069.446        2391.787          40.000          18.000
  24828996.906    24828998.7564   24829003.5214  130477257.281 5 101670620.45641
      2728.708        2126.216          36.000          12.000
  24374213.856    24374214.2154   24374216.7564  128087289.396 5  99808345.33341
     -1747.126       -1361.387          37.000          14.000
  22279531.172    22279531.2714   22279533.6684  117079734.356 6  91230980.31443
      1819.502        1417.798          44.000          29.000
  22882964.242    22882961.275    22882962.987   122322605.279 6  95139801.372 5
     -3675.528       -2858.747          41.000          39.000
  19492483.101    19492484.975    19492486.831   104600788.862 7  81356239.217 7
     -1002.563        -779.769          47.000          48.000
  20420290.702    20420292.309    20420291.438   109349715.644 8  85049833.336 6
      2333.686        1815.089          50.000          41.000
  19747378.257    19747379.285    19747383.349   105894512.012 7  82362436.674 6
     -1331.170       -1035.354          48.000          44.000
 05 10  2  0 35 30.0000000  0 14G 1G 7G11G14G19G20G24G25G28G31R 2R 3
                                R 4R18
  21161362.487    21161361.6474   21161364.4704  111203732.707 8  86652269.12445
       607.064         473.044          51.000          39.000
  24702800.878    24702801.3924   24702805.6384  129814102.333 5 101153868.75441
      2938.302        2289.574          37.000          18.000
  20188158.469    20188157.7234   20188158.9394  106089454.552 7  82667168.67646
       206.113         160.611          49.000          41.000
  22122656.104    22122655.3984   22122657.4834  116255366.037 7  90588618.61244
     -1763.802       -1374.382          47.000          32.000
  22869475.863    22869474.3864   22869476.1744  120179944.817 7  93646714.49544
     -3414.468       -2660.616          45.000          31.000
  21813959.274    21813957.8554   21813960.2924  114633094.862 7  89324541.11444
      2527.531        1969.509          49.000          34.000
  24128437.619    24128436.8694   24128437.3754  126795794.305 6  98801941.94641
      3067.385        2390.192          41.000          18.000
  24813431.839    24813432.2424   24813433.1534  130395461.790 5 101606883.74241
      2724.442        2122.963          36.000          13.000
  24384227.504    24384226.8764   24384228.9364  128139903.514 5  99849343.32541
     -1760.466       -1371.799          38.000          13.000
  22269196.293    22269196.3054   22269198.8604  117025423.036 7  91188659.80444
      1801.228        1403.565          45.000          30.000
  22903593.037    22903591.411    22903595.158   122432898.595 6  95225585.053 5
     -3677.295       -2860.116          40.000          38.000
  19498128.669    19498129.921    19498131.226   104631078.208 7  81379797.602 7
     -1016.757        -790.805          48.000          49.000
  20407254.742    20407256.042    20407254.532   109279906.364 8  84995537.237 6
      2320.242        1804.639          51.000          41.000
  19754899.539    19754901.249    19754905.538   105934848.679 7  82393809.631 6
     -1357.935       -1056.168          48.000          44.000
 05 10  2  0 36  0.0000000  0 14G 1G 7G11G14G19G20G24G25G28G31R 2R 3
                                R 4R18
  21157953.677    21157952.6044   21157955.7694  111185819.194 8  86638310.54745
       587.183         457.543          50.000          38.000
  24686049.736    24686051.2904   24686054.2824  129726075.865 5 101085276.68941
      2930.089        2283.180          38.000          17.000
  20187024.009    20187023.2594   20187024.4814  106083493.767 7  82662523.90946
       191.291         149.057          49.000          40.000
  22132775.661    22132774.6634   22132776.1904  116308542.155 7  90630054.56244
     -1781.217       -1387.957          45.000          32.000
  22888991.179    22888989.8864   22888991.5814  120282502.672 6  93726629.68444
     -3422.726       -2667.060          44.000          30.000
  21799557.366    21799556.8864   21799559.6344  114557417.649 7  89265571.87344
      2517.623        1961.784          48.000          34.000
  24110932.514    24110930.6554   24110932.6194  126703804.304 6  98730261.44141
      3065.245        2388.492          40.000          19.000
  24797894.812    24797892.1674   24797897.3474  130313796.529 5 101543248.44441
      2719.976        2119.464          37.000          12.000
  24394314.417    24394313.4574   24394317.0284  128192915.803 5  99890651.60541
     -1773.589       -1382.013          37.000          14.000
  22258967.121    22258965.8234   22258968.4864  116971660.459 7  91146766.88844
      1782.929        1389.298          45.000          30.000
  22924233.884    22924234.774    22924238.307   122543245.841 6  95311410.650 5
     -3679.121       -2861.539          41.000          38.000
  19503851.907    19503853.603    19503855.213   104661794.245 7  81403687.854 7
     -1030.890        -801.804          47.000          46.000
  20394294.046    20394295.527    20394293.812   109210502.200 8  84941556.235 6
      2306.707        1794.108          50.000          41.000
  19762571.969    19762573.003    19762577.315   105975987.826 7  82425806.732 6
     -1384.706       -1076.993          48.000          43.000
 05 10  2  0 36 30.0000000  0 15G 1G 7G11G14G19G20G23G24G25G28G31R 2
                                R 3R 4R18
  21154658.174    21154657.4634   21154660.3654  111168502.423 7  86624816.97345
       567.262         442.024          49.000          38.000
  24669348.370    24669347.8834   24669350.8414  129638299.488 5 101016879.46441
      2921.688        2276.671          39.000          17.000
  20185974.283    20185973.7864   20185974.8924  106077978.159 7  82658226.02446
       176.430         137.482          48.000          40.000
  22142993.873    22142993.1734   22142995.0454  116362240.924 7  90671897.75444
     -1798.645       -1401.546          45.000          32.000
  22908555.553    22908553.7484   22908554.2204  120385305.642 6  93806735.89844
     -3430.841       -2673.383          43.000          30.000
  21785213.795    21785212.7434   21785215.0074  114482038.465 7  89206834.86944
      2507.659        1954.020          48.000          34.000
  25462266.400                                   133805105.148 4
      3905.113                          32.000
  24093438.097    24093437.8974   24093442.1024  126611878.455 6  98658630.93741
      3063.096        2386.821          40.000          19.000
  24782378.578    24782377.3104   24782379.4024  130232264.477 5 101479716.97241
      2715.490        2115.966          38.000          14.000
  24404479.709    24404477.5584   24404480.4284  128246323.933 5  99932268.31141
     -1786.787       -1392.307          39.000          15.000
  22248841.264    22248839.5914   22248842.0084  116918448.469 7  91105302.98944
      1764.527        1374.960          46.000          30.000
  22944888.041    22944887.370    22944891.102   122653645.026 6  95397276.672 5
     -3680.834       -2862.867          41.000          38.000
  19509654.468    19509656.467    19509658.318   104692934.832 7  81427908.308 7
     -1045.127        -812.871          47.000          46.000
  20381408.304    20381409.983    20381409.324   109141503.626 7  84887890.703 6
      2293.183        1783.592          49.000          41.000
  19770393.424    19770394.432    19770398.422   106017927.735 7  82458426.644 6
     -1411.353       -1097.714          48.000          43.000
 05 10  2  0 37  0.0000000  0 15G 1G 7G11G14G19G20G23G24G25G28G31R 2
                                R 3R 4R18
  21151476.389    21151475.6614   21151478.8544  111151782.857 8  86611788.74545
       547.357         426.506          50.000          39.000
  24652693.011    24652691.2994   24652696.8774  129550775.465 5 100948678.93541
      2913.203        2270.041          38.000          18.000
  20185009.862    20185008.9894   20185010.1924  106072907.872 7  82654275.14846
       161.578         125.904          48.000          41.000
  22153311.118    22153310.7604   22153312.3654  116416460.352 7  90714146.65244
     -1815.972       -1415.046          47.000          32.000
  22928162.451    22928162.3294   22928163.7384  120488351.515 6  93887031.36744
     -3438.910       -2679.671          44.000          30.000
  21770926.190    21770925.1754   21770927.5484  114406958.341 7  89148330.89044
      2497.693        1946.243          48.000          34.000
  25439969.782                                   133687933.277 5
      3906.310                          35.000
  24075959.760    24075958.8594   24075961.6114  126520017.889 6  98587051.28642
      3060.856        2385.063          41.000          20.000
  24766890.964    24766886.9024   24766891.8294  130150868.392 5 101416291.51241
      2710.890        2112.389          37.000          13.000
  24414715.864    24414715.3474   24414717.0304  128300125.581 5  99974191.67441
     -1799.960       -1402.564          38.000          15.000
  22238819.420    22238818.9424   22238821.7774  116865788.985 7  91064269.62744
      1746.091        1360.588          45.000          30.000
  22965549.107    22965548.931    22965553.626   122764094.531 6  95483181.829 5
     -3682.438       -2864.117          41.000          39.000
  19515536.605    19515538.668    19515540.422   104724498.885 7  81452458.127 7
     -1059.221        -823.839          47.000          48.000
  20368599.600    20368601.105    20368599.818   109072911.032 8  84834540.917 6
      2279.630        1773.043          50.000          41.000
  19778363.713    19778364.418    19778368.656   106060667.724 7  82491668.841 6
     -1438.016       -1118.454          48.000          44.000
 05 10  2  0 37 30.0000000  0 15G 1G 7G11G14G19G20G23G24G25G28G31R 2
                                R 3R 4R18
  21148409.029    21148408.0424   21148410.9984  111135660.805 7  86599226.11745
       527.436         410.976          49.000          39.000
  24636086.054    24636085.9634   24636089.4014  129463506.026 5 100880676.82641
      2904.701        2263.382          39.000          18.000
  20184129.792    20184129.0354   20184130.3334  106068284.056 7  82650672.17546
       146.675         114.287          48.000          40.000
  22163727.534    22163727.1964   22163728.4624  116471198.119 7  90756799.46844
     -1833.194       -1428.470          45.000          32.000
  22947817.255    22947816.3814   22947818.4414  120591637.829 6  93967514.19644
     -3446.893       -2685.888          43.000          30.000
  21756695.665    21756694.9604   21756697.6154  114332177.949 7  89090060.47845
      2487.662        1938.427          47.000          35.000
  25417664.519                                   133570727.107 5
      3907.395                          36.000
  24058489.742    24058488.0704   24058491.8204  126428223.348 5  98515523.10041
      3058.745        2383.442          39.000          18.000
  24751426.679    24751424.4904   24751425.0134  130069611.198 5 101352974.21241
      2706.302        2108.823          36.000          13.000
  24425028.514    24425028.3624   24425030.2694  128354318.092 5 100016419.56441
     -1812.904       -1412.655          38.000          16.000
  22228904.743    22228904.0644   22228906.7384  116813683.984 7  91023668.32644
      1727.585        1346.157          45.000          31.000
  22986222.713    22986221.099    22986223.686   122874592.664 6  95569124.812 5
     -3684.022       -2865.358          41.000          38.000
  19521497.860    19521499.172    19521501.204   104756484.439 7  81477335.782 7
     -1073.177        -834.697          46.000          46.000
  20355866.511    20355868.300    20355866.539   109004725.430 7  84781507.687 6
      2266.050        1762.481          49.000          41.000
  19786482.495    19786483.698    19786487.750   106104205.874 7  82525531.833 6
     -1464.530       -1139.082          48.000          43.000
 05 10  2  0 38  0.0000000  0 15G 1G 7G11G14G19G20G23G24G25G28G31R 2
                                R 3R 4R18
  21145455.144    21145454.0744   21145457.1654  111120136.762 8  86587129.46746
       507.494         395.446          52.000          40.000
  24619530.848    24619530.1304   24619531.2884  129376493.710 6 100812875.02841
      2896.080        2256.655          41.000          19.000
  20183334.734    20183334.2074   20183335.3864  106064106.863 7  82647417.21846
       131.780         102.683          49.000          41.000
  22174242.488    22174241.1924   22174243.6144  116526452.473 7  90799854.80644
     -1850.385       -1441.850          46.000          32.000
  22967518.335    22967516.9354   22967517.9364  120695162.014 6  94048182.35743
     -3454.736       -2692.002          44.000          29.000
  21742523.553    21742522.3584   21742524.4274  114257698.356 7  89032024.44044
      2477.623        1930.606          49.000          34.000
  25395355.024    25395355.8144   25395355.8624  133453488.856 5 103989756.32041
      3908.401        3045.479          37.000          14.000
  24041035.400    24041035.6754   24041036.6344  126336496.237 6  98444047.44941
      3056.419        2381.635          40.000          18.000
  24735991.190    24735987.5664   24735994.3744  129988495.589 5 101289767.20641
      2701.452        2105.064          37.000          13.000
  24435413.411    24435414.6894   24435418.2134  128408898.876 5 100058950.00041
     -1825.828       -1422.731          38.000          17.000
  22219095.619    22219094.3804   22219097.1774  116762135.242 7  90983500.47744
      1709.017        1331.690          45.000          31.000
  23006901.422    23006899.846    23006903.257   122985137.980 6  95655104.495 5
     -3685.591       -2866.568          42.000          37.000
  19527536.381    19527537.958    19527539.955   104788890.352 7  81502540.379 7
     -1087.200        -845.597          48.000          49.000
  20343209.459    20343210.987    20343209.803   108936947.823 8  84728791.782 6
      2252.444        1751.899          51.000          41.000
  19794750.131    19794751.044    19794755.113   106148540.106 7  82560014.000 6
     -1491.107       -1159.748          49.000          44.000
 05 10  2  0 38 30.0000000  0 15G 1G 7G11G14G19G20G23G24G25G28G31R 2
                                R 3R 4R18
  21142614.464    21142613.6294   21142616.9014  111105211.000 8  86575499.01346
       487.567         379.922          51.000          40.000
  24603021.005    24603019.7284   24603021.3784  129289740.690 6 100745275.25341
      2887.419        2249.939          40.000          18.000
  20182625.133    20182624.5244   20182625.4204  106060377.224 8  82644510.99946
       116.849          91.059          50.000          41.000
  22184854.861    22184854.3054   22184855.8524  116582221.344 7  90843311.07744
     -1867.516       -1455.209          45.000          32.000
  22987263.752    22987262.0044   22987262.9604  120798921.436 6  94129033.86043
     -3462.528       -2698.077          44.000          29.000
  21728407.932    21728406.5844   21728408.8784  114183520.409 7  88974223.45344
      2467.529        1922.762          49.000          34.000
  25373040.353    25373042.4924   25373039.8394  133336220.896 5 103898378.70641
      3909.356        3046.248          37.000          16.000
  24023594.588    24023592.6914   24023595.0544  126244837.705 6  98372625.20942
      3054.159        2379.858          41.000          20.000
  24720581.918    24720580.5024   24720584.5784  129907524.671 5 101226673.02741
      2696.597        2101.220          36.000          13.000
  24445875.664    24445874.2704   24445878.4254  128463865.582 5 100101781.15641
     -1838.652       -1432.711          38.000          16.000
  22209391.019    22209390.7304   22209393.9114  116711144.445 7  90943767.37344
      1690.356        1317.161          45.000          30.000
  23027589.186    23027587.811    23027591.760   123095728.667 6  95741119.461 5
     -3687.138       -2867.776          42.000          37.000
  19533652.869    19533654.994    19533656.704   104821715.059 7  81528070.708 7
     -1101.169        -856.464          48.000          49.000
  20330627.843    20330630.098    20330628.753   108869578.416 8  84676393.378 6
      2238.833        1741.312          51.000          40.000
  19803165.837    19803166.854    19803170.924   106193669.106 7  82595114.323 6
     -1517.526       -1180.301          49.000          44.000
 05 10  2  0 39  0.0000000  0 15G 1G 7G11G14G19G20G23G24G25G28G31R 2
                                R 3R 4R18
  21139888.150    21139887.2554   21139890.3674  111090883.636 8  86564334.84346
       467.611         364.370          51.000          40.000
  24586562.844    24586561.1064   24586561.9414  129203249.195 6 100677879.27041
      2878.692        2243.106          40.000          17.000
  20182000.599    20182000.0064   20182001.0834  106057095.722 7  82641953.98546
       101.916          79.417          49.000          41.000
  22195564.751    22195563.8604   22195566.1474  116638502.352 7  90887166.40544
     -1884.521       -1468.455          46.000          32.000
  23007050.990    23007050.4244   23007052.7884  120902913.661 6  94210066.74344
     -3470.254       -2704.086          43.000          30.000
  21714349.421    21714348.2424   21714350.4404  114109644.648 7  88916657.94044
      2457.459        1914.897          49.000          34.000
  25350721.120    25350717.1454   25350719.2014  133218925.077 5 103806979.42141
      3910.295        3046.979          37.000          15.000
  24006163.847    24006164.1934   24006166.5724  126153248.682 5  98301257.12641
      3051.760        2378.012          39.000          19.000
  24705201.649    24705201.1474   24705203.9314  129826701.496 5 101163693.93541
      2691.641        2097.337          37.000          12.000
  24456408.313    24456408.6584   24456406.7794  128519215.669 5 100144911.10341
     -1851.311       -1442.579          36.000          14.000
  22199795.131    22199794.3834   22199797.3884  116660713.541 7  90904470.56344
      1671.675        1302.605          45.000          30.000
  23048286.885    23048285.871    23048288.640   123206363.577 6  95827168.807 5
     -3688.509       -2868.841          42.000          38.000
  19539847.563    19539849.366    19539851.369   104854956.694 7  81553925.316 7
     -1115.001        -867.224          47.000          49.000
  20318125.188    20318126.242    20318124.405   108802617.746 8  84624312.867 6
      2225.174        1730.692          51.000          41.000
  19811729.467    19811730.422    19811734.502   106239590.706 7  82630831.109 6
     -1543.913       -1200.825          49.000          44.000
 05 10  2  0 39 30.0000000  0 15G 1G 7G11G14G19G20G23G24G25G28G31R 2
                                R 3R 4R18
  21137275.645    21137274.5474   21137277.8424  111077155.110 8  86553637.30345
       447.618         348.791          50.000          39.000
  24570155.408    24570152.3914   24570155.5664  129117021.737 5 100610689.01041
      2869.829        2236.239          39.000          16.000
  20181461.604    20181460.7674   20181462.0574  106054262.663 7  82639746.39846
        86.959          67.757          48.000          41.000
  22206372.072    22206371.0204   22206372.7514  116695293.680 7  90931419.39544
     -1901.535       -1481.710          46.000          32.000
  23026883.941    23026883.2504   23026885.0914  121007136.261 6  94291279.13643
     -3477.915       -2710.058          44.000          29.000
  21700348.834    21700347.9344   21700350.6224  114036071.973 7  88859328.60345
      2447.367        1907.044          49.000          35.000
  25328395.653    25328393.7804   25328395.5164  133101603.443 5 103715560.01141
      3911.164        3047.675          36.000          13.000
  23988748.062    23988747.8984   23988751.1764  126061730.445 5  98229944.28242
      3049.399        2376.161          39.000          20.000
  24689849.789    24689849.2524   24689852.3584  129746028.907 5 101100832.18141
      2686.543        2093.377          38.000          13.000
  24467011.828    24467013.1754   24467012.9254  128574946.764 5 100188337.92741
     -1864.014       -1452.440          36.000          12.000
  22190305.695    22190304.8494   22190307.3914  116610844.442 7  90865611.53044
      1652.947        1288.019          45.000          31.000
  23068990.905    23068990.325    23068992.016   123317040.620 6  95913250.950 5
     -3689.931       -2869.953          42.000          37.000
  19546120.330    19546121.687    19546123.368   104888613.904 7  81580103.151 7
     -1128.805        -877.966          48.000          48.000
  20305696.359    20305697.883    20305696.115   108736066.432 8  84572550.753 6
      2211.537        1720.084          51.000          41.000
  19820440.268    19820441.596    19820445.699   106286303.882 7  82667163.568 6
     -1570.332       -1221.375          49.000          44.000
 05 10  2  0 40  0.0000000  0 15G 1G 7G11G14G19G20G23G24G25G28G31R 2
                                R 3R 4R18
  21134777.087    21134776.0054   21134779.2094  111064025.675 8  86543406.58445
       427.652         333.241          50.000          39.000
  24553796.243    24553794.5344   24553798.3744  129031060.427 6 100543706.18341
      2860.951        2229.303          40.000          18.000
  20181008.207    20181007.3284   20181008.2904  106051878.703 7  82637888.76346
        71.991          56.103          49.000          40.000
  22217275.531    22217274.4944   22217276.2794  116752593.186 7  90976068.36344
     -1918.439       -1494.887          45.000          31.000
  23046761.451    23046759.5744   23046761.6814  121111586.773 6  94372669.12943
     -3485.479       -2715.958          43.000          29.000
  21686406.187    21686405.4074   21686407.7124  113962803.382 7  88802236.21045
      2437.186        1899.111          49.000          35.000
  25306064.480    25306063.5424   25306064.0414  132984258.561 5 103624122.48141
      3911.855        3048.174          36.000          13.000
  23971347.448    23971346.2964   23971349.2484  125970284.064 5  98158687.36442
      3046.996        2374.281          39.000          20.000
  24674527.731    24674529.4694   24674528.2864  129665509.508 5 101038089.77341
      2681.390        2089.371          38.000          13.000
  24477689.378    24477688.6794   24477688.7724  128631056.312 5 100232059.52941
     -1876.635       -1462.292          35.000          11.000
  22180922.844    22180922.5944   22180924.7274  116561538.995 7  90827191.69744
      1634.087        1273.312          45.000          31.000
  23089701.503    23089701.936    23089705.706   123427758.598 6  95999364.914 5
     -3691.261       -2870.977          42.000          37.000
  19552469.130    19552470.919    19552472.702   104922685.087 7  81606602.964 7
     -1142.629        -888.711          47.000          46.000
  20293344.864    20293346.419    20293344.950   108669925.240 7  84521107.624 6
      2197.858        1709.445          49.000          41.000
  19829299.483    19829300.275    19829304.212   106333806.454 7  82704109.997 6
     -1596.573       -1241.783          48.000          43.000
 05 10  2  0 40 30.0000000  0 15G 1G 7G11G14G19G20G23G24G25G28G31R 2
                                R 3R 4R18
  21132392.747    21132391.8784   21132394.6334  111051495.592 8  86533642.88745
       407.689         317.685          50.000          39.000
  24537488.646    24537487.7484   24537490.5934  128945367.484 6 100476932.51541
      2851.922        2222.298          40.000          19.000
  20180639.654    20180639.2834   20180640.4474  106049944.523 7  82636381.60345
        56.975          44.396          49.000          39.000
  22228275.766    22228274.2854   22228276.4654  116810398.611 7  91021111.56244
     -1935.267       -1508.007          45.000          31.000
  23066680.052    23066678.9374   23066680.8644  121216262.469 6  94454234.60543
     -3492.913       -2721.750          43.000          29.000
  21672521.768    21672521.0574   21672523.6464  113889839.684 7  88745381.39045
      2427.012        1891.178          48.000          35.000
  25283728.573    25283727.5114   25283731.3554  132866892.614 5 103532668.53541
      3912.515        3048.702          35.000          13.000
  23953960.765    23953959.5054   23953960.8694  125878910.737 6  98087487.35842
      3044.598        2372.414          41.000          20.000
  24659235.295    24659235.1394   24659235.4874  129585146.305 5 100975469.07941
      2676.131        2085.280          38.000          13.000
  24488438.222    24488437.9954   24488442.3244  128687541.417 5 100276073.92841
     -1889.050       -1472.002          36.000          12.000
  22171648.543    22171647.4154   22171650.0744  116512798.973 7  90789212.44844
      1615.247        1258.637          45.000          31.000
  23110421.872    23110421.841    23110424.615   123538515.756 6  96085509.344 5
     -3692.506       -2871.956          41.000          38.000
  19558895.113    19558896.984    19558898.852   104957169.952 7  81633424.530 7
     -1156.361        -899.396          47.000          45.000
  20281069.443    20281071.402    20281070.493   108604194.621 7  84469983.820 6
      2184.135        1698.767          49.000          41.000
  19838303.713    19838304.790    19838309.345   106382096.420 7  82741668.854 6
     -1622.743       -1262.135          48.000          43.000
 05 10  2  0 41  0.0000000  0 15G 1G 7G11G14G19G20G23G24G25G28G31R 2
                                R 3R 4R18
  21130122.264    21130121.4714   21130124.5854  111039565.060 8  86524346.37746
       387.698         302.101          51.000          40.000
  24521233.829    24521232.2854   24521235.3544  128859945.475 6 100410369.90641
      2842.879        2215.218          40.000          19.000
  20180357.696    20180356.7714   20180358.1494  106048460.604 8  82635225.29946
        41.941          32.679          50.000          40.000
  22239371.540    22239370.5924   22239372.3454  116868707.970 7  91066547.42444
     -1952.016       -1521.071          46.000          31.000
  23086642.025    23086640.1904   23086642.0034  121321161.010 6  94535973.70743
     -3500.274       -2727.482          43.000          29.000
  21658695.639    21658694.6484   21658696.9024  113817181.805 7  88688764.88345
      2416.803        1883.220          49.000          35.000
  25261392.832    25261391.9234   25261392.7504  132749507.815 5 103441199.91041
      3913.129        3049.196          37.000          13.000
  23936585.384    23936584.7324   23936587.9844  125787611.425 6  98016345.00942
      3042.033        2370.409          41.000          20.000
  24643971.651    24643971.6644   24643975.0824  129504942.117 5 100912972.29241
      2670.731        2081.139          38.000          13.000
  24499259.368    24499257.6264   24499260.7824  128744399.683 5 100320379.06941
     -1901.438       -1481.618          38.000          14.000
  22162480.618    22162480.1784   22162483.1624  116464626.135 7  90751675.17844
      1596.276        1243.855          45.000          31.000
  23131148.082    23131147.550    23131150.602   123649310.487 6  96171683.008 5
     -3693.733       -2872.902          42.000          37.000
  19565398.281    19565399.982    19565401.927   104992065.687 7  81660565.653 7
     -1170.010        -910.005          48.000          49.000
  20268872.501    20268873.784    20268872.378   108538875.311 8  84419179.926 6
      2170.423        1688.106          51.000          42.000
  19847455.325    19847456.844    19847461.558   106431173.071 7  82779839.566 6
     -1648.962       -1282.524          49.000          44.000
 05 10  2  0 41 30.0000000  0 15G 1G 7G11G14G19G20G23G24G25G28G31R 2
                                R 3R 4R18
  21127966.431    21127965.3414   21127968.3854  111028234.239 8  86515517.17146
       367.711         286.534          51.000          40.000
  24505029.835    24505028.0224   24505032.5304  128774796.528 5 100344020.07641
      2833.752        2208.094          39.000          18.000
  20180161.380    20180160.4254   20180161.3404  106047427.441 8  82634420.22946
        26.954          21.010          50.000          41.000
  22250562.767    22250561.7384   22250563.3114  116927519.252 7  91112374.39644
     -1968.722       -1534.057          45.000          31.000
  23106645.169    23106644.1964   23106645.7674  121426279.528 6  94617884.23643
     -3507.579       -2733.171          43.000          29.000
  21644927.807    21644926.4714   21644928.8554  113744830.301 7  88632387.09345
      2406.591        1875.270          49.000          35.000
  25239052.590    25239053.0314   25239052.2084  132632106.118 5 103349718.12241
      3913.635        3049.583          36.000          14.000
  23919224.560    23919225.3764   23919230.8174  125696387.045 5  97945261.12942
      3039.572        2368.479          38.000          21.000
  24628742.220    24628740.2304   24628743.1484  129424900.113 5 100850601.84541
      2665.344        2076.895          38.000          13.000
  24510148.633    24510148.8414   24510148.9984  128801628.622 5 100364973.01541
     -1913.770       -1491.262          37.000          15.000
  22153422.061    22153420.8934   22153424.6154  116417021.951 7  90714581.00444
      1577.342        1229.101          45.000          31.000
  23151882.050    23151880.809    23151884.862   123760141.488 6  96257884.877 5
     -3694.918       -2873.823          42.000          38.000
  19571977.609    19571979.346    19571980.679   105027370.095 7  81688024.634 7
     -1183.649        -920.610          48.000          49.000
  20256750.552    20256752.428    20256751.423   108473968.151 8  84368696.583 6
      2156.678        1677.420          51.000          42.000
  19856754.070    19856755.145    19856759.189   106481033.612 7  82818619.969 6
     -1675.060       -1302.820          49.000          44.000
 05 10  2  0 42  0.0000000  0 15G 1G 7G11G14G19G20G23G24G25G28G31R 2
                                R 3R 4R18
  21125924.443    21125923.2314   21125926.3884  111017503.284 8  86507155.39646
       347.709         270.945          52.000          40.000
  24488879.524    24488878.1034   24488882.0914  128689923.038 5 100277884.86441
      2824.525        2200.941          39.000          17.000
  20180050.117    20180049.6414   20180050.7194  106046845.457 8  82633966.73646
        11.889           9.267          50.000          42.000
  22261849.744    22261848.2984   22261850.0314  116986830.105 7  91158590.64144
     -1985.354       -1547.026          46.000          31.000
  23126689.759    23126689.2914   23126690.3144  121531615.848 6  94699964.47243
     -3514.827       -2738.828          43.000          28.000
  21631218.269    21631216.9874   21631219.6654  113672786.338 7  88576248.96245
      2396.325        1867.263          49.000          35.000
  25216711.175    25216709.4814   25216706.4274  132514690.074 5 103258225.13441
      3914.102        3049.958          37.000          14.000
  23901881.672    23901881.3774   23901884.4744  125605238.919 6  97874236.68242
      3036.990        2366.486          41.000          22.000
  24613543.175    24613542.0844   24613541.3664  129345023.226 5 100788360.16841
      2659.726        2072.534          37.000          14.000
  24521109.466    24521108.5084   24521110.1074  128859225.502 5 100409853.67041
     -1926.002       -1500.765          37.000          15.000
  22144471.070    22144470.4494   22144474.5554  116369988.152 6  90677931.30644
      1558.274        1214.245          44.000          30.000
  23172621.246    23172620.292    23172623.750   123871007.189 6  96344113.739 5
     -3696.080       -2874.733          41.000          38.000
  19578632.088    19578634.038    19578635.825   105063083.419 7  81715801.666 7
     -1197.185        -931.142          47.000          48.000
  20244707.169    20244708.641    20244707.445   108409473.748 8  84318534.282 6
      2142.931        1666.726          51.000          42.000
  19866197.612    19866199.037    19866203.542   106531676.156 7  82858008.602 6
     -1701.100       -1323.081          49.000          44.000
 05 10  2  0 42 30.0000000  0 15G 1G 7G11G14G19G20G23G24G25G28G31R 2
                                R 3R 4R18
  21123995.869    21123995.2414   21123998.4144  111007372.251 8  86499261.09246
       327.718         255.364          51.000          40.000
  24472779.108    24472778.3624   24472783.6004  128605327.258 5 100211966.09741
      2815.239        2193.687          38.000          17.000
  20180025.598    20180024.5654   20180026.0404  106046715.306 8  82633865.31246
        -3.179          -2.468          50.000          41.000
  22273229.986    22273229.7264   22273231.6744  117046638.518 7  91205194.60344
     -2001.876       -1559.899          46.000          31.000
  23146776.181    23146774.3504   23146776.1204  121637167.633 6  94782212.60343
     -3521.966       -2744.383          43.000          29.000
  21617567.504    21617566.1144   21617568.8444  113601050.321 7  88520350.78345
      2386.069        1859.279          49.000          36.000
  25194365.414    25194363.2264   25194359.7514  132397261.853 5 103166722.65541
      3914.405        3050.169          37.000          14.000
  23884552.063    23884551.3414   23884553.5114  125514168.422 6  97803272.63742
      3034.349        2364.417          41.000          22.000
  24598375.281    24598373.3864   24598373.1694  129265314.291 5 100726249.30441
      2654.125        2068.202          38.000          13.000
  24532140.540    24532139.2184   24532141.6954  128917187.905 5 100455019.14241
     -1938.163       -1510.267          37.000          15.000
  22135629.853    22135629.1544   22135632.9314  116323526.689 7  90641727.56244
      1539.176        1199.353          45.000          30.000
  23193367.726    23193366.438    23193369.644   123981905.576 6  96430368.022 5
     -3697.159       -2875.559          42.000          38.000
  19585362.940    19585365.006    19585366.733   105099202.962 7  81743894.641 7
     -1210.762        -941.701          47.000          49.000
  20232739.832    20232741.581    20232740.842   108345392.166 8  84268693.066 6
      2129.153        1656.008          51.000          42.000
  19875787.068    19875788.046    19875792.522   106583098.138 7  82898003.462 6
     -1727.045       -1343.255          48.000          44.000
 05 10  2  0 43  0.0000000  0 15G 1G 7G11G14G19G20G23G24G25G28G31R 2
                                R 3R 4R18
  21122182.732    21122181.8414   21122184.8074  110997841.272 8  86491834.36546
       307.682         239.749          51.000          40.000
  24456734.506    24456735.4114   24456738.0674  128521011.478 5 100146265.50441
      2805.825        2186.339          39.000          18.000
  20180086.751    20180085.8754   20180087.2024  106047037.612 8  82634116.45846
       -18.305         -14.263          50.000          41.000
  22284706.053    22284704.9054   22284707.2954  117106942.177 7  91252184.48044
     -2018.365       -1572.763          45.000          30.000
  23166902.548    23166901.1184   23166902.8474  121742932.228 6  94864626.56743
     -3528.985       -2749.864          43.000          28.000
  21603975.158    21603974.1664   21603976.4034  113529623.339 8  88464693.41945
      2375.729        1851.211          50.000          35.000
  25172014.633    25172016.8554   25172016.1434  132279823.508 5 103075212.29341
      3914.740        3050.434          36.000          13.000
  23867235.904    23867234.1244   23867238.9814  125423176.547 5  97732369.80441
      3031.708        2362.349          39.000          19.000
  24583240.328    24583236.5734   24583238.7804  129185775.962 5 100664271.38341
      2648.341        2063.622          36.000          13.000
  24543238.294    24543237.1744   24543239.0154  128975513.471 5 100500467.54741
     -1950.180       -1519.594          36.000          14.000
  22126897.507    22126897.6654   22126899.9804  116277639.353 7  90605971.19944
      1519.992        1184.395          45.000          30.000
  23214117.701    23214117.399    23214120.990   124092835.732 6  96516647.000 5
     -3698.196       -2876.374          41.000          37.000
  19592169.239    19592171.816    19592173.290   105135727.961 7  81772302.975 7
     -1224.253        -952.195          48.000          49.000
  20220850.473    20220851.924    20220851.446   108281724.191 8  84219173.550 6
      2115.321        1645.254          51.000          41.000
  19885521.679    19885522.897    19885526.777   106635298.233 7  82938603.526 6
     -1752.954       -1363.413          49.000          44.000
 05 10  2  0 43 30.0000000  0 15G 1G 7G11G14G19G20G23G24G25G28G31R 2
                                R 3R 4R18
  21120483.040    21120482.3354   21120485.0674  110988910.449 8  86484875.29145
       287.709         224.186          50.000          39.000
  24440743.305    24440742.7914   24440747.8524  128436977.965 5 100080784.85341
      2796.432        2179.039          39.000          19.000
  20180234.877    20180233.7874   20180234.7104  106047812.459 7  82634720.23546
       -33.375         -26.002          49.000          40.000
  22296274.946    22296274.3314   22296276.1224  117167738.824 7  91299558.49044
     -2034.704       -1585.488          45.000          30.000
  23187068.832    23187067.3344   23187068.5774  121848906.662 6  94947204.02843
     -3535.974       -2755.295          43.000          28.000
  21590441.363    21590440.6014   21590442.9524  113458505.937 7  88409277.27145
      2365.437        1843.196          48.000          35.000
  25149665.392    25149665.3814   25149663.6594  132162377.344 5 102983695.81641
      3915.047        3050.664          36.000          14.000
  23849935.710    23849934.7334   23849940.2564  125332264.400 5  97661529.23542
      3029.039        2360.295          39.000          21.000
  24568136.126    24568133.9894   24568137.1744  129106411.371 5 100602428.87041
      2642.475        2059.071          38.000          13.000
  24554405.221    24554403.3554   24554406.4704  129034199.162 5 100546196.68641
     -1962.230       -1528.995          37.000          13.000
  22118275.469    22118274.7654   22118277.8814  116232327.709 7  90570663.42044
      1500.802        1169.464          45.000          31.000
  23234877.556    23234876.279    23234879.261   124203796.144 6  96602949.530 5
     -3699.203       -2877.150          41.000          38.000
  19599052.173    19599053.775    19599055.150   105172656.549 7  81801025.210 7
     -1237.676        -962.632          47.000          46.000
  20209038.268    20209039.666    20209038.958   108218470.540 8  84169976.263 6
      2101.560        1634.548          50.000          42.000
  19895400.643    19895401.812    19895405.623   106688274.345 7  82979807.156 6
     -1778.755       -1383.474          48.000          43.000
 05 10  2  0 44  0.0000000  0 15G 1G 7G11G14G19G20G23G24G25G28G31R 2
                                R 3R 4R18
  21118898.181    21118896.9584   21118899.8464  110980579.868 8  86478383.93446
       267.671         208.576          51.000          40.000
  24424806.597    24424806.5084   24424810.7134  128353229.092 5 100015525.97841
      2786.827        2171.542          39.000          19.000
  20180468.172    20180467.5014   20180468.3664  106049040.627 8  82635677.24846
       -48.513         -37.805          50.000          41.000
  22307937.607    22307936.7154   22307938.5214  117229026.578 7  91347315.18544
     -2051.109       -1598.280          46.000          30.000
  23207275.319    23207273.6684   23207274.6364  121955088.562 6  95029943.16243
     -3542.824       -2760.640          44.000          28.000
  21576967.288    21576966.5334   21576969.0394  113387699.273 7  88354103.26445
      2355.021        1835.081          49.000          35.000
  25127315.655    25127313.7994   25127314.2464  132044925.700 5 102892175.11541
      3915.155        3050.757          35.000          14.000
  23832651.854    23832650.5614   23832655.1434  125241433.247 6  97590751.78442
      3026.325        2358.159          42.000          24.000
  24553065.981    24553066.3574   24553069.8044  129027223.162 5 100540723.77441
      2636.636        2054.521          37.000          15.000
  24565642.703    24565640.3744   24565639.9914  129093242.498 5 100592204.44841
     -1974.055       -1538.224          37.000          12.000
  22109762.910    22109762.3114   22109765.2744  116187593.388 7  90535805.50744
      1481.492        1154.405          45.000          30.000
  23255639.031    23255638.370    23255642.298   124314785.115 6  96689274.249 5
     -3700.092       -2877.845          41.000          38.000
  19606007.768    19606009.995    19606011.578   105209986.591 7  81830059.690 7
     -1251.051        -973.040          48.000          48.000
  20197303.960    20197305.477    20197304.290   108155631.659 8  84121101.593 6
      2087.688        1623.757          51.000          42.000
  19905423.805    19905424.831    19905429.020   106742023.900 7  83021612.352 6
     -1804.574       -1403.558          49.000          44.000
 05 10  2  0 44 30.0000000  0 15G 1G 7G11G14G19G20G23G24G25G28G31R 2
                                R 3R 4R18
  21117426.708    21117425.9004   21117429.0924  110972849.520 8  86472360.29746
       247.704         193.013          51.000          40.000
  24408925.233    24408925.9564   24408929.2624  128269767.066 5  99950490.67241
      2777.292        2164.099          39.000          18.000
  20180788.325    20180787.4514   20180788.5824  106050722.448 8  82636987.75446
       -63.611         -49.567          50.000          41.000
  22319692.881    22319692.4574   22319694.2664  117290802.973 7  91395452.62244
     -2067.331       -1610.915          45.000          30.000
  23227518.782    23227518.2024   23227519.0294  122061475.196 6  95112841.84643
     -3549.618       -2765.939          43.000          28.000
  21563553.278    21563551.8544   21563554.3684  113317203.688 7  88299171.66245
      2344.666        1827.011          49.000          36.000
  25104965.183    25104964.5124   25104963.9254  131927470.863 5 102800651.90841
      3915.155        3050.730          37.000          15.000
  23815383.776    23815381.4844   23815385.3394  125150684.290 6  97520038.30742
      3023.599        2356.040          41.000          23.000
  24538032.566    24538032.8684   24538034.0104  128948214.401 5 100479158.52841
      2630.660        2049.863          38.000          16.000
  24576945.432    24576941.4344   24576944.8994  129152640.893 5 100638488.96041
     -1985.885       -1547.487          38.000          12.000
  22101360.765    22101359.6764   22101362.7014  116143437.931 7  90501398.65744
      1462.224        1139.392          46.000          31.000
  23276408.213    23276407.177    23276408.967   124425801.258 6  96775620.115 5
     -3700.954       -2878.518          42.000          37.000
  19613038.870    19613041.113    19613042.343   105247717.164 7  81859405.692 7
     -1264.349        -983.380          48.000          49.000
  20185646.045    20185647.881    20185647.457   108093207.931 8  84072549.829 6
      2073.861        1613.005          51.000          42.000
  19915590.826    19915592.411    19915596.352   106796546.055 7  83064018.462 6
     -1830.269       -1423.540          49.000          44.000
 05 10  2  0 45  0.0000000  0 15G 1G 7G11G14G19G20G23G24G25G28G31R 2
                                R 3R 4R18
  21116069.896    21116069.0294   21116072.3514  110965719.384 8  86466804.35846
       227.654         177.390          52.000          40.000
  24393097.443    24393098.3504   24393101.6334  128186594.214 6  99885680.61441
      2767.600        2156.598          40.000          18.000
  20181194.867    20181193.9454   20181195.0784  106052858.571 8  82638652.25846
       -78.796         -61.398          50.000          41.000
  22331541.669    22331540.9994   22331542.6934  117353065.845 7  91443969.16143
     -2083.488       -1623.505          45.000          29.000
  23247802.369    23247800.0864   23247802.2604  122168064.322 6  95195898.28143
     -3556.296       -2771.133          42.000          27.000
  21550197.937    21550196.6024   21550198.6904  113247020.325 8  88244483.34045
      2334.238        1818.882          50.000          36.000
  25082613.283    25082611.9274   25082611.6944  131810014.517 5 102709127.47341
      3915.242        3050.834          39.000          16.000
  23798129.418    23798128.6974   23798131.6324  125060018.710 6  97449389.78342
      3020.765        2353.863          40.000          20.000
  24523030.513    24523031.3234   24523034.1074  128869387.655 5 100417735.06741
      2624.437        2045.050          38.000          16.000
  24588317.300    24588315.0524   24588316.5164  129212391.680 5 100685047.97041
     -1997.540       -1556.569          37.000          13.000
  22093068.821    22093068.1254   22093070.7304  116099862.867 7  90467444.07044
      1442.790        1124.241          45.000          31.000
  23297181.031    23297178.525    23297182.474   124536843.080 6  96861985.948 5
     -3701.824       -2879.195          41.000          37.000
  19620144.774    19620146.584    19620148.053   105285847.003 7  81889062.236 7
     -1277.639        -993.716          48.000          48.000
  20174066.850    20174068.722    20174067.286   108031199.960 8  84024321.426 6
      2059.984        1602.215          51.000          42.000
  19925902.116    19925903.369    19925907.509   106851837.767 7  83107023.114 6
     -1855.869       -1443.449          49.000          44.000
 05 10  2  0 45 30.0000000  0 15G 1G 7G11G14G19G20G23G24G25G28G31R 2
                                R 3R 4R18
  21114827.336    21114826.4104   21114829.6514  110959189.397 7  86461716.07045
       207.661         161.810          49.000          38.000
  24377325.887    24377325.5394   24377329.0284  128103712.788 5  99821097.70641
      2757.835        2148.978          39.000          19.000
  20181687.621    20181686.8064   20181687.9724  106055449.393 7  82640671.07946
       -93.961         -73.219          48.000          40.000
  22343481.853    22343481.0744   22343482.6064  117415813.025 6  91492863.07143
     -2099.600       -1636.068          44.000          29.000
  23268123.709    23268121.8214   23268124.3234  122274853.634 6  95279110.71943
     -3562.949       -2776.325          41.000          28.000
  21536901.562    21536900.3244   21536902.6214  113177149.817 7  88190038.79945
      2323.788        1810.748          48.000          36.000
  25060262.764    25060263.3574   25060260.6974  131692559.669 5 102617604.25741
      3915.216        3050.803          38.000          16.000
  23780893.157    23780892.1884   23780896.2334  124969437.581 6  97378807.10142
      3017.937        2351.639          42.000          21.000
  24508065.186    24508064.2884   24508068.9484  128790745.935 5 100356455.82541
      2618.269        2040.215          38.000          17.000
  24599754.088    24599751.3134   24599753.3414  129272492.165 5 100731879.52241
     -2009.114       -1565.533          37.000          14.000
  22084887.294    22084886.9624   22084889.1704  116056869.847 6  90433943.01344
      1423.381        1109.132          44.000          31.000
  23317958.729    23317956.909    23317959.784   124647909.267 6  96948370.716 5
     -3702.500       -2879.716          40.000          38.000
  19627323.949    19627326.064    19627327.992   105324374.273 7  81919027.898 7
     -1290.816       -1003.965          46.000          45.000
  20162565.691    20162567.125    20162565.623   107969608.663 7  83976417.089 6
      2046.104        1591.414          48.000          41.000
  19936355.870    19936357.136    19936361.749   106907896.841 7  83150624.604 6
     -1881.416       -1463.322          47.000          42.000
 05 10  2  0 46  0.0000000  0 15G 1G 7G11G14G19G20G23G24G25G28G31R 2
                                R 3R 4R18
  21113698.811    21113697.9434   21113701.3394  110953259.570 7  86457095.43745
       187.659         146.225          48.000          38.000
  24361610.930    24361610.1394   24361612.3264  128021125.147 6  99756743.67541
      2748.042        2141.290          40.000          19.000
  20182267.113    20182266.5604   20182267.6954  106058495.491 7  82643044.65545
      -109.127         -85.035          48.000          39.000
  22355514.289    22355513.2824   22355514.7144  117479042.145 6  91542132.51443
     -2115.657       -1648.561          44.000          29.000
  23288482.987    23288481.6174   23288482.6534  122381840.259 6  95362476.90143
     -3569.465       -2781.407          42.000          27.000
  21523665.280    21523663.9364   21523666.5944  113107592.849 7  88135838.58245
      2313.333        1802.596          47.000          36.000
  25037912.390    25037912.0254   25037909.3304  131575108.060 5 102526083.48741
      3915.014        3050.625          39.000          15.000
  23763673.225    23763672.7504   23763675.1894  124878942.207 6  97308291.22643
      3015.086        2349.430          42.000          25.000
  24493136.238    24493138.1344   24493140.8514  128712292.442 5 100295323.22441
      2611.968        2035.267          39.000          18.000
  24611254.928    24611255.3004   24611257.7754  129332939.739 5 100778981.46741
     -2020.680       -1574.579          37.000          13.000
  22076817.632    22076816.7794   22076818.8304  116014460.611 7  90400896.84944
      1403.911        1093.961          45.000          31.000
  23338739.077    23338737.866    23338741.762   124758998.204 6  97034773.189 5
     -3703.412       -2880.432          41.000          37.000
  19634577.433    19634579.351    19634581.437   105363297.591 7  81949301.587 7
     -1304.023       -1014.238          47.000          45.000
  20151141.417    20151142.829    20151141.817   107908434.240 7  83928837.009 6
      2032.190        1580.593          48.000          42.000
  19946952.809    19946953.953    19946958.407   106964720.506 7  83194820.772 6
     -1906.865       -1483.117          47.000          42.000
 05 10  2  0 46 30.0000000  0 15G 1G 7G11G14G19G20G23G24G25G28G31R 2
                                R 3R 4R18
  21112684.665    21112683.9934   21112686.9934  110947930.018 8  86452942.55046
       167.649         130.635          52.000          40.000
  24345953.086    24345950.6234   24345953.4504  127938833.608 6  99692620.38642
      2738.053        2133.530          41.000          21.000
  20182933.769    20182932.9714   20182933.9704  106061996.953 8  82645773.06246
      -124.316         -96.873          50.000          41.000
  22367637.697    22367636.6744   22367638.4044  117542750.987 6  91591775.75743
     -2131.626       -1661.001          44.000          29.000
  23308877.654    23308876.8654   23308878.5494  122489021.894 6  95445995.06043
     -3575.953       -2786.462          42.000          27.000
  21510487.928    21510487.1684   21510490.0884  113038350.290 7  88081883.35945
      2302.842        1794.415          48.000          36.000
  25015564.902    25015562.9984   25015560.7854  131457662.484 5 102434567.45041
      3914.763        3050.456          38.000          15.000
  23746466.594    23746467.7384   23746470.6604  124788533.559 6  97237842.97242
      3012.111        2347.098          41.000          23.000
  24478243.708    24478242.4154   24478247.6194  128634030.071 5 100234339.59341
      2605.535        2030.256          39.000          18.000
  24622822.986    24622823.4844   24622824.3974  129393731.376 5 100826351.56241
     -2032.083       -1583.453          37.000          14.000
  22068859.036    22068857.9744   22068859.8644  115972636.533 7  90368306.65644
      1384.356        1078.718          46.000          31.000
  23359525.695    23359523.770    23359526.783   124870108.407 6  97121192.228 5
     -3704.024       -2880.905          40.000          37.000
  19641904.752    19641906.573    19641907.093   105402632.148 7  81979855.910 7
     -1317.171       -1024.469          48.000          48.000
  20139794.930    20139797.095    20139796.113   107847677.206 8  83881581.545 6
      2018.262        1569.756          51.000          41.000
  19957690.737    19957692.158    19957697.071   107022307.337 7  83239610.515 6
     -1932.292       -1502.895          48.000          44.000
 05 10  2  0 47  0.0000000  0 15G 1G 7G11G14G19G20G23G24G25G28G31R 2
                                R 3R 4R18
  21111784.905    21111783.7894   21111786.6214  110943200.529 8  86449257.24346
       147.626         115.035          51.000          40.000
  24330349.522    24330348.2634   24330350.3504  127856840.202 6  99628729.39442
      2728.073        2125.778          41.000          21.000
  20183687.225    20183686.2574   20183687.0524  106065954.525 8  82648856.88346
      -139.546        -108.735          51.000          42.000
  22379851.795    22379850.6124   22379852.4124  117606937.167 7  91641790.96143
     -2147.517       -1673.387          45.000          29.000
  23329311.176    23329309.7654   23329311.7754  122596395.678 6  95529662.92643
     -3582.302       -2791.398          43.000          28.000
  21497371.706    21497371.2014   21497373.3714  112969422.708 7  88028173.57945
      2292.312        1786.221          49.000          36.000
  24993215.682    24993214.6924   24993214.4054  131340224.787 5 102343057.57241
      3914.424        3050.204          38.000          16.000
  23729279.310    23729279.3944   23729282.6774  124698212.713 6  97167463.07642
      3009.174        2344.809          41.000          21.000
  24463388.654    24463389.2734   24463389.8554  128555961.606 6 100173507.02941
      2599.042        2025.231          40.000          18.000
  24634456.755    24634458.2514   24634458.5654  129454864.742 5 100873987.97341
     -2043.471       -1592.299          37.000          14.000
  22061010.615    22061010.4544   22061012.3174  115931399.113 7  90336173.59144
      1364.780        1063.472          46.000          31.000
  23380310.789    23380312.830    23380315.149   124981238.520 5  97207626.716 5
     -3704.618       -2881.366          39.000          37.000
  19649304.630    19649306.148    19649308.060   105442342.735 7  82010741.926 7
     -1330.212       -1034.609          48.000          48.000
  20128527.721    20128529.175    20128527.799   107787338.047 8  83834651.100 6
      2004.330        1558.926          51.000          42.000
  19968572.752    19968573.290    19968577.867   107080654.771 7  83284991.836 6
     -1957.579       -1522.565          48.000          44.000
 05 10  2  0 47 30.0000000  0 15G 1G 7G11G14G19G20G23G24G25G28G31R 2
                                R 3R 4R18
  21110998.945    21110998.0274   21111000.9554  110939070.974 8  86446039.41346
       127.650          99.463          52.000          40.000
  24314804.273    24314803.6164   24314805.7294  127775147.439 6  99565072.73942
      2717.996        2117.915          40.000          20.000
  20184526.669    20184525.8874   20184527.0804  106070368.281 8  82652296.17246
      -154.725        -120.562          50.000          41.000
  22392156.217    22392154.7654   22392158.2304  117671598.373 6  91692176.31743
     -2163.284       -1685.681          44.000          28.000
  23349780.163    23349778.5194   23349780.5524  122703959.327 6  95613478.73443
     -3588.593       -2796.302          42.000          28.000
  21484316.331    21484315.2224   21484316.9864  112900811.304 7  87974710.15145
      2281.762        1777.997          49.000          36.000
  24970868.614    24970868.8164   24970868.9164  131222797.170 5 102251555.55141
      3914.065        3049.904          38.000          17.000
  23712108.650    23712109.2574   23712112.7994  124607981.132 6  97097152.74442
      3006.211        2342.497          42.000          22.000
  24448572.378    24448569.1674   24448571.3404  128478089.759 5 100112827.66241
      2592.418        2020.094          39.000          17.000
  24646156.057    24646152.0414   24646156.2344  129516337.277 5 100921888.58941
     -2054.632       -1601.023          37.000          13.000
  22053277.021    22053275.7234   22053277.7304  115890749.814 7  90304498.81144
      1345.144        1048.165          47.000          31.000
  23401106.113    23401105.197    23401108.484   125092387.406 5  97294075.818 5
     -3705.229       -2881.844          39.000          37.000
  19656777.596    19656779.397    19656781.085   105482444.532 7  82041932.215 7
     -1343.264       -1044.763          48.000          48.000
  20117337.432    20117339.169    20117337.963   107727416.890 8  83788045.772 6
      1990.345        1548.041          51.000          42.000
  19979594.874    19979595.759    19979599.708   107139760.825 7  83330963.204 6
     -1982.819       -1542.196          49.000          44.000
 05 10  2  0 48  0.0000000  0 15G 1G 7G11G14G19G20G23G24G25G28G31R 2
                                R 3R 4R18
  21110327.051    21110326.2304   21110329.4064  110935541.205 8  86443288.95046
       107.650          83.884          50.000          40.000
  24299317.573    24299315.8214   24299316.8444  127693757.574 6  99501652.07242
      2707.915        2110.055          42.000          20.000
  20185453.117    20185452.4734   20185453.9474  106075238.782 7  82656091.36446
      -169.976        -132.455          49.000          41.000
  22404550.777    22404549.7264   22404551.9214  117736732.356 6  91742930.07343
     -2179.001       -1697.923          44.000          28.000
  23370284.400    23370282.9124   23370284.5874  122811710.111 6  95697440.36543
     -3594.758       -2801.110          42.000          27.000
  21471319.858    21471318.7164   21471321.6804  112832516.439 8  87921493.38145
      2271.190        1769.761          50.000          37.000
  24948526.337    24948525.8774   24948525.5154  131105382.043 5 102160063.27641
      3913.515        3049.482          39.000          18.000
  23694956.391    23694956.9224   23694959.1804  124517839.987 6  97026912.91142
      3003.167        2340.140          41.000          24.000
  24433788.874    24433789.3014   24433792.8444  128400417.534 5 100052303.85841
      2585.684        2014.830          39.000          18.000
  24657916.957    24657915.1124   24657919.5684  129578145.958 5 100970051.16541
     -2065.832       -1609.742          38.000          14.000
  22045653.874    22045652.4264   22045654.4104  115850689.956 7  90273283.33844
      1325.471        1032.837          47.000          31.000
  23421899.904    23421901.067    23421903.765   125203553.356 5  97380538.193 5
     -3705.790       -2882.281          38.000          36.000
  19664323.206    19664325.155    19664326.855   105522935.817 7  82073425.439 7
     -1356.220       -1054.839          48.000          49.000
  20106224.698    20106226.605    20106225.971   107667914.664 8  83741766.281 6
      1976.448        1537.237          51.000          42.000
  19990757.517    19990758.793    19990762.871   107199622.510 7  83377522.278 6
     -2007.969       -1561.757          49.000          43.000
 05 10  2  0 48 30.0000000  0 15G 1G 7G11G14G19G20G23G24G25G28G31R 2
                                R 3R 4R18
  21109770.058    21109768.7594   21109771.8724  110932611.154 8  86441005.79745
        87.673          68.320          51.000          39.000
  24283887.584    24283885.7744   24283885.9224  127612672.826 6  99438469.12842
      2697.695        2102.103          43.000          20.000
  20186467.435    20186466.5574   20186467.5584  106080566.312 7  82660242.67646
      -185.219        -144.326          49.000          41.000
  22417034.058    22417033.9064   22417036.2974  117802337.051 6  91794050.62543
     -2194.657       -1710.120          42.000          28.000
  23390823.778    23390822.6594   23390824.2224  122919645.559 6  95781545.90943
     -3600.879       -2805.883          42.000          27.000
  21458384.344    21458383.2124   21458385.3864  112764539.233 7  87868524.14545
      2260.587        1761.495          49.000          36.000
  24926184.881    24926184.5744   24926185.4624  130987981.570 5 102068582.41541
      3913.082        3049.144          39.000          19.000
  23677818.844    23677819.7804   23677823.8744  124427790.531 6  96956744.54642
      3000.124        2337.752          40.000          24.000
  24419048.591    24419044.8484   24419048.9974  128322947.948 5  99991937.98141
      2578.892        2009.512          38.000          18.000
  24669742.421    24669739.6374   24669742.8014  129640288.175 5 101018473.69641
     -2076.934       -1618.335          37.000          13.000
  22038142.635    22038142.0674   22038143.7914  115811221.106 7  90242528.36944
      1305.760        1017.482          46.000          31.000
  23442702.294    23442700.394    23442703.963   125314734.975 5  97467012.759 5
     -3706.300       -2882.674          39.000          37.000
  19671940.871    19671943.022    19671944.708   105563815.051 7  82105220.395 7
     -1369.076       -1064.831          47.000          46.000
  20095192.234    20095193.905    20095193.521   107608831.821 8  83695812.967 6
      1962.460        1526.361          50.000          42.000
  20002061.368    20002062.602    20002067.053   107260237.960 7  83424667.609 6
     -2033.066       -1581.272          48.000          42.000
 05 10  2  0 49  0.0000000  0 15G 1G 7G11G14G19G20G23G24G25G28G31R 2
                                R 3R 4R18
  21109326.254    21109325.4034   21109328.5374  110930280.708 8  86439189.87345
        67.674          52.731          51.000          39.000
  24268516.867    24268513.9174   24268514.9134  127531895.465 6  99375525.68442
      2687.395        2094.062          43.000          20.000
  20187568.625    20187567.5864   20187568.5344  106086351.143 8  82664750.34046
      -200.475        -156.215          51.000          41.000
  22429607.482    22429607.4484   22429609.5564  117868410.096 6  91845536.10943
     -2210.234       -1722.257          43.000          28.000
  23411398.257    23411396.5214   23411398.0544  123027763.148 6  95865793.37043
     -3606.925       -2810.594          42.000          28.000
  21445509.132    21445508.0704   21445510.2704  112696880.362 7  87815802.95745
      2249.992        1753.229          49.000          37.000
  24903847.989    24903847.7584   24903847.4124  130870598.107 5 101977114.79841
      3912.387        3048.616          39.000          19.000
  23660703.177    23660701.2574   23660705.1374  124337834.229 6  96886648.73242
      2996.962        2335.281          43.000          24.000
  24404345.814    24404344.0484   24404346.9344  128245683.625 5  99931731.97941
      2571.953        2004.115          39.000          18.000
  24681627.379    24681627.8644   24681633.4104  129702761.187 5 101067153.95241
     -2087.935       -1626.968          36.000          13.000
  22030744.870    22030744.0334   22030746.1614  115772344.727 7  90212235.08444
      1285.937        1002.020          45.000          31.000
  23463504.595    23463502.451    23463505.073   125425930.993 5  97553498.527 5
     -3706.747       -2883.016          39.000          37.000
  19679630.697    19679633.147    19679634.457   105605082.125 7  82137317.012 7
     -1382.002       -1074.891          48.000          48.000
  20084237.975    20084239.554    20084238.274   107550168.769 8  83650186.169 6
      1948.447        1515.459          51.000          42.000
  20013504.578    20013506.283    20013510.593   107321604.952 7  83472397.481 6
     -2058.055       -1600.711          48.000          44.000
 05 10  2  0 49 30.0000000  0 15G 1G 7G11G14G19G20G23G24G25G28G31R 2
                                R 3R 4R18
  21108996.435    21108995.8764   21108999.1144  110928549.563 8  86437840.93546
        47.705          37.179          51.000          40.000
  24253202.647    24253200.8304   24253204.2444  127451427.809 6  99312823.62042
      2677.074        2086.022          41.000          20.000
  20188755.874    20188755.3174   20188756.4844  106092593.972 7  82669614.88446
      -215.746        -168.112          49.000          41.000
  22442270.635    22442269.2694   22442271.2914  117934948.999 6  91897384.60843
     -2225.686       -1734.300          44.000          28.000
  23432005.067    23432004.0394   23432006.8024  123136060.288 6  95950180.74843
     -3612.879       -2815.214          41.000          27.000
  21432695.007    21432693.8794   21432696.4204  112629540.189 8  87763330.10945
      2239.347        1744.947          50.000          37.000
  24881514.284    24881513.3324   24881515.1354  130753233.851 5 101885662.14041
      3911.781        3048.152          39.000          19.000
  23643601.337    23643600.3914   23643604.4824  124247971.848 6  96816626.08342
      2993.883        2332.891          41.000          22.000
  24389680.216    24389680.5444   24389682.5954  128168627.301 6  99871688.14841
      2565.035        1998.724          40.000          18.000
  24693581.232    24693578.4374   24693582.3644  129765562.366 5 101116089.91141
     -2098.890       -1635.526          37.000          12.000
  22023459.329    22023458.9024   22023460.9654  115734062.215 7  90182404.54944
      1266.149         986.615          46.000          31.000
  23484305.836    23484305.040    23484309.117   125537140.195 5  97639994.521 5
     -3707.211       -2883.379          39.000          37.000
  19687393.068    19687395.378    19687396.439   105646733.543 7  82169712.565 7
     -1394.780       -1084.824          49.000          48.000
  20073361.008    20073362.758    20073361.556   107491925.928 8  83604886.190 6
      1934.365        1504.505          52.000          42.000
  20025087.789    20025089.480    20025093.659   107383719.558 7  83520708.822 6
     -2082.965       -1620.084          48.000          43.000
 05 10  2  0 50  0.0000000  0 15G 1G 7G11G14G19G20G23G24G25G28G31R 2
                                R 3R 4R18
  21108781.504    21108780.5344   21108783.5424  110927417.556 8  86436958.86546
        27.722          21.601          52.000          40.000
  24237948.108    24237946.7764   24237950.0914  127371272.106 6  99250364.63042
      2666.590        2077.896          41.000          20.000
  20190030.629    20190030.2794   20190031.6134  106099295.221 8  82674836.63246
      -231.025        -180.017          50.000          42.000
  22455021.218    22455019.5604   22455021.1024  118001951.340 6  91949594.21743
     -2241.125       -1746.328          44.000          28.000
  23452647.228    23452646.2334   23452648.6404  123244534.390 6  96034705.99643
     -3618.760       -2819.805          42.000          26.000
  21419941.335    21419940.4354   21419942.3244  112562519.737 8  87711106.39445
      2228.660        1736.615          50.000          37.000
  24859185.218    24859182.8564   24859183.6114  130635891.088 5 101794226.21441
      3910.988        3047.509          39.000          18.000
  23626521.298    23626519.3004   23626523.6424  124158204.762 6  96746677.73143
      2990.671        2330.393          42.000          25.000
  24375057.373    24375056.4934   24375059.4064  128091782.319 5  99811808.91641
      2557.964        1993.243          38.000          18.000
  24705593.340    24705590.7044   24705595.4944  129828688.756 5 101165279.31641
     -2109.548       -1643.812          36.000          11.000
  22016288.039    22016286.8734   22016289.0354  115696375.014 7  90153037.89744
      1246.273         971.118          46.000          31.000
  23505111.704    23505110.519    23505115.460   125648361.000 5  97726499.529 5
     -3707.578       -2883.662          37.000          37.000
  19695226.086    19695228.443    19695229.975   105688768.462 7  82202406.395 7
     -1407.565       -1094.769          48.000          49.000
  20062562.980    20062564.965    20062563.587   107434103.795 8  83559913.428 6
      1920.411        1493.652          52.000          42.000
  20036811.050    20036812.543    20036816.337   107446580.874 7  83569600.942 6
     -2107.750       -1639.361          49.000          44.000
 05 10  2  0 50 30.0000000  0 15G 1G 7G11G14G19G20G23G24G25G28G31R 2
                                R 3R 4R18
  21108679.927    21108678.9914   21108681.8494  110926884.497 8  86436543.50246
         7.789           6.072          51.000          40.000
  24222756.679    24222754.4934   24222756.1234  127291430.528 6  99188150.41942
      2656.099        2069.691          41.000          21.000
  20191393.766    20191392.8824   20191394.1884  106106454.857 8  82680415.56046
      -246.314        -191.932          50.000          41.000
  22467858.276    22467857.5574   22467859.1224  118069415.073 6  92002163.34943
     -2256.440       -1758.278          44.000          28.000
  23473322.588    23473321.3274   23473323.4784  123353182.704 6  96119367.01443
     -3624.498       -2824.278          42.000          26.000
  21407248.615    21407247.8214   21407249.6214  112495819.740 8  87659132.37445
      2218.003        1728.317          50.000          36.000
  24836859.583    24836858.2384   24836858.6814  130518572.159 5 101702808.88741
      3910.255        3046.957          38.000          18.000
  23609456.219    23609456.1954   23609459.4214  124068534.333 6  96676804.68743
      2987.423        2327.866          43.000          25.000
  24360475.006    24360475.0014   24360478.0334  128015151.582 6  99752096.68841
      2550.754        1987.591          40.000          18.000
  24717667.119    24717664.8624   24717668.3454  129892137.775 5 101214720.05641
     -2120.373       -1652.239          36.000          13.000
  22009229.936    22009228.5084   22009231.5004  115659284.567 7  90124136.24144
      1226.418         955.643          46.000          31.000
  23525921.397    23525920.538    23525921.961   125759592.204 5  97813012.693 5
     -3707.861       -2883.894          38.000          36.000
  19703131.220    19703132.759    19703134.448   105731186.067 7  82235397.866 7
     -1420.207       -1104.597          48.000          48.000
  20051844.318    20051846.042    20051844.697   107376702.777 8  83515268.199 6
      1906.380        1482.745          51.000          42.000
  20048671.597    20048672.936    20048677.364   107510185.376 7  83619071.091 6
     -2132.555       -1658.646          48.000          44.000
 05 10  2  0 51  0.0000000  0 15G 1G 7G11G14G19G20G23G24G25G28G31R 2
                                R 3R 4R18
  21108692.654    21108691.6024   21108694.2904  110926950.092 8  86436594.62846
       -12.168          -9.485          51.000          40.000
  24207620.066    24207621.0284   24207621.7684  127211905.365 6  99126182.76842
      2645.507        2061.431          40.000          21.000
  20192843.476    20192842.6754   20192843.8654  106114073.664 7  82686352.29446
      -261.601        -203.847          49.000          41.000
  22480784.166    22480782.8644   22480784.0114  118137337.747 6  92055090.11843
     -2271.736       -1770.198          44.000          28.000
  23494030.110    23494028.9944   23494030.7274  123462002.811 6  96204161.90643
     -3630.154       -2828.708          42.000          26.000
  21394617.253    21394616.2284   21394618.4974  112429440.694 8  87607408.46045
      2207.265        1719.940          50.000          37.000
  24814540.951    24814539.0874   24814536.1354  130401279.395 5 101611411.93341
      3909.293        3046.192          38.000          16.000
  23592411.676    23592410.0004   23592414.0684  123978961.738 6  96607007.85442
      2984.144        2325.303          41.000          23.000
  24345934.150    24345932.5664   24345936.2674  127938737.539 5  99692553.25441
      2543.465        1981.917          39.000          17.000
  24729800.831    24729802.0964   24729800.2564  129955906.540 5 101264409.95941
     -2130.947       -1660.480          36.000          13.000
  22002284.924    22002284.4044   22002287.4784  115622792.118 7  90095700.56144
      1206.425         940.069          46.000          31.000
  23546729.922    23546729.417    23546732.313   125870832.622 5  97899532.952 5
     -3708.060       -2884.038          38.000          36.000
  19711106.703    19711108.275    19711109.826   105773983.888 7  82268685.058 7
     -1432.928       -1114.496          48.000          49.000
  20041203.318    20041205.450    20041204.001   107319723.342 8  83470950.878 6
      1892.258        1471.759          52.000          42.000
  20060671.354    20060672.451    20060676.695   107574531.168 7  83669117.806 6
     -2157.205       -1677.823          48.000          43.000
 05 10  2  0 51 30.0000000  0 15G 1G 7G11G14G19G20G23G24G25G28G31R 2
                                R 3R 4R18
  21108818.930    21108818.0584   21108820.5434  110927613.919 8  86437111.90345
       -32.084         -24.996          50.000          39.000
  24192548.749    24192547.9984   24192550.0154  127132698.902 5  99064463.47041
      2634.876        2053.157          39.000          18.000
  20194380.540    20194379.8174   20194381.0994  106122151.597 7  82692646.78346
      -276.914        -215.773          48.000          40.000
  22493795.455    22493794.4754   22493796.6054  118205716.969 6  92108372.63443
     -2286.858       -1781.966          43.000          28.000
  23514770.969    23514769.1954   23514771.6784  123570992.340 6  96289088.79043
     -3635.737       -2833.036          42.000          27.000
  21382046.733    21382045.8854   21382048.2564  112363383.608 7  87555935.41745
      2196.538        1711.584          49.000          36.000
  24792225.977    24792224.8904   24792223.2264  130284014.917 5 101520036.97741
      3908.295        3045.467          39.000          17.000
  23575385.094    23575384.0034   23575388.4704  123889488.232 6  96537288.26942
      2980.829        2322.718          42.000          24.000
  24331434.930    24331434.9124   24331438.5974  127862543.009 5  99633180.91141
      2536.130        1976.206          39.000          18.000
  24741997.495    24741995.4484   24741997.9344  130019992.454 5 101314346.96941
     -2141.360       -1668.578          37.000          13.000
  21995454.894    21995453.8444   21995456.9954  115586899.010 7  90067731.90844
      1186.442         924.507          46.000          31.000
  23567541.418    23567540.524    23567544.449   125982080.870 5  97986059.319 5
     -3708.375       -2884.296          39.000          37.000
  19719152.435    19719154.551    19719156.156   105817160.809 7  82302267.113 7
     -1445.556       -1124.321          47.000          46.000
  20030641.999    20030643.508    20030642.766   107263166.029 8  83426961.876 6
      1878.235        1460.847          50.000          41.000
  20072808.173    20072809.055    20072813.862   107639615.250 7  83719738.740 6
     -2181.735       -1696.904          47.000          42.000
 05 10  2  0 52  0.0000000  0 15G 1G 7G11G14G19G20G23G24G25G28G31R 2
                                R 3R 4R18
  21109058.975    21109058.2584   21109060.8954  110928875.628 8  86438095.06046
       -52.012         -40.524          52.000          40.000
  24177536.814    24177536.6184   24177539.5434  127053813.361 6  99002994.19141
      2624.092        2044.749          41.000          18.000
  20196005.161    20196004.4514   20196005.5964  106130688.989 8  82699299.29046
      -292.233        -227.708          50.000          41.000
  22506894.448    22506893.3394   22506895.5894  118274550.244 6  92162008.95343
     -2301.973       -1793.744          44.000          29.000
  23535541.264    23535540.7974   23535543.2054  123680148.632 6  96374145.61643
     -3641.250       -2837.345          40.000          25.000
  21369538.368    21369536.9544   21369539.1904  112297649.081 8  87504713.72045
      2185.788        1703.211          51.000          37.000
  24769916.036    24769914.7184   24769914.3694  130166781.166 5 101428686.03941
      3907.277        3044.603          38.000          17.000
  23558378.877    23558377.4094   23558380.6784  123800115.135 6  96467646.89643
      2977.466        2320.114          43.000          26.000
  24316977.821    24316977.7944   24316979.2084  127786570.973 5  99573981.96941
      2528.671        1970.388          39.000          18.000
  24754252.139    24754247.5954   24754253.0414  130084392.633 5 101364528.91841
     -2151.933       -1676.838          36.000          13.000
  21988739.314    21988737.9444   21988741.5614  115551606.554 7  90040231.28944
      1166.386         908.884          45.000          31.000
  23588357.229    23588353.861    23588356.988   126093335.068 5  98072590.315 5
     -3708.556       -2884.424          39.000          37.000
  19727268.531    19727270.825    19727272.642   105860716.565 7  82336143.806 7
     -1458.160       -1134.119          48.000          48.000
  20020159.081    20020160.403    20020159.426   107207031.137 8  83383301.411 6
      1864.131        1449.886          52.000          42.000
  20085081.771    20085083.419    20085087.953   107705434.678 7  83770931.605 6
     -2206.214       -1715.939          48.000          44.000
 05 10  2  0 52 30.0000000  0 15G 1G 7G11G14G19G20G23G24G25G28G31R 2
                                R 3R 4R18
  21109412.975    21109411.7744   21109414.5234  110930734.993 8  86439543.92746
       -71.934         -56.055          51.000          40.000
  24162586.692    24162585.6524   24162590.3324  126975250.995 5  98941776.76542
      2613.349        2036.374          39.000          20.000
  20197717.425    20197716.6474   20197717.8734  106139686.289 8  82706310.17046
      -307.575        -239.668          50.000          41.000
  22520078.645    22520077.8814   22520080.2124  118343835.190 6  92215997.21743
     -2316.981       -1805.448          44.000          29.000
  23556345.894    23556344.8314   23556346.7734  123789469.080 6  96459330.36543
     -3646.744       -2841.627          42.000          26.000
  21357090.523    21357089.2654   21357091.7374  112232237.759 8  87453743.87245
      2174.987        1694.791          50.000          36.000
  24747613.609    24747614.1864   24747611.6984  130049580.427 5 101337360.76841
      3906.009        3043.650          38.000          17.000
  23541389.504    23541388.3664   23541392.5674  123710843.539 6  96398084.61642
      2974.079        2317.455          42.000          24.000
  24302563.470    24302562.0154   24302566.4744  127710824.275 5  99514958.55741
      2521.094        1964.497          39.000          19.000
  24766565.962    24766567.0494   24766568.2944  130149104.544 5 101414953.80541
     -2162.286       -1684.920          35.000          11.000
  21982138.320    21982137.0454   21982139.5704  115516916.060 7  90013199.73944
      1146.313         893.235          45.000          32.000
  23609170.082    23609167.108    23609169.600   126204594.606 5  98159125.512 5
     -3708.758       -2884.584          38.000          36.000
  19735455.993    19735457.780    19735459.063   105904648.454 7  82370313.060 7
     -1470.624       -1143.821          49.000          48.000
  20009754.707    20009756.549    20009755.939   107151319.054 8  83339969.798 6
      1850.012        1438.896          51.000          42.000
  20097493.476    20097494.614    20097498.829   107771987.586 7  83822694.965 6
     -2230.609       -1734.917          48.000          44.000
 05 10  2  0 53  0.0000000  0 15G 1G 7G11G14G19G20G23G24G25G28G31R 2
                                R 3R 4R18
  21109879.950    21109879.2404   21109882.1414  110933191.565 8  86441458.15045
       -91.854         -71.574          51.000          39.000
  24147698.676    24147698.0594   24147702.9184  126897014.041 5  98880812.93542
      2602.483        2027.911          39.000          21.000
  20199516.848    20199516.1844   20199517.5054  106149143.567 7  82713679.48046
      -322.905        -251.617          49.000          40.000
  22533348.434    22533347.5314   22533350.1814  118413569.484 6  92270335.62243
     -2331.899       -1817.059          44.000          28.000
  23577178.423    23577178.4524   23577179.4054  123898950.928 6  96544640.91543
     -3652.050       -2845.747          41.000          26.000
  21344704.930    21344703.7894   21344706.1364  112167150.399 7  87403026.46345
      2164.186        1686.382          49.000          37.000
  24725318.742    24725318.1564   24725317.6674  129932414.775 6 101246062.86141
      3904.931        3042.806          40.000          19.000
  23524421.485    23524421.4594   23524424.9724  123621675.124 6  96328602.74443
      2970.602        2314.758          43.000          25.000
  24288194.016    24288192.5004   24288195.9034  127635305.895 6  99456113.10542
      2513.451        1958.517          41.000          20.000
  24778938.426    24778937.7564   24778940.5194  130214125.169 5 101465619.18941
     -2172.501       -1692.823          36.000          10.000
  21975651.208    21975650.0764   21975652.8564  115482828.866 7  89986638.27944
      1126.185         877.556          46.000          31.000
  23629983.087    23629981.471    23629983.513   126315858.148 5  98245663.776 5
     -3708.841       -2884.661          39.000          36.000
  19743712.407    19743714.069    19743715.916   105948954.269 7  82404773.138 7
     -1483.014       -1153.452          47.000          46.000
  19999430.828    19999431.806    19999431.112   107096029.934 8  83296967.166 6
      1835.929        1427.944          51.000          42.000
  20110040.350    20110041.653    20110045.717   107839270.652 7  83875026.220 6
     -2254.932       -1753.830          47.000          42.000
 05 10  2  0 53 30.0000000  0 15G 1G 7G11G14G19G20G23G24G25G28G31R 2
                                R 3R 4R18
  21110460.904    21110460.2474   21110463.1084  110936245.001 7  86443837.46346
      -111.695         -87.030          49.000          40.000
  24132872.466    24132871.7364   24132878.5274  126819104.721 6  98820104.40842
      2591.486        2019.344          40.000          20.000
  20201404.094    20201403.4794   20201404.8234  106159061.268 7  82721407.54846
      -338.247        -263.565          47.000          41.000
  22546703.583    22546703.1114   22546705.6384  118483750.672 6  92325022.27243
     -2346.750       -1828.633          43.000          29.000
  23598042.978    23598042.4704   23598043.9414  124008591.959 6  96630075.46943
     -3657.256       -2849.805          41.000          26.000
  21332380.195    21332379.5604   21332381.6474  112102387.635 7  87352561.98945
      2153.379        1677.949          48.000          37.000
  24703030.116    24703028.2864   24703028.4534  129815286.609 5 101154794.15242
      3903.624        3041.812          39.000          20.000
  23507472.475    23507472.6514   23507476.8324  123532610.838 6  96259202.02843
      2967.106        2312.024          41.000          26.000
  24273866.892    24273866.1204   24273868.9764  127560018.867 5  99397447.89041
      2505.692        1952.483          39.000          19.000
  24791370.712    24791371.1384   24791373.3804  130279451.497 5 101516522.81241
     -2182.655       -1700.773          37.000          12.000
  21969280.149    21969278.7544   21969282.0034  115449346.117 7  89960547.82544
      1106.028         861.837          45.000          32.000
  23650798.189    23650796.000    23650798.294   126427124.286 5  98332204.084 5
     -3708.909       -2884.713          38.000          36.000
  19752037.702    19752039.860    19752041.901   105993633.127 7  82439523.356 7
     -1495.476       -1163.146          47.000          48.000
  19989184.729    19989186.202    19989185.008   107041164.256 7  83254293.870 6
      1821.798        1416.956          49.000          42.000
  20122722.781    20122723.931    20122728.530   107907280.765 7  83927922.964 6
     -2279.068       -1772.607          47.000          43.000
 05 10  2  0 54  0.0000000  0 15G 1G 7G11G14G19G20G23G24G25G28G31R 2
                                R 3R 4R18
  21111155.299    21111154.6484   21111157.7464  110939894.832 7  86446681.50445
      -131.576        -102.529          49.000          39.000
  24118110.449    24118109.8244   24118113.6424  126741525.268 6  98759652.89642
      2580.458        2010.748          40.000          21.000
  20203378.937    20203378.3354   20203379.6404  106169439.748 7  82729494.67446
      -353.602        -275.536          48.000          40.000
  22560144.020    22560142.3004   22560144.8594  118554376.733 6  92380055.56443
     -2361.561       -1840.183          44.000          28.000
  23618936.486    23618934.9764   23618937.6414  124118389.692 6  96715632.12343
     -3662.459       -2853.855          41.000          26.000
  21320118.771    21320117.8484   21320120.2624  112037950.234 7  87302351.02845
      2142.487        1669.471          48.000          37.000
  24680748.922    24680747.2054   24680747.2344  129698198.286 5 101063556.51841
      3902.251        3040.722          39.000          18.000
  23490544.443    23490544.1874   23490547.7304  123443652.053 6  96189883.52243
      2963.535        2309.249          42.000          25.000
  24259584.927    24259583.6764   24259587.1184  127484965.664 6  99338964.86341
      2497.887        1946.409          40.000          19.000
  24803858.241    24803858.0884   24803860.1014  130345081.172 5 101567662.80241
     -2192.748       -1708.634          35.000          12.000
  21963023.259    21963022.5684   21963025.5024  115416469.117 7  89934929.37744
      1085.807         846.074          45.000          32.000
  23671611.712    23671610.565    23671612.513   126538391.618 5  98418745.275 5
     -3708.876       -2884.679          39.000          35.000
  19760432.833    19760434.968    19760436.752   106038683.295 7  82474562.374 7
     -1507.865       -1172.783          47.000          46.000
  19979017.926    19979019.700    19979018.653   106986722.914 7  83211950.612 6
      1807.673        1405.970          49.000          42.000
  20135540.571    20135541.592    20135546.252   107976016.155 7  83981383.813 6
     -2303.247       -1791.414          46.000          42.000
 05 10  2  0 54 30.0000000  0 15G 1G 7G11G14G19G20G23G24G25G28G31R 2
                                R 3R 4R18
  21111963.577    21111962.7514   21111965.6854  110944140.672 8  86449989.96245
      -151.469        -118.025          51.000          39.000
  24103410.542    24103410.1184   24103412.4304  126664277.975 5  98699460.18142
      2569.313        2002.074          39.000          20.000
  20205441.603    20205441.0584   20205442.2464  106180278.730 7  82737940.63046
      -369.002        -287.531          49.000          41.000
  22573667.046    22573666.5184   22573668.2124  118625444.802 6  92435433.28043
     -2376.310       -1851.663          44.000          28.000
  23639860.420    23639859.3634   23639860.5904  124228341.128 6  96801308.54343
     -3667.599       -2857.861          42.000          26.000
  21307918.638    21307917.7374   21307920.2174  111973838.831 8  87252394.10345
      2131.591        1660.987          50.000          37.000
  24658474.170    24658474.1774   24658474.0944  129581152.044 5 100972351.66541
      3900.875        3039.653          38.000          18.000
  23473638.535    23473637.4354   23473640.1894  123354799.992 6  96120648.12143
      2959.919        2306.442          44.000          25.000
  24245347.094    24245346.1894   24245346.9594  127410149.097 5  99280666.23541
      2489.936        1940.202          39.000          19.000
  24816404.652    24816404.3994   24816407.5764  130411011.104 5 101619036.73241
     -2202.700       -1716.373          36.000          13.000
  21956882.925    21956881.8704   21956885.0574  115384198.991 7  89909783.81144
      1065.528         830.282          47.000          32.000
  23692424.750    23692424.977    23692427.978   126649659.220 5  98505286.712 5
     -3708.940       -2884.727          38.000          36.000
  19768897.287    19768899.115    19768900.913   106084102.755 7  82509888.621 7
     -1520.093       -1182.289          48.000          48.000
  19968930.498    19968932.593    19968931.582   106932706.077 8  83169937.527 6
      1793.473        1394.926          52.000          42.000
  20148493.484    20148494.172    20148498.874   108045473.190 7  84035405.937 6
     -2327.238       -1810.069          48.000          43.000
 05 10  2  0 55  0.0000000  0 15G 1G 7G11G14G19G20G23G24G25G28G31R 2
                                R 3R 4R18
  21112884.495    21112883.8894   21112886.8604  110948982.011 8  86453762.44445
      -171.292        -133.471          51.000          39.000
  24088775.265    24088773.8984   24088776.1834  126587365.024 6  98639527.97341
      2558.200        1993.418          40.000          19.000
  20207592.282    20207591.4004   20207592.6654  106191579.045 7  82746746.06446
      -384.366        -299.505          49.000          41.000
  22587274.762    22587273.7724   22587276.0884  118696952.426 6  92491153.50143
     -2390.821       -1862.972          43.000          28.000
  23660812.622    23660811.2044   23660813.0974  124338443.848 6  96887102.88343
     -3672.562       -2861.727          41.000          26.000
  21295780.552    21295779.6614   21295782.4974  111910054.317 8  87202691.89845
      2120.707        1652.502          50.000          37.000
  24636210.330    24636209.6814   24636209.5474  129464150.110 5 100881181.34241
      3899.320        3038.420          39.000          19.000
  23456749.990    23456748.7024   23456753.7964  123266055.914 6  96051496.90243
      2956.323        2303.612          44.000          26.000
  24231157.671    24231154.4634   24231157.5174  127335572.411 6  99222554.57741
      2481.916        1933.965          40.000          19.000
  24829007.930    24829006.5774   24829010.1424  130477238.359 5 101670642.39641
     -2212.473       -1723.981          38.000          13.000
  21950857.945    21950856.7044   21950859.3224  115352536.732 7  89885111.91944
      1045.286         814.500          46.000          32.000
  23713241.172    23713238.922    23713242.989   126760925.417 5  98591827.038 5
     -3708.777       -2884.608          38.000          35.000
  19777429.879    19777431.967    19777433.827   106129890.922 7  82545501.635 7
     -1532.335       -1191.818          48.000          48.000
  19958922.852    19958924.418    19958923.441   106879113.590 8  83128254.498 6
      1779.332        1383.922          52.000          42.000
  20161579.683    20161580.920    20161585.263   108115648.744 7  84089986.903 6
     -2351.147       -1828.677          48.000          43.000
 05 10  2  0 55 30.0000000  0 15G 1G 7G11G14G19G20G23G24G25G28G31R 2
                                R 3R 4R18
  21113919.686    21113918.4154   21113921.3074  110954418.418 8  86457998.61445
      -191.145        -148.943          52.000          39.000
  24074202.702    24074202.0524   24074205.8344  126510788.553 6  98579858.01041
      2546.905        1984.599          40.000          19.000
  20209830.297    20209829.5844   20209830.9744  106203340.889 8  82755911.13246
      -399.764        -311.503          50.000          41.000
  22600965.329    22600964.2604   22600966.5104  118768897.380 6  92547214.50243
     -2405.451       -1874.375          44.000          28.000
  23681791.658    23681790.7344   23681792.9014  124448695.200 6  96973013.00443
     -3677.508       -2865.596          42.000          25.000
  21283705.584    21283704.5404   21283707.2394  111846597.309 8  87153244.88945
      2109.752        1643.962          50.000          37.000
  24613954.759    24613953.9334   24613952.8274  129347194.988 6 100790047.46142
      3897.667        3037.137          40.000          20.000
  23439884.146    23439882.8324   23439886.4034  123177421.146 6  95982430.88443
      2952.641        2300.758          44.000          26.000
  24217010.832    24217009.2584   24217012.5464  127261238.244 6  99164631.85241
      2473.719        1927.568          40.000          19.000
  24841665.073    24841663.5184   24841667.4004  130543760.694 5 101722478.01141
     -2222.292       -1731.653          36.000          13.000
  21944948.619    21944947.5434   21944950.7734  115321483.615 7  89860914.69144
      1024.918         798.641          47.000          32.000
  23734054.179    23734054.254    23734058.259   126872189.193 5  98678365.490 5
     -3708.829       -2884.653          38.000          36.000
  19786030.671    19786032.829    19786034.687   106176045.645 7  82581399.754 7
     -1544.589       -1201.348          48.000          48.000
  19948994.086    19948995.843    19948994.692   106825946.234 8  83086902.127 6
      1765.123        1372.868          52.000          43.000
  20174800.407    20174801.364    20174805.447   108186541.205 7  84145125.475 6
     -2375.012       -1847.238          48.000          43.000
 05 10  2  0 56  0.0000000  0 15G 1G 7G11G14G19G20G23G24G25G28G31R 2
                                R 3R 4R18
  21115067.078    21115066.1274   21115068.9064  110960449.344 7  86462698.04545
      -210.922        -164.360          49.000          39.000
  24059695.663    24059695.9894   24059698.2194  126434550.914 6  98520452.06042
      2535.546        1975.778          41.000          21.000
  20212156.677    20212155.7714   20212156.8404  106215564.188 7  82765435.78146
      -415.141        -323.489          49.000          40.000
  22614739.025    22614737.6784   22614740.0084  118841277.278 6  92603614.42343
     -2419.885       -1885.645          44.000          28.000
  23702800.450    23702799.1804   23702800.0424  124559092.798 6  97059037.11543
     -3682.367       -2869.375          41.000          25.000
  21271693.020    21271691.3724   21271693.7764  111783468.233 7  87104053.40545
      2098.817        1635.441          49.000          37.000
  24591705.845    24591705.7554   24591706.4844  129230288.665 5 100698951.64141
      3896.023        3035.855          38.000          19.000
  23423038.609    23423037.3864   23423040.2154  123088897.037 6  95913451.06343
      2948.933        2297.875          43.000          27.000
  24202911.528    24202910.3494   24202914.2124  127187149.325 5  99106900.24441
      2465.544        1921.201          39.000          18.000
  24854380.511    24854381.8084   24854380.6454  130610574.684 5 101774540.81441
     -2231.907       -1739.167          36.000          12.000
  21939155.843    21939154.6984   21939157.3294  115291040.728 7  89837192.95144
      1004.585         782.798          46.000          33.000
  23754870.987    23754867.913    23754871.220   126983449.210 5  98764901.016 5
     -3708.639       -2884.495          39.000          36.000
  19794700.426    19794702.041    19794703.752   106222565.834 7  82617582.119 7
     -1556.754       -1210.812          48.000          46.000
  19939144.616    19939146.549    19939145.864   106773204.607 8  83045880.871 6
      1750.924        1361.823          50.000          42.000
  20188152.402    20188153.963    20188158.229   108258146.555 7  84200818.515 6
     -2398.747       -1865.702          47.000          42.000
 05 10  2  0 56 30.0000000  0 15G 1G 7G11G14G19G20G23G24G25G28G31R 2
                                R 3R 4R18
  21116327.539    21116326.7174   21116329.6204  110967074.371 8  86467860.40945
      -230.730        -179.787          51.000          39.000
  24045253.992    24045253.5874   24045256.7194  126358654.234 6  98461311.78342
      2524.201        1966.906          42.000          22.000
  20214569.943    20214569.3724   20214570.7914  106228249.208 7  82775320.20446
      -430.529        -335.479          49.000          41.000
  22628594.361    22628593.6474   22628595.4074  118914089.520 6  92660351.24443
     -2434.214       -1896.782          43.000          28.000
  23723835.761    23723833.7124   23723836.0034  124669634.040 6  97145173.13543
     -3687.032       -2873.007          41.000          26.000
  21259741.686    21259740.6054   21259743.3194  111720667.903 8  87055118.09645
      2087.865        1626.909          50.000          37.000
  24569470.451    24569469.4924   24569470.8854  129113433.789 5 100607895.92041
      3894.272        3034.490          39.000          18.000
  23406214.800    23406213.0004   23406216.2154  123000484.996 6  95844558.55543
      2945.192        2294.951          44.000          26.000
  24188862.078    24188859.8354   24188862.5504  127113308.522 6  99049361.96241
      2457.155        1914.661          41.000          19.000
  24867148.324    24867148.6304   24867150.7034  130677677.656 4 101826828.83941
     -2241.598       -1746.718          34.000          11.000
  21933479.930    21933478.0024   21933480.5744  115261209.233 7  89813947.62444
       984.197         766.902          47.000          32.000
  23775677.435    23775680.422    23775683.750   127094704.405 5  98851432.789 5
     -3708.493       -2884.378          38.000          36.000
  19803437.159    19803438.894    19803440.579   106269450.015 7  82654047.589 7
     -1568.840       -1220.203          48.000          48.000
  19929375.552    19929377.141    19929375.971   106720888.690 8  83005190.724 6
      1736.702        1350.772          52.000          42.000
  20201638.190    20201639.586    20201644.238   108330462.837 7  84257064.498 6
     -2422.323       -1884.027          48.000          43.000
 05 10  2  0 57  0.0000000  0 15G 1G 7G11G14G19G20G23G24G25G28G31R 2
                                R 3R 4R18
  21117700.952    21117700.3284   21117703.3184  110974292.826 8  86473485.19345
      -250.499        -195.197          50.000          38.000
  24030877.434    24030874.9744   24030879.4844  126283100.681 6  98402438.90242
      2512.743        1957.972          41.000          22.000
  20217072.509    20217071.3144   20217072.5674  106241396.316 7  82785564.70046
      -445.953        -347.496          49.000          40.000
  22642532.508    22642531.2914   22642532.7464  118987331.645 6  92717423.01843
     -2448.537       -1907.964          44.000          28.000
  23744899.219    23744896.9444   23744898.5184  124780316.384 6  97231419.09343
     -3691.755       -2876.696          41.000          26.000
  21247853.937    21247853.1664   21247855.6434  111658197.061 7  87006439.53345
      2076.861        1618.335          49.000          37.000
  24547243.917    24547242.8694   24547242.3874  128996632.584 6 100516881.96241
      3892.455        3033.107          40.000          18.000
  23389410.181    23389409.7514   23389413.6214  122912186.266 6  95775754.37143
      2941.406        2292.010          42.000          26.000
  24174856.295    24174858.3734   24174857.4914  127039718.419 5  98992019.01141
      2448.858        1908.223          39.000          18.000
  24879974.335    24879974.5994   24879975.4134  130745066.847 5 101879339.87341
     -2251.066       -1754.023          35.000          11.000
  21927918.087    21927918.0934   21927919.9674  115231990.185 7  89791179.53244
       963.752         750.977          46.000          33.000
  23796496.050    23796492.212    23796494.900   127205953.446 5  98937959.799 5
     -3708.217       -2884.161          39.000          35.000
  19812241.949    19812243.658    19812245.005   106316697.087 7  82690795.310 7
     -1580.883       -1229.577          47.000          46.000
  19919685.241    19919687.292    19919685.861   106668998.769 8  82964831.910 6
      1722.535        1339.748          50.000          42.000
  20215255.750    20215257.259    20215261.697   108403486.313 7  84313860.533 6
     -2445.904       -1902.369          47.000          42.000
 05 10  2  0 57 30.0000000  0 15G 1G 7G11G14G19G20G23G24G25G28G31R 2
                                R 3R 4R18
  21119187.683    21119186.7224   21119189.9154  110982104.055 8  86479571.86945
      -270.252        -210.589          52.000          39.000
  24016564.879    24016563.3734   24016566.8294  126207892.603 6  98343835.17642
      2501.188        1948.996          41.000          21.000
  20219661.754    20219661.0274   20219662.1594  106255005.747 7  82796169.44646
      -461.360        -359.504          49.000          41.000
  22656550.759    22656550.4284   22656552.1194  119061001.246 6  92774827.89743
     -2462.736       -1919.011          44.000          28.000
  23765987.862    23765985.1594   23765986.9134  124891137.283 6  97317773.02643
     -3696.302       -2880.240          42.000          25.000
  21236029.530    21236028.1554   21236030.1194  111596056.188 8  86958018.08245
      2065.857        1609.758          51.000          38.000
  24525029.511    24525027.4794   24525026.8404  128879887.214 6 100425911.54441
      3890.540        3031.610          40.000          19.000
  23372629.608    23372629.6334   23372632.5214  122824001.892 6  95707039.29043
      2937.575        2289.009          43.000          27.000
  24160902.287    24160900.4524   24160902.9224  126966381.865 6  98934873.67441
      2440.341        1901.562          40.000          19.000
  24892850.328    24892851.7624   24892853.0054  130812739.163 5 101932071.50041
     -2260.346       -1761.300          35.000          11.000
  21922474.501    21922473.9914   21922476.1704  115203384.491 7  89768889.36544
       943.296         735.038          47.000          32.000
  23817303.704    23817302.059    23817306.641   127317195.278 5  99024481.195 5
     -3707.914       -2883.929          39.000          36.000
  19821113.663    19821115.360    19821117.076   106364305.687 7  82727824.223 7
     -1592.966       -1238.974          48.000          49.000
  19910075.075    19910076.759    19910075.417   106617535.272 8  82924804.751 6
      1708.354        1328.716          53.000          43.000
  20229005.364    20229006.464    20229010.876   108477214.710 7  84371204.821 6
     -2469.324       -1920.585          47.000          44.000
 05 10  2  0 58  0.0000000  0 15G 1G 7G11G14G19G20G23G24G25G28G31R 2
                                R 3R 4R18
  21120786.645    21120785.7234   21120789.0384  110990507.628 8  86486120.12145
      -289.978        -225.956          50.000          39.000
  24002320.353    24002319.5894   24002323.2104  126133031.995 6  98285502.24642
      2489.516        1939.861          42.000          21.000
  20222339.668    20222338.9294   20222339.9554  106269077.439 7  82807134.39346
      -476.778        -371.517          48.000          41.000
  22670650.787    22670649.1884   22670651.5734  119135095.770 6  92832563.89543
     -2476.867       -1930.021          44.000          28.000
  23787101.095    23787099.7144   23787100.5294  125002094.247 6  97404233.00743
     -3700.825       -2883.769          41.000          25.000
  21224266.906    21224265.8874   21224268.1854  111534246.175 8  86909854.45045
      2054.810        1601.145          50.000          38.000
  24502824.371    24502822.3174   24502822.9364  128763200.057 5 100334986.50242
      3888.562        3030.065          39.000          20.000
  23355869.819    23355869.8224   23355872.8424  122735933.365 6  95638414.45943
      2933.646        2285.958          43.000          26.000
  24146995.403    24146994.2804   24146994.8724  126893301.929 6  98877928.27541
      2431.642        1894.802          41.000          19.000
  24905781.366    24905779.3944   24905782.8834  130880692.160 4 101985021.82341
     -2269.868       -1768.683          34.000          10.000
  21917148.791    21917147.4294   21917150.1144  115175393.326 7  89747078.05444
       922.784         719.060          47.000          32.000
  23838112.230    23838111.743    23838114.433   127428428.564 6  99110995.932 5
     -3707.589       -2883.692          40.000          36.000
  19830051.834    19830053.926    19830055.971   106412272.613 7  82765131.828 7
     -1604.802       -1248.179          48.000          48.000
  19900544.545    19900545.724    19900544.483   106566498.710 8  82885109.653 6
      1694.090        1317.628          52.000          43.000
  20242885.195    20242886.169    20242890.472   108551644.298 7  84429094.483 6
     -2492.638       -1938.719          48.000          43.000
 05 10  2  0 58 30.0000000  0 15G 1G 7G11G14G19G20G23G24G25G28G31R 2
                                R 3R 4R18
  21122498.172    21122497.4944   21122500.5544  110999502.890 8  86493129.41945
      -309.696        -241.319          50.000          39.000
  23988141.566    23988139.8324   23988141.7154  126058521.245 6  98227441.91042
      2477.807        1930.787          42.000          21.000
  20225105.304    20225104.6134   20225105.8484  106283611.567 7  82818459.68246
      -492.185        -383.518          49.000          41.000
  22684830.737    22684830.1444   22684832.1574  119209612.948 6  92890629.23543
     -2490.923       -1940.981          44.000          27.000
  23808240.993    23808239.8734   23808240.4494  125113184.396 6  97490796.75442
     -3705.226       -2887.199          40.000          24.000
  21212568.334    21212567.1694   21212569.1094  111472767.512 7  86861949.00645
      2043.744        1592.527          49.000          38.000
  24480630.896    24480629.4214   24480630.0684  128646573.361 5 100244108.57042
      3886.487        3028.430          39.000          21.000
  23339134.765    23339133.8624   23339137.3834  122647981.868 6  95569880.84243
      2929.704        2282.887          44.000          27.000
  24133137.300    24133137.4874   24133139.5934  126820481.624 6  98821185.19541
      2422.951        1888.034          40.000          19.000
  24918766.104    24918765.8014   24918767.0394  130948922.674 5 102038188.47841
     -2278.998       -1775.787          35.000          11.000
  21911939.304    21911938.3474   21911940.4434  115148017.657 7  89725746.37444
       902.252         703.042          46.000          33.000
  23858919.358    23858917.473    23858920.603   127539652.374 5  99197503.280 5
     -3707.294       -2883.444          39.000          35.000
  19839057.726    19839059.334    19839061.254   106460597.476 7  82802717.830 7
     -1616.809       -1257.514          48.000          46.000
  19891093.434    19891094.632    19891093.423   106515889.192 8  82845746.709 6
      1679.883        1306.578          51.000          42.000
  20256895.149    20256896.233    20256900.699   108626772.141 7  84487527.243 6
     -2515.873       -1956.788          47.000          42.000
 05 10  2  0 59  0.0000000  0 15G 1G 7G11G14G19G20G23G24G25G28G31R 2
                                R 3R 4R18
  21124322.766    21124321.8904   21124324.9534  111009089.172 8  86500599.26145
      -329.384        -256.665          50.000          39.000
  23974028.963    23974026.0514   23974030.6014  125984362.424 6  98169655.79942
      2466.045        1921.594          41.000          22.000
  20227959.488    20227958.5194   20227959.7154  106298608.328 7  82830145.46046
      -507.608        -395.537          49.000          40.000
  22699090.838    22699089.6334   22699092.3844  119284550.233 6  92949021.94043
     -2504.878       -1951.873          43.000          27.000
  23829404.389    23829403.5584   23829406.5844  125224405.176 5  97577462.26842
     -3709.517       -2890.522          39.000          24.000
  21200932.314    21200931.2424   21200933.7114  111411620.934 7  86814302.33745
      2032.685        1583.909          49.000          37.000
  24458449.546    24458448.7044   24458448.6934  128530009.339 5 100153279.46542
      3884.348        3026.772          39.000          20.000
  23322420.857    23322419.2654   23322422.7644  122560149.064 6  95501439.71443
      2925.776        2279.826          44.000          27.000
  24119330.767    24119330.0224   24119331.5964  126747923.137 5  98764646.13742
      2414.180        1881.168          39.000          20.000
  24931804.349    24931803.9124   24931802.7324  131017427.947 4 102091569.20941
     -2288.081       -1782.901          34.000           8.000
  21906846.617    21906846.2274   21906848.2494  115121258.505 7  89704895.07344
       881.669         687.011          47.000          33.000
  23879725.525    23879722.567    23879726.357   127650865.253 5  99284002.117 5
     -3706.847       -2883.111          39.000          36.000
  19848129.561    19848131.307    19848132.937   106509278.759 7  82840581.049 7
     -1628.673       -1266.745          48.000          47.000
  19881722.401    19881723.777    19881722.610   106465707.401 8  82806716.434 6
      1665.577        1295.448          51.000          42.000
  20271034.406    20271035.654    20271040.068   108702594.900 7  84546500.487 6
     -2538.975       -1974.756          47.000          42.000
 05 10  2  0 59 30.0000000  0 15G 1G 7G11G14G19G20G23G24G25G28G31R 2
                                R 3R 4R18
  21126259.134    21126258.3924   21126261.5764  111019265.656 8  86508528.99245
      -349.046        -271.981          50.000          39.000
  23959983.515    23959983.1944   23959985.6364  125910557.704 6  98112145.63542
      2454.270        1912.444          42.000          22.000
  20230901.103    20230900.4214   20230901.6814  106314067.945 7  82842191.90946
      -523.037        -407.562          49.000          40.000
  22713431.210    22713429.5434   22713431.5114  119359904.952 6  93007739.89343
     -2518.747       -1962.659          44.000          28.000
  23850593.386    23850593.0684   23850595.1094  125335754.237 6  97664227.76643
     -3713.771       -2893.836          40.000          25.000
  21189359.340    21189358.4084   21189360.7154  111350806.794 7  86766914.71445
      2021.584        1575.262          49.000          37.000
  24436280.400    24436278.5864   24436277.4604  128413510.446 5 100062501.12742
      3882.183        3025.068          39.000          20.000
  23305730.184    23305728.6004   23305731.3214  122472436.304 6  95433092.10843
      2921.782        2276.729          43.000          26.000
  24105572.321    24105571.2854   24105573.2824  126675629.508 6  98708313.44742
      2405.334        1874.288          40.000          20.000
  24944889.570    24944889.8814   24944893.2814  131086205.110 4 102145161.76241
     -2297.074       -1789.942          34.000          10.000
  21901872.668    21901871.3544   21901874.0944  115095116.689 7  89684524.81944
       861.104         670.991          46.000          33.000
  23900525.824    23900525.035    23900529.027   127762066.233 5  99370491.747 5
     -3706.511       -2882.826          39.000          36.000
  19857267.830    19857269.312    19857271.006   106558315.219 7  82878720.515 7
     -1640.393       -1275.853          48.000          46.000
  19872430.992    19872432.808    19872431.117   106415953.040 8  82768018.606 6
      1651.322        1284.365          51.000          42.000
  20285303.338    20285304.339    20285308.257   108779109.497 7  84606011.821 6
     -2561.974       -1992.646          47.000          42.000
                            4 10
RINEX FILE SPLICE                                           COMMENT
teqc 2002Mar14 20051002 02:00:00UTC                         COMMENT
TPS2RIN 1.40 lnx Automatic 02-OCT-05 01:59                  COMMENT
build Feb 4 2004 (c) Topcon Positioning Systems             COMMENT
Insert your comment here                                    COMMENT
/ramdisk0/WTZR275B.jps                                      COMMENT
  4075578.7112   931854.2081  4801569.1468                  APPROX POSITION XYZ
Forced Modulo Decimation to 30 seconds                      COMMENT
Expected: 3600 arrived: 3600 loss: 0 epochs                 COMMENT
SE TPS 00000000                                             COMMENT
 05 10  2  1  0  0.0000000  0 15G 1G 7G11G14G19G20G23G24G25G28G31R 2
                                R 3R 4R18
  21128308.036    21128307.0814   21128310.2364  111030031.895 8  86516918.28245
      -368.709        -287.307          50.000          39.000
  23946007.946    23946005.6444   23946009.1794  125837109.262 6  98054913.07642
      2442.325        1903.114          41.000          22.000
  20233931.223    20233930.3104   20233931.5164  106329990.499 7  82854599.09646
      -538.471        -419.592          49.000          40.000
  22727849.139    22727848.2224   22727850.0444  119435674.655 6  93066781.21943
     -2532.572       -1973.437          44.000          27.000
  23871807.478    23871806.2184   23871807.3354  125447229.028 6  97751091.21442
     -3717.894       -2897.068          41.000          24.000
  21177850.905    21177849.4274   21177851.9284  111290326.014 7  86719786.84045
      2010.437        1566.568          49.000          37.000
  24414123.967    24414123.4564   24414124.0064  128297079.091 5  99971775.40041
      3879.856        3023.256          39.000          19.000
  23289062.053    23289060.3714   23289064.1734  122384844.764 7  95364838.94443
      2917.684        2273.521          45.000          27.000
  24091866.123    24091864.5854   24091868.2984  126603603.557 5  98652189.35941
      2396.395        1867.325          38.000          19.000
  24958029.943    24958029.7434   24958031.8184  131155251.357 5 102198963.98441
     -2306.064       -1796.912          36.000          11.000
  21897015.181    21897014.4374   21897017.3494  115069593.351 7  89664636.50344
       840.470         654.915          46.000          32.000
  23921324.887    23921324.430    23921327.699   127873253.986 5  99456971.075 4
     -3706.061       -2882.507          39.000          34.000
  19866471.620    19866473.280    19866474.586   106607704.650 7  82917134.511 7
     -1652.218       -1285.062          48.000          46.000
  19863219.969    19863221.758    19863220.091   106366626.763 8  82729653.741 6
      1637.065        1273.266          51.000          42.000
  20299699.645    20299701.152    20299705.983   108856314.334 7  84666060.023 6
     -2584.989       -2010.547          46.000          42.000
 05 10  2  1  0 30.0000000  0 15G 1G 7G11G14G19G20G23G24G25G28G31R 2
                                R 3R 4R18
  21130468.782    21130467.9794   21130471.0884  111041387.121 7  86525766.51945
      -388.319        -302.592          49.000          39.000
  23932098.339    23932097.1614   23932100.9904  125764019.197 6  97997959.79042
      2430.326        1893.752          41.000          21.000
  20237048.877    20237048.2134   20237049.6324  106346376.048 7  82867367.05146
      -553.926        -431.632          48.000          40.000
  22742346.112    22742345.0144   22742346.7074  119511856.855 6  93126143.98243
     -2546.281       -1984.131          43.000          27.000
  23893043.744    23893041.7214   23893042.3124  125558826.905 6  97838050.60142
     -3721.948       -2900.223          40.000          23.000
  21166405.083    21166403.9024   21166406.0364  111230179.249 7  86672919.25045
      1999.288        1557.882          49.000          37.000
  24391981.222    24391979.6424   24391978.2674  128180717.367 6  99881103.95641
      3877.495        3021.398          40.000          19.000
  23272416.471    23272415.6964   23272419.1414  122297375.685 6  95296681.24643
      2913.578        2270.309          44.000          27.000
  24078212.865    24078210.0704   24078213.4884  126531848.210 6  98596276.10442
      2387.260        1860.204          40.000          20.000
  24971219.324    24971217.6034   24971221.0124  131224563.403 5 102252973.36241
     -2314.744       -1803.701          38.000          11.000
  21892275.964    21892275.0544   21892278.5704  115044689.262 7  89645230.71144
       819.801         638.799          45.000          32.000
  23942122.917    23942121.782    23942124.961   127984427.452 5  99543439.240 5
     -3705.547       -2882.082          39.000          35.000
  19875740.504    19875742.533    19875743.872   106657446.032 7  82955822.253 7
     -1663.894       -1294.142          48.000          45.000
  19854088.511    19854090.021    19854088.571   106317728.774 8  82691621.987 6
      1622.800        1262.173          51.000          42.000
  20314225.759    20314226.919    20314231.282   108934204.783 7  84726641.469 6
     -2607.743       -2028.248          47.000          42.000
 05 10  2  1  1  0.0000000  0 15G 1G 7G11G14G19G20G23G24G25G28G31R 2
                                R 3R 4R18
  21132741.700    21132740.7874   21132743.8654  111053330.535 8  86535073.08146
      -407.908        -317.849          51.000          40.000
  23918258.738    23918257.2224   23918260.0884  125691289.820 6  97941287.56542
      2418.256        1884.358          41.000          22.000
  20240255.295    20240254.6364   20240255.8594  106363224.665 8  82880495.83746
      -569.340        -443.637          50.000          41.000
  22756921.039    22756919.6804   22756921.2764  119588449.192 6  93185826.32843
     -2559.858       -1994.705          44.000          27.000
  23914302.633    23914301.1684   23914303.3084  125670545.178 6  97925103.79942
     -3725.924       -2903.319          41.000          23.000
  21155022.855    21155022.0194   21155024.2334  111170367.087 7  86626312.37745
      1988.148        1549.206          49.000          38.000
  24369853.495    24369851.1004   24369849.8844  128064427.708 5  99790488.57842
      3875.087        3019.568          39.000          20.000
  23255796.230    23255795.3964   23255797.3134  122210030.903 7  95228620.40843
      2909.378        2267.043          45.000          28.000
  24064608.153    24064609.1554   24064612.9834  126460366.283 6  98540575.93142
      2378.140        1853.080          40.000          20.000
  24984459.253    24984457.5424   24984460.1954  131294138.783 5 102307187.97941
     -2323.525       -1810.548          37.000          12.000
  21887655.308    21887654.0194   21887656.9344  115020405.307 7  89626308.14544
       799.128         622.710          46.000          32.000
  23962916.421    23962916.347    23962921.487   128095585.764 6  99629895.639 5
     -3705.010       -2881.665          40.000          37.000
  19885075.367    19885076.963    19885078.581   106707536.957 7  82994781.859 7
     -1675.528       -1303.184          48.000          48.000
  19845037.222    19845038.486    19845037.063   106269259.306 8  82653923.515 6
      1608.546        1251.094          53.000          43.000
  20328877.808    20328879.054    20328883.405   109012777.195 7  84787753.325 6
     -2630.440       -2045.894          47.000          43.000
 05 10  2  1  1 30.0000000  0 15G 1G 7G11G14G19G20G23G24G25G28G31R 2
                                R 3R 4R18
  21135126.370    21135125.4454   21135128.2804  111065861.381 8  86544837.39046
      -427.488        -333.112          51.000          40.000
  23904487.712    23904486.0574   23904489.0024  125618923.100 6  97884897.89642
      2406.169        1874.914          42.000          22.000
  20243549.334    20243548.8934   20243550.1384  106380536.533 7  82893985.60146
      -584.793        -455.689          49.000          41.000
  22771573.538    22771572.0334   22771574.2334  119665448.927 6  93245826.11743
     -2573.443       -2005.271          43.000          27.000
  23935583.581    23935583.0824   23935584.0634  125782381.376 6  98012248.89442
     -3729.789       -2906.344          40.000          24.000
  21143705.056    21143703.8604   21143706.1384  111110889.929 8  86579966.54845
      1976.981        1540.498          50.000          38.000
  24347737.747    24347736.3344   24347734.9534  127948212.369 6  99699931.23342
      3872.576        3017.574          40.000          20.000
  23239198.546    23239197.5764   23239200.1234  122122811.686 6  95160657.37443
      2905.206        2263.790          44.000          26.000
  24051059.760    24051058.9834   24051061.1374  126389160.114 6  98485090.59941
      2368.919        1845.925          40.000          19.000
  24997748.573    24997747.1974   24997749.9644  131363974.367 5 102361605.30541
     -2332.169       -1817.254          36.000          13.000
  21883152.479    21883151.2284   21883154.1674  114996742.285 7  89607869.43144
       778.407         606.552          47.000          32.000
  23983709.969    23983708.211    23983713.870   128206727.694 6  99716339.372 5
     -3704.407       -2881.204          40.000          37.000
  19894475.334    19894476.744    19894478.162   106757977.144 7  83034013.115 7
     -1687.170       -1312.245          48.000          47.000
  19836065.473    19836067.232    19836065.934   106221218.776 8  82616558.670 6
      1594.169        1239.905          52.000          43.000
  20343656.107    20343657.424    20343662.340   109092028.971 7  84849393.582 6
     -2653.057       -2063.494          47.000          42.000
 05 10  2  1  2  0.0000000  0 15G 1G 7G11G14G19G20G23G24G25G28G31R 2
                                R 3R 4R18
  21137622.525    21137621.6394   21137624.3144  111078978.996 7  86555058.91545
      -447.034        -348.342          48.000          39.000
  23890786.182    23890784.0964   23890787.4584  125546921.443 6  97828792.69142
      2393.970        1865.421          41.000          22.000
  20246932.194    20246931.5534   20246932.5794  106398311.739 7  82907836.40546
      -600.223        -467.709          47.000          40.000
  22786303.070    22786302.0844   22786303.6744  119742853.861 6  93306141.65543
     -2586.931       -2015.786          43.000          26.000
  23956887.408    23956886.5894   23956888.3564  125894332.876 5  98099483.81142
     -3733.599       -2909.308          39.000          23.000
  21132450.943    21132449.6974   21132452.2444  111051748.586 7  86533882.39545
      1965.759        1531.760          48.000          38.000
  24325638.347    24325636.7804   24325634.5954  127832074.094 6  99609433.87842
      3869.995        3015.576          40.000          21.000
  23222625.280    23222624.2534   23222626.6574  122035719.123 6  95092793.04243
      2900.927        2260.465          43.000          27.000
  24037562.615    24037562.4644   24037564.0484  126318232.703 6  98429822.51641
      2359.557        1838.600          40.000          19.000
  25011084.342    25011087.1374   25011087.7744  131434067.239 5 102416223.10841
     -2340.609       -1823.814          35.000          13.000
  21878767.364    21878766.5124   21878769.6494  114973701.050 6  89589915.22244
       757.664         590.388          44.000          32.000
  24004497.511    24004495.806    24004497.732   128317851.933 5  99802769.288 4
     -3703.804       -2880.741          39.000          34.000
  19903939.384    19903940.975    19903942.593   106808765.536 7  83073515.197 7
     -1698.694       -1321.206          46.000          45.000
  19827174.356    19827176.221    19827174.662   106173607.486 7  82579527.668 6
      1579.886        1228.799          48.000          42.000
  20358561.909    20358562.796    20358567.809   109171957.497 7  84911560.197 6
     -2675.494       -2080.939          46.000          41.000
 05 10  2  1  2 30.0000000  0 15G 1G 7G11G14G19G20G23G24G25G28G31R 2
                                R 3R 4R18
  21140229.979    21140229.1844   21140232.0504  111092682.381 7  86565736.88445
      -466.547        -363.542          48.000          38.000
  23877153.852    23877152.9134   23877156.4574  125475286.709 6  97772973.41142
      2381.634        1855.833          40.000          22.000
  20250402.929    20250402.0724   20250403.3864  106416550.108 7  82922048.11945
      -615.679        -479.746          47.000          39.000
  22801109.179    22801108.5524   22801110.5064  119820661.085 6  93366770.66943
     -2600.252       -2026.165          42.000          26.000
  23978213.558    23978212.7954   23978213.1354  126006397.213 6  98186806.63742
     -3737.321       -2912.190          40.000          24.000
  21121260.699    21121259.5194   21121261.8424  110992943.901 7  86488060.57645
      1954.520        1523.003          47.000          37.000
  24303552.147    24303550.1574   24303549.7724  127716014.444 6  99518997.76442
      3867.300        3013.486          40.000          20.000
  23206077.218    23206076.4864   23206078.1984  121948754.808 7  95025028.65243
      2896.629        2257.115          45.000          28.000
  24024119.539    24024117.7464   24024121.4954  126247587.023 6  98374773.92941
      2350.106        1831.255          40.000          19.000
  25024473.803    25024471.4334   25024477.5204  131504415.120 5 102471039.62741
     -2349.104       -1830.504          35.000          11.000
  21874501.375    21874500.1494   21874502.8974  114951282.498 7  89572446.22144
       736.901         574.215          45.000          32.000
  24025282.260    24025279.910    24025284.436   128428957.588 5  99889184.717 5
     -3703.227       -2880.289          39.000          36.000
  19913468.040    19913469.794    19913471.158   106859899.465 7  83113286.029 6
     -1710.239       -1330.185          46.000          44.000
  19818363.301    19818365.067    19818363.883   106126425.119 7  82542830.278 6
      1565.579        1217.666          48.000          43.000
  20373592.344    20373593.273    20373598.033   109252558.307 7  84974249.704 6
     -2697.912       -2098.379          45.000          42.000
 05 10  2  1  3  0.0000000  0 15G 1G 7G11G14G19G20G23G24G25G28G31R 2
                                R 3R 4R18
  21142948.747    21142948.0784   21142951.0284  111106970.865 8  86576870.78545
      -486.052        -378.744          50.000          39.000
  23863591.779    23863590.5064   23863594.4474  125404021.192 6  97717441.85742
      2369.335        1846.254          40.000          22.000
  20253962.015    20253961.0714   20253962.2554  106435252.092 7  82936621.08745
      -631.155        -491.809          49.000          39.000
  22815991.287    22815990.8424   22815992.1374  119898868.307 6  93427711.36643
     -2613.581       -2036.548          43.000          26.000
  23999559.254    23999557.9454   23999559.6564  126118571.957 6  98274215.53442
     -3741.039       -2915.108          40.000          24.000
  21110135.017    21110133.7024   21110135.9884  110934476.429 7  86442501.52045
      1943.279        1514.247          49.000          38.000
  24281481.653    24281480.0394   24281480.6244  127600036.085 5  99428625.05342
      3864.494        3011.290          39.000          20.000
  23189552.611    23189551.4074   23189554.0744  121861920.108 7  94957365.26843
      2892.279        2253.715          45.000          28.000
  24010729.834    24010727.4994   24010731.1554  126177225.758 5  98319946.97841
      2340.561        1823.833          39.000          19.000
  25037909.040    25037904.9514   25037910.5284  131575014.488 5 102526052.06741
     -2357.411       -1836.996          35.000          11.000
  21870353.081    21870352.8144   21870355.3704  114929487.355 7  89555462.99444
       716.076         557.980          46.000          32.000
  24046066.050    24046061.802    24046066.151   128540043.448 5  99975584.826 5
     -3702.488       -2879.713          39.000          35.000
  19923061.457    19923063.317    19923064.401   106911378.371 7  83153325.177 7
     -1721.653       -1339.066          47.000          45.000
  19809632.291    19809634.095    19809632.822   106079672.506 8  82506467.152 6
      1551.257        1206.526          50.000          41.000
  20388747.425    20388749.307    20388754.087   109333829.551 7  85037460.653 6
     -2720.132       -2115.662          46.000          41.000
 05 10  2  1  3 30.0000000  0 15G 1G 7G11G14G19G20G23G24G25G28G31R 2
                                R 3R 4R18
  21145779.682    21145778.5974   21145781.2914  111121843.624 8  86588459.95245
      -505.472        -393.869          50.000          39.000
  23850102.306    23850100.8064   23850104.4744  125333126.987 6  97662199.63742
      2356.954        1836.582          41.000          23.000
  20257608.500    20257608.0704   20257609.1604  106454417.647 7  82951555.28346
      -646.567        -503.817          49.000          40.000
  22830948.471    22830948.3404   22830950.1574  119977472.757 6  93488961.59143
     -2626.715       -2046.799          42.000          26.000
  24020926.488    24020924.1974   24020926.0214  126230854.224 6  98361708.21042
     -3744.521       -2917.806          40.000          23.000
  21099073.349    21099071.9164   21099074.3574  110876346.256 8  86397205.29245
      1932.048        1505.495          50.000          38.000
  24259428.174    24259425.7134   24259425.9994  127484141.172 6  99338317.32342
      3861.744        3009.155          40.000          21.000
  23173053.440    23173052.7264   23173055.2584  121775216.429 7  94889803.95943
      2887.941        2250.351          45.000          28.000
  23997394.549    23997393.3524   23997396.6204  126107151.476 6  98265343.65241
      2331.065        1816.434          40.000          19.000
  25051389.559    25051388.2744   25051392.3214  131645862.389 5 102581258.22841
     -2365.658       -1843.373          35.000          10.000
  21866325.075    21866324.0384   21866326.8074  114908316.158 7  89538965.95644
       695.290         541.790          46.000          32.000
  24066837.019    24066838.352    24066842.533   128651108.477 5 100061968.711 4
     -3701.751       -2879.132          38.000          34.000
  19932718.412    19932720.043    19932721.660   106963199.786 7  83193630.723 7
     -1733.002       -1347.891          47.000          45.000
  19800982.264    19800983.835    19800982.569   106033349.956 8  82470438.505 6
      1536.973        1195.420          51.000          42.000
  20404027.742    20404029.063    20404033.869   109415765.924 7  85101188.929 6
     -2741.571       -2132.335          47.000          41.000
